<?xml version='1.0' encoding='UTF-8'?><gpx version="1.1" creator="JPX - https://github.com/jenetics/jpx" xmlns="http://www.topografix.com/GPX/1/1"><trk><trkseg><trkpt lat="39.48536649627853" lon="8.89750649815364"><ele>54.99999999999999</ele><time>2026-04-07T16:31:51.002Z</time></trkpt><trkpt lat="39.48545458166393" lon="8.897537945580225"><ele>55.0</ele><time>2026-04-07T16:33:04Z</time></trkpt><trkpt lat="39.485389848028134" lon="8.897526202547112"><ele>55.0</ele><time>2026-04-07T16:35:52Z</time></trkpt><trkpt lat="39.48532776263313" lon="8.89755367641349"><ele>55.0</ele><time>2026-04-07T16:35:59Z</time></trkpt><trkpt lat="39.485253915829645" lon="8.897520649416382"><ele>55.0</ele><time>2026-04-07T16:36:18Z</time></trkpt><trkpt lat="39.485246518783924" lon="8.89743596743532"><ele>54.99999999999999</ele><time>2026-04-07T16:36:34Z</time></trkpt><trkpt lat="39.48528382316833" lon="8.89735661110606"><ele>55.0</ele><time>2026-04-07T16:36:37Z</time></trkpt><trkpt lat="39.485316635130765" lon="8.89726244673327"><ele>54.99999999999999</ele><time>2026-04-07T16:36:40Z</time></trkpt><trkpt lat="39.48534730626679" lon="8.89718303748699"><ele>55.0</ele><time>2026-04-07T16:36:42Z</time></trkpt><trkpt lat="39.48537884861452" lon="8.897102310998722"><ele>55.0</ele><time>2026-04-07T16:36:44Z</time></trkpt><trkpt lat="39.48542043340973" lon="8.897011601208375"><ele>55.0</ele><time>2026-04-07T16:36:46Z</time></trkpt><trkpt lat="39.485454103840944" lon="8.896926639641762"><ele>55.0</ele><time>2026-04-07T16:36:48Z</time></trkpt><trkpt lat="39.48547666081128" lon="8.896839609935224"><ele>54.99999999999999</ele><time>2026-04-07T16:36:50Z</time></trkpt><trkpt lat="39.48547833139579" lon="8.89674425714429"><ele>55.0</ele><time>2026-04-07T16:36:54Z</time></trkpt><trkpt lat="39.48542097231196" lon="8.896693018773664"><ele>54.83333333333333</ele><time>2026-04-07T16:36:56Z</time></trkpt><trkpt lat="39.485352683183315" lon="8.896656774962082"><ele>54.666666666666664</ele><time>2026-04-07T16:36:58Z</time></trkpt><trkpt lat="39.48527395559881" lon="8.89662595617409"><ele>54.5</ele><time>2026-04-07T16:37:00Z</time></trkpt><trkpt lat="39.48518852331179" lon="8.896607010778961"><ele>54.33333333333333</ele><time>2026-04-07T16:37:02Z</time></trkpt><trkpt lat="39.48511319073007" lon="8.896586631933058"><ele>54.166666666666664</ele><time>2026-04-07T16:37:04Z</time></trkpt><trkpt lat="39.48501264551093" lon="8.8965990212836"><ele>54.0</ele><time>2026-04-07T16:37:06Z</time></trkpt><trkpt lat="39.48491578374784" lon="8.8966170174416"><ele>54.0</ele><time>2026-04-07T16:37:08Z</time></trkpt><trkpt lat="39.4848231397008" lon="8.896637060273514"><ele>54.00000000000001</ele><time>2026-04-07T16:37:10Z</time></trkpt><trkpt lat="39.48473230875551" lon="8.896642522119647"><ele>54.00000000000001</ele><time>2026-04-07T16:37:12Z</time></trkpt><trkpt lat="39.48463519074648" lon="8.896643078536782"><ele>54.0</ele><time>2026-04-07T16:37:14Z</time></trkpt><trkpt lat="39.48454720730254" lon="8.896648058960457"><ele>54.0</ele><time>2026-04-07T16:37:16Z</time></trkpt><trkpt lat="39.484451298537486" lon="8.896646232328733"><ele>54.0</ele><time>2026-04-07T16:37:18Z</time></trkpt><trkpt lat="39.48435670853829" lon="8.896657404261497"><ele>54.00000000000001</ele><time>2026-04-07T16:37:20Z</time></trkpt><trkpt lat="39.48426355899488" lon="8.896678473666672"><ele>54.00000000000001</ele><time>2026-04-07T16:37:22Z</time></trkpt><trkpt lat="39.48417868803422" lon="8.896746881092483"><ele>54.0</ele><time>2026-04-07T16:37:24Z</time></trkpt><trkpt lat="39.48411873679237" lon="8.896848525451752"><ele>54.0</ele><time>2026-04-07T16:37:26Z</time></trkpt><trkpt lat="39.484069656200234" lon="8.896958252349068"><ele>53.800000000000004</ele><time>2026-04-07T16:37:28Z</time></trkpt><trkpt lat="39.48402372673324" lon="8.897077186450908"><ele>53.60000000000001</ele><time>2026-04-07T16:37:30Z</time></trkpt><trkpt lat="39.48399897364471" lon="8.897167409956715"><ele>53.4</ele><time>2026-04-07T16:37:33Z</time></trkpt><trkpt lat="39.48397173760805" lon="8.89730901812776"><ele>53.2</ele><time>2026-04-07T16:37:34Z</time></trkpt><trkpt lat="39.483936002955744" lon="8.897426632990541"><ele>53.0</ele><time>2026-04-07T16:37:36Z</time></trkpt><trkpt lat="39.48388877696244" lon="8.897541400840081"><ele>53.0</ele><time>2026-04-07T16:37:38Z</time></trkpt><trkpt lat="39.48384863518031" lon="8.897672145766412"><ele>53.0</ele><time>2026-04-07T16:37:40Z</time></trkpt><trkpt lat="39.483812193487644" lon="8.897786580059412"><ele>53.0</ele><time>2026-04-07T16:37:42Z</time></trkpt><trkpt lat="39.48377788456899" lon="8.89790565364779"><ele>53.0</ele><time>2026-04-07T16:37:44Z</time></trkpt><trkpt lat="39.48374259909687" lon="8.89802616704096"><ele>53.0</ele><time>2026-04-07T16:37:46Z</time></trkpt><trkpt lat="39.483692631478306" lon="8.898138236335813"><ele>53.0</ele><time>2026-04-07T16:37:48Z</time></trkpt><trkpt lat="39.483646505752795" lon="8.898250254564932"><ele>53.0</ele><time>2026-04-07T16:37:50Z</time></trkpt><trkpt lat="39.48358228461209" lon="8.898381603491096"><ele>53.0</ele><time>2026-04-07T16:37:52Z</time></trkpt><trkpt lat="39.48354243256459" lon="8.898490097622354"><ele>53.0</ele><time>2026-04-07T16:37:54Z</time></trkpt><trkpt lat="39.483510449674405" lon="8.898597467044592"><ele>53.0</ele><time>2026-04-07T16:37:56Z</time></trkpt><trkpt lat="39.48347380460037" lon="8.898699381810538"><ele>53.00000000000001</ele><time>2026-04-07T16:37:58Z</time></trkpt><trkpt lat="39.48340169868719" lon="8.898749079332234"><ele>53.0</ele><time>2026-04-07T16:38:00Z</time></trkpt><trkpt lat="39.48333006185601" lon="8.898716295687219"><ele>53.0</ele><time>2026-04-07T16:38:02Z</time></trkpt><trkpt lat="39.48325148512007" lon="8.898659111236576"><ele>53.0</ele><time>2026-04-07T16:38:04Z</time></trkpt><trkpt lat="39.48316560210027" lon="8.898608151729142"><ele>53.00000000000001</ele><time>2026-04-07T16:38:06Z</time></trkpt><trkpt lat="39.48308020543031" lon="8.898549546028006"><ele>53.0</ele><time>2026-04-07T16:38:08Z</time></trkpt><trkpt lat="39.48299402763084" lon="8.898481961872564"><ele>53.0</ele><time>2026-04-07T16:38:10Z</time></trkpt><trkpt lat="39.48290794325491" lon="8.898412304635364"><ele>53.0</ele><time>2026-04-07T16:38:12Z</time></trkpt><trkpt lat="39.482822669594675" lon="8.89833451337589"><ele>53.0</ele><time>2026-04-07T16:38:14Z</time></trkpt><trkpt lat="39.48273724670279" lon="8.89825716283512"><ele>53.0</ele><time>2026-04-07T16:38:16Z</time></trkpt><trkpt lat="39.48265466871381" lon="8.89818772973702"><ele>53.0</ele><time>2026-04-07T16:38:18Z</time></trkpt><trkpt lat="39.482570773119235" lon="8.8981126680212"><ele>53.0</ele><time>2026-04-07T16:38:20Z</time></trkpt><trkpt lat="39.48249075901627" lon="8.898031411780725"><ele>53.0</ele><time>2026-04-07T16:38:22Z</time></trkpt><trkpt lat="39.48241347492481" lon="8.897946748812569"><ele>53.0</ele><time>2026-04-07T16:38:24Z</time></trkpt><trkpt lat="39.48233739233514" lon="8.897859783972317"><ele>53.0</ele><time>2026-04-07T16:38:26Z</time></trkpt><trkpt lat="39.48226536213098" lon="8.897770578522037"><ele>53.0</ele><time>2026-04-07T16:38:28Z</time></trkpt><trkpt lat="39.48219569506181" lon="8.897676127963864"><ele>53.0</ele><time>2026-04-07T16:38:30Z</time></trkpt><trkpt lat="39.48212551409079" lon="8.897581495906742"><ele>53.0</ele><time>2026-04-07T16:38:32Z</time></trkpt><trkpt lat="39.48205506182576" lon="8.897480340775642"><ele>53.0</ele><time>2026-04-07T16:38:34Z</time></trkpt><trkpt lat="39.4819883516314" lon="8.897385469293365"><ele>53.0</ele><time>2026-04-07T16:38:36Z</time></trkpt><trkpt lat="39.48191919242142" lon="8.897289658162967"><ele>53.0</ele><time>2026-04-07T16:38:38Z</time></trkpt><trkpt lat="39.48184985597297" lon="8.897199068248716"><ele>52.599999999999994</ele><time>2026-04-07T16:38:40Z</time></trkpt><trkpt lat="39.4818010713679" lon="8.897107762701438"><ele>52.199999999999996</ele><time>2026-04-07T16:38:42Z</time></trkpt><trkpt lat="39.481769721508606" lon="8.897036771516316"><ele>51.8</ele><time>2026-04-07T16:38:43Z</time></trkpt><trkpt lat="39.48169485126993" lon="8.896961499565794"><ele>51.4</ele><time>2026-04-07T16:38:45Z</time></trkpt><trkpt lat="39.481574633042825" lon="8.896914843849574"><ele>51.0</ele><time>2026-04-07T16:38:47Z</time></trkpt><trkpt lat="39.48147801388403" lon="8.897051480535467"><ele>51.0</ele><time>2026-04-07T16:38:49Z</time></trkpt><trkpt lat="39.48138887743159" lon="8.897099242110595"><ele>51.0</ele><time>2026-04-07T16:38:51Z</time></trkpt><trkpt lat="39.4813307411558" lon="8.897194227556184"><ele>51.0</ele><time>2026-04-07T16:38:53Z</time></trkpt><trkpt lat="39.481354594005076" lon="8.89734996128625"><ele>51.0</ele><time>2026-04-07T16:38:55Z</time></trkpt><trkpt lat="39.48137433787531" lon="8.897472239096924"><ele>51.0</ele><time>2026-04-07T16:38:57Z</time></trkpt><trkpt lat="39.48139068514549" lon="8.897601772791768"><ele>50.833333333333336</ele><time>2026-04-07T16:38:59Z</time></trkpt><trkpt lat="39.48140994723798" lon="8.897726958807704"><ele>50.66666666666667</ele><time>2026-04-07T16:39:01Z</time></trkpt><trkpt lat="39.48142409365418" lon="8.897844941751707"><ele>50.5</ele><time>2026-04-07T16:39:03Z</time></trkpt><trkpt lat="39.48143812315511" lon="8.897952972100768"><ele>50.333333333333336</ele><time>2026-04-07T16:39:05Z</time></trkpt><trkpt lat="39.48145092380509" lon="8.89805623367868"><ele>50.16666666666667</ele><time>2026-04-07T16:39:07Z</time></trkpt><trkpt lat="39.48146320103499" lon="8.898150925524567"><ele>50.0</ele><time>2026-04-07T16:39:09Z</time></trkpt><trkpt lat="39.48147130715474" lon="8.898244073202319"><ele>50.00000000000001</ele><time>2026-04-07T16:39:11Z</time></trkpt><trkpt lat="39.481485804155255" lon="8.898339940659469"><ele>50.0</ele><time>2026-04-07T16:39:13Z</time></trkpt><trkpt lat="39.48150044575312" lon="8.8984341900259"><ele>50.0</ele><time>2026-04-07T16:39:15Z</time></trkpt><trkpt lat="39.48151254259225" lon="8.898533196321921"><ele>50.0</ele><time>2026-04-07T16:39:17Z</time></trkpt><trkpt lat="39.48151357543611" lon="8.898640085126484"><ele>50.00000000000001</ele><time>2026-04-07T16:39:20Z</time></trkpt><trkpt lat="39.48151880849535" lon="8.8987221570216"><ele>50.0</ele><time>2026-04-07T16:39:22Z</time></trkpt><trkpt lat="39.48152544697234" lon="8.898831648863803"><ele>50.00000000000001</ele><time>2026-04-07T16:39:25Z</time></trkpt><trkpt lat="39.48153023664216" lon="8.898947584220945"><ele>50.0</ele><time>2026-04-07T16:39:28Z</time></trkpt><trkpt lat="39.4815366040488" lon="8.899033395663071"><ele>50.0</ele><time>2026-04-07T16:39:30Z</time></trkpt><trkpt lat="39.48153788410096" lon="8.899115259621805"><ele>50.0</ele><time>2026-04-07T16:39:32Z</time></trkpt><trkpt lat="39.4815276789021" lon="8.899202106848698"><ele>50.00000000000001</ele><time>2026-04-07T16:39:34Z</time></trkpt><trkpt lat="39.481533082812575" lon="8.899330570362494"><ele>50.0</ele><time>2026-04-07T16:39:36Z</time></trkpt><trkpt lat="39.48153938096979" lon="8.899455936403445"><ele>50.0</ele><time>2026-04-07T16:39:39Z</time></trkpt><trkpt lat="39.48154879702475" lon="8.899555970510633"><ele>50.0</ele><time>2026-04-07T16:39:41Z</time></trkpt><trkpt lat="39.48155945558945" lon="8.899663305635944"><ele>50.0</ele><time>2026-04-07T16:39:43Z</time></trkpt><trkpt lat="39.481568294895936" lon="8.899767464547267"><ele>50.0</ele><time>2026-04-07T16:39:45Z</time></trkpt><trkpt lat="39.4816429567966" lon="8.900022717848854"><ele>49.8</ele><time>2026-04-07T16:39:47Z</time></trkpt><trkpt lat="39.48169444658509" lon="8.900153076847895"><ele>49.6</ele><time>2026-04-07T16:39:49Z</time></trkpt><trkpt lat="39.48170140798454" lon="8.900348035257956"><ele>49.400000000000006</ele><time>2026-04-07T16:39:51Z</time></trkpt><trkpt lat="39.481799504116026" lon="8.900368498819414"><ele>49.2</ele><time>2026-04-07T16:39:52Z</time></trkpt><trkpt lat="39.48184470418709" lon="8.900444199652409"><ele>49.0</ele><time>2026-04-07T16:39:53Z</time></trkpt><trkpt lat="39.4818986739369" lon="8.900520416124627"><ele>48.99999999999999</ele><time>2026-04-07T16:39:54Z</time></trkpt><trkpt lat="39.48196642040342" lon="8.900587301440888"><ele>49.0</ele><time>2026-04-07T16:39:55Z</time></trkpt><trkpt lat="39.48203872202926" lon="8.900653371363004"><ele>49.0</ele><time>2026-04-07T16:39:56Z</time></trkpt><trkpt lat="39.48211282631203" lon="8.900721704574009"><ele>49.0</ele><time>2026-04-07T16:39:57Z</time></trkpt><trkpt lat="39.48218830604841" lon="8.900775653134497"><ele>48.99999999999999</ele><time>2026-04-07T16:39:58Z</time></trkpt><trkpt lat="39.48226845569234" lon="8.900824699081516"><ele>49.0</ele><time>2026-04-07T16:39:59Z</time></trkpt><trkpt lat="39.48235339083753" lon="8.900859587835585"><ele>48.83333333333333</ele><time>2026-04-07T16:40:00Z</time></trkpt><trkpt lat="39.48243052953482" lon="8.900884626900185"><ele>48.666666666666664</ele><time>2026-04-07T16:40:01Z</time></trkpt><trkpt lat="39.48251275580554" lon="8.90090393792525"><ele>48.5</ele><time>2026-04-07T16:40:02Z</time></trkpt><trkpt lat="39.482577027009306" lon="8.900970268080469"><ele>48.33333333333333</ele><time>2026-04-07T16:40:03Z</time></trkpt><trkpt lat="39.48262803918877" lon="8.901027239340594"><ele>48.166666666666664</ele><time>2026-04-07T16:40:04Z</time></trkpt><trkpt lat="39.482734995984806" lon="8.901045632542994"><ele>48.0</ele><time>2026-04-07T16:40:06Z</time></trkpt><trkpt lat="39.482793750408106" lon="8.901115132946243"><ele>48.0</ele><time>2026-04-07T16:40:09Z</time></trkpt><trkpt lat="39.4827780671585" lon="8.901195481452657"><ele>48.0</ele><time>2026-04-07T16:40:11Z</time></trkpt><trkpt lat="39.482742153383775" lon="8.90128942705174"><ele>48.0</ele><time>2026-04-07T16:40:13Z</time></trkpt><trkpt lat="39.48270253421844" lon="8.901388430948"><ele>48.0</ele><time>2026-04-07T16:40:15Z</time></trkpt><trkpt lat="39.482661269650535" lon="8.901487516766535"><ele>48.0</ele><time>2026-04-07T16:40:17Z</time></trkpt><trkpt lat="39.48261889740935" lon="8.901583825687002"><ele>48.0</ele><time>2026-04-07T16:40:19Z</time></trkpt><trkpt lat="39.482587873368075" lon="8.901665835011569"><ele>48.42857142857142</ele><time>2026-04-07T16:40:21Z</time></trkpt><trkpt lat="39.482553887595586" lon="8.901753653778853"><ele>48.857142857142854</ele><time>2026-04-07T16:40:23Z</time></trkpt><trkpt lat="39.48252322614451" lon="8.90183492249721"><ele>49.285714285714285</ele><time>2026-04-07T16:40:25Z</time></trkpt><trkpt lat="39.482490416569014" lon="8.901916377006797"><ele>49.71428571428571</ele><time>2026-04-07T16:40:27Z</time></trkpt><trkpt lat="39.48245738227392" lon="8.902001224394828"><ele>50.142857142857146</ele><time>2026-04-07T16:40:29Z</time></trkpt><trkpt lat="39.48242111849026" lon="8.902087441848352"><ele>50.57142857142857</ele><time>2026-04-07T16:40:31Z</time></trkpt><trkpt lat="39.482386041633255" lon="8.902177437339583"><ele>51.0</ele><time>2026-04-07T16:40:33Z</time></trkpt><trkpt lat="39.48235538828361" lon="8.902263190493743"><ele>51.0</ele><time>2026-04-07T16:40:35Z</time></trkpt><trkpt lat="39.48234028170969" lon="8.90236803691257"><ele>51.0</ele><time>2026-04-07T16:40:37Z</time></trkpt><trkpt lat="39.48241151775328" lon="8.90246349553406"><ele>51.0</ele><time>2026-04-07T16:40:39Z</time></trkpt><trkpt lat="39.482507900917334" lon="8.902505237448644"><ele>51.0</ele><time>2026-04-07T16:40:41Z</time></trkpt><trkpt lat="39.4825958064228" lon="8.90256082825742"><ele>51.0</ele><time>2026-04-07T16:40:43Z</time></trkpt><trkpt lat="39.48268842269321" lon="8.902611978108586"><ele>51.4</ele><time>2026-04-07T16:40:45Z</time></trkpt><trkpt lat="39.482781947880845" lon="8.90266428695019"><ele>51.8</ele><time>2026-04-07T16:40:47Z</time></trkpt><trkpt lat="39.48287647111825" lon="8.902720838499164"><ele>52.199999999999996</ele><time>2026-04-07T16:40:49Z</time></trkpt><trkpt lat="39.4829722459221" lon="8.902778769890043"><ele>52.599999999999994</ele><time>2026-04-07T16:40:51Z</time></trkpt><trkpt lat="39.48306745537318" lon="8.902834099549015"><ele>53.0</ele><time>2026-04-07T16:40:53Z</time></trkpt><trkpt lat="39.4831645134609" lon="8.9028938112424"><ele>53.0</ele><time>2026-04-07T16:40:55Z</time></trkpt><trkpt lat="39.48326458641812" lon="8.902953611012043"><ele>53.0</ele><time>2026-04-07T16:40:57Z</time></trkpt><trkpt lat="39.48336551581571" lon="8.9030164884017"><ele>53.0</ele><time>2026-04-07T16:40:59Z</time></trkpt><trkpt lat="39.483465216824456" lon="8.903077316080875"><ele>53.0</ele><time>2026-04-07T16:41:01Z</time></trkpt><trkpt lat="39.48356752087371" lon="8.903138311633318"><ele>53.0</ele><time>2026-04-07T16:41:03Z</time></trkpt><trkpt lat="39.483665694399974" lon="8.90319660263278"><ele>53.0</ele><time>2026-04-07T16:41:05Z</time></trkpt><trkpt lat="39.48376742900158" lon="8.90325626324744"><ele>53.0</ele><time>2026-04-07T16:41:07Z</time></trkpt><trkpt lat="39.48386851708833" lon="8.903317900204703"><ele>53.0</ele><time>2026-04-07T16:41:09Z</time></trkpt><trkpt lat="39.4839668520034" lon="8.903383746879589"><ele>53.0</ele><time>2026-04-07T16:41:11Z</time></trkpt><trkpt lat="39.48406982562234" lon="8.90344090739399"><ele>53.0</ele><time>2026-04-07T16:41:13Z</time></trkpt><trkpt lat="39.48417080338162" lon="8.90350512780454"><ele>53.0</ele><time>2026-04-07T16:41:15Z</time></trkpt><trkpt lat="39.48427554879721" lon="8.903564097697295"><ele>53.0</ele><time>2026-04-07T16:41:17Z</time></trkpt><trkpt lat="39.48437686186717" lon="8.903625576708986"><ele>53.0</ele><time>2026-04-07T16:41:19Z</time></trkpt><trkpt lat="39.48447955841145" lon="8.903686598862649"><ele>53.0</ele><time>2026-04-07T16:41:21Z</time></trkpt><trkpt lat="39.48458139711316" lon="8.903749505362988"><ele>52.75</ele><time>2026-04-07T16:41:23Z</time></trkpt><trkpt lat="39.484684460091145" lon="8.903812017124512"><ele>52.5</ele><time>2026-04-07T16:41:25Z</time></trkpt><trkpt lat="39.48478879757866" lon="8.903874348585042"><ele>52.25</ele><time>2026-04-07T16:41:27Z</time></trkpt><trkpt lat="39.48489383477781" lon="8.903935921797922"><ele>52.0</ele><time>2026-04-07T16:41:29Z</time></trkpt><trkpt lat="39.48499512237834" lon="8.903996764887317"><ele>52.0</ele><time>2026-04-07T16:41:31Z</time></trkpt><trkpt lat="39.48510035920964" lon="8.904061972585144"><ele>52.0</ele><time>2026-04-07T16:41:33Z</time></trkpt><trkpt lat="39.485202722169866" lon="8.904129528120162"><ele>52.0</ele><time>2026-04-07T16:41:35Z</time></trkpt><trkpt lat="39.48530077289524" lon="8.904208968921289"><ele>52.0</ele><time>2026-04-07T16:41:37Z</time></trkpt><trkpt lat="39.48539356230949" lon="8.904295099164468"><ele>52.5</ele><time>2026-04-07T16:41:39Z</time></trkpt><trkpt lat="39.48548191005996" lon="8.904388454049592"><ele>53.0</ele><time>2026-04-07T16:41:41Z</time></trkpt><trkpt lat="39.48556678875982" lon="8.904489545063777"><ele>53.5</ele><time>2026-04-07T16:41:43Z</time></trkpt><trkpt lat="39.4856460280268" lon="8.904593882604916"><ele>54.0</ele><time>2026-04-07T16:41:45Z</time></trkpt><trkpt lat="39.48571706485209" lon="8.904706760759893"><ele>54.0</ele><time>2026-04-07T16:41:47Z</time></trkpt><trkpt lat="39.485780902068285" lon="8.90482898362028"><ele>54.0</ele><time>2026-04-07T16:41:49Z</time></trkpt><trkpt lat="39.48584462490404" lon="8.904953766144176"><ele>54.0</ele><time>2026-04-07T16:41:51Z</time></trkpt><trkpt lat="39.4859095426183" lon="8.905080452599128"><ele>54.0</ele><time>2026-04-07T16:41:53Z</time></trkpt><trkpt lat="39.48595937666417" lon="8.905213441090226"><ele>54.0</ele><time>2026-04-07T16:41:55Z</time></trkpt><trkpt lat="39.485997832816466" lon="8.905350942516446"><ele>54.00000000000001</ele><time>2026-04-07T16:41:57Z</time></trkpt><trkpt lat="39.48602640199367" lon="8.90547855248838"><ele>54.00000000000001</ele><time>2026-04-07T16:41:59Z</time></trkpt><trkpt lat="39.48604438672397" lon="8.905599205056514"><ele>54.0</ele><time>2026-04-07T16:42:01Z</time></trkpt><trkpt lat="39.486055137805096" lon="8.905728853818728"><ele>54.0</ele><time>2026-04-07T16:42:03Z</time></trkpt><trkpt lat="39.486071705399326" lon="8.905850707791839"><ele>54.400000000000006</ele><time>2026-04-07T16:42:05Z</time></trkpt><trkpt lat="39.48609531599778" lon="8.905970531784867"><ele>54.800000000000004</ele><time>2026-04-07T16:42:07Z</time></trkpt><trkpt lat="39.48610561376183" lon="8.906087141145264"><ele>55.199999999999996</ele><time>2026-04-07T16:42:09Z</time></trkpt><trkpt lat="39.48611124440574" lon="8.906205322101782"><ele>55.599999999999994</ele><time>2026-04-07T16:42:11Z</time></trkpt><trkpt lat="39.48611279340361" lon="8.906331078445197"><ele>56.0</ele><time>2026-04-07T16:42:13Z</time></trkpt><trkpt lat="39.48611750779131" lon="8.906456215161638"><ele>56.0</ele><time>2026-04-07T16:42:15Z</time></trkpt><trkpt lat="39.48611611791279" lon="8.906576597225868"><ele>55.99999999999999</ele><time>2026-04-07T16:42:17Z</time></trkpt><trkpt lat="39.48609852887391" lon="8.90669906929164"><ele>55.99999999999999</ele><time>2026-04-07T16:42:19Z</time></trkpt><trkpt lat="39.4860749126473" lon="8.906812944941551"><ele>56.0</ele><time>2026-04-07T16:42:21Z</time></trkpt><trkpt lat="39.48604890353665" lon="8.90692908777554"><ele>56.0</ele><time>2026-04-07T16:42:23Z</time></trkpt><trkpt lat="39.48602634996988" lon="8.907040052662582"><ele>56.833333333333336</ele><time>2026-04-07T16:42:25Z</time></trkpt><trkpt lat="39.4860023220477" lon="8.907153342269542"><ele>57.66666666666667</ele><time>2026-04-07T16:42:27Z</time></trkpt><trkpt lat="39.48597663709864" lon="8.907259487441975"><ele>58.5</ele><time>2026-04-07T16:42:29Z</time></trkpt><trkpt lat="39.485955013282556" lon="8.907360090422966"><ele>59.33333333333333</ele><time>2026-04-07T16:42:31Z</time></trkpt><trkpt lat="39.48592765274153" lon="8.907467353022748"><ele>60.166666666666664</ele><time>2026-04-07T16:42:34Z</time></trkpt><trkpt lat="39.48591843427419" lon="8.907555193706848"><ele>61.0</ele><time>2026-04-07T16:42:36Z</time></trkpt><trkpt lat="39.48592054330948" lon="8.907650690136945"><ele>61.28571428571428</ele><time>2026-04-07T16:42:38Z</time></trkpt><trkpt lat="39.485919692640685" lon="8.907739963451254"><ele>61.57142857142857</ele><time>2026-04-07T16:42:40Z</time></trkpt><trkpt lat="39.48592053355143" lon="8.907832954766558"><ele>61.857142857142854</ele><time>2026-04-07T16:42:42Z</time></trkpt><trkpt lat="39.48591339215102" lon="8.90791894683427"><ele>62.14285714285714</ele><time>2026-04-07T16:42:44Z</time></trkpt><trkpt lat="39.485916463037995" lon="8.908039724450964"><ele>62.42857142857143</ele><time>2026-04-07T16:42:47Z</time></trkpt><trkpt lat="39.48591905131273" lon="8.908128083422154"><ele>62.714285714285715</ele><time>2026-04-07T16:42:49Z</time></trkpt><trkpt lat="39.4859257421251" lon="8.908220475387116"><ele>63.0</ele><time>2026-04-07T16:42:51Z</time></trkpt><trkpt lat="39.485923866730076" lon="8.908309566963174"><ele>63.0</ele><time>2026-04-07T16:42:53Z</time></trkpt><trkpt lat="39.48591165959934" lon="8.908407446385791"><ele>63.0</ele><time>2026-04-07T16:42:55Z</time></trkpt><trkpt lat="39.485918388002446" lon="8.908491001418886"><ele>63.0</ele><time>2026-04-07T16:42:57Z</time></trkpt><trkpt lat="39.48591545376794" lon="8.908584043046195"><ele>63.0</ele><time>2026-04-07T16:43:00Z</time></trkpt><trkpt lat="39.485912051672344" lon="8.908680176370963"><ele>63.0</ele><time>2026-04-07T16:43:01Z</time></trkpt><trkpt lat="39.4859090036158" lon="8.908777617993993"><ele>63.0</ele><time>2026-04-07T16:43:03Z</time></trkpt><trkpt lat="39.48590739281214" lon="8.90887488140149"><ele>63.0</ele><time>2026-04-07T16:43:05Z</time></trkpt><trkpt lat="39.48590740737334" lon="8.90896106184618"><ele>63.166666666666664</ele><time>2026-04-07T16:43:08Z</time></trkpt><trkpt lat="39.48590540818481" lon="8.909044950504196"><ele>63.33333333333333</ele><time>2026-04-07T16:43:09Z</time></trkpt><trkpt lat="39.485899674774366" lon="8.909187312870998"><ele>63.5</ele><time>2026-04-07T16:43:12Z</time></trkpt><trkpt lat="39.48589274691673" lon="8.909285455205366"><ele>63.666666666666664</ele><time>2026-04-07T16:43:14Z</time></trkpt><trkpt lat="39.48588648904183" lon="8.909370157071463"><ele>63.83333333333333</ele><time>2026-04-07T16:43:15Z</time></trkpt><trkpt lat="39.48588413705869" lon="8.909464949885562"><ele>64.0</ele><time>2026-04-07T16:43:17Z</time></trkpt><trkpt lat="39.48588188352452" lon="8.909560453532675"><ele>64.42857142857143</ele><time>2026-04-07T16:43:19Z</time></trkpt><trkpt lat="39.48588167301911" lon="8.909655912786008"><ele>64.85714285714285</ele><time>2026-04-07T16:43:21Z</time></trkpt><trkpt lat="39.48588284183225" lon="8.909752486767047"><ele>65.28571428571428</ele><time>2026-04-07T16:43:23Z</time></trkpt><trkpt lat="39.48588161585716" lon="8.909848821910941"><ele>65.71428571428571</ele><time>2026-04-07T16:43:25Z</time></trkpt><trkpt lat="39.48587949648736" lon="8.90994614572185"><ele>66.14285714285714</ele><time>2026-04-07T16:43:27Z</time></trkpt><trkpt lat="39.48587806981755" lon="8.910041299873209"><ele>66.57142857142857</ele><time>2026-04-07T16:43:29Z</time></trkpt><trkpt lat="39.48587517657726" lon="8.910133698774876"><ele>67.0</ele><time>2026-04-07T16:43:31Z</time></trkpt><trkpt lat="39.4858712584775" lon="8.91022562730867"><ele>67.28571428571429</ele><time>2026-04-07T16:43:33Z</time></trkpt><trkpt lat="39.485845338339395" lon="8.910314033323388"><ele>67.57142857142857</ele><time>2026-04-07T16:43:35Z</time></trkpt><trkpt lat="39.485850004743774" lon="8.910425388692024"><ele>67.85714285714286</ele><time>2026-04-07T16:43:38Z</time></trkpt><trkpt lat="39.485849962043595" lon="8.91051061906292"><ele>68.14285714285714</ele><time>2026-04-07T16:43:40Z</time></trkpt><trkpt lat="39.48584553264704" lon="8.910599322674347"><ele>68.42857142857143</ele><time>2026-04-07T16:43:42Z</time></trkpt><trkpt lat="39.48584794467201" lon="8.910691592047245"><ele>68.71428571428572</ele><time>2026-04-07T16:43:44Z</time></trkpt><trkpt lat="39.485844821334446" lon="8.910783330441605"><ele>69.0</ele><time>2026-04-07T16:43:46Z</time></trkpt><trkpt lat="39.48584153765998" lon="8.910871476241887"><ele>69.0</ele><time>2026-04-07T16:43:48Z</time></trkpt><trkpt lat="39.48583078478852" lon="8.911001352654099"><ele>69.0</ele><time>2026-04-07T16:43:51Z</time></trkpt><trkpt lat="39.48582458012289" lon="8.911092015014892"><ele>69.0</ele><time>2026-04-07T16:43:53Z</time></trkpt><trkpt lat="39.48582663970301" lon="8.911191104322235"><ele>69.0</ele><time>2026-04-07T16:43:55Z</time></trkpt><trkpt lat="39.48582951898661" lon="8.911288422385885"><ele>69.0</ele><time>2026-04-07T16:43:57Z</time></trkpt><trkpt lat="39.48582346781103" lon="8.911374154017592"><ele>69.0</ele><time>2026-04-07T16:43:59Z</time></trkpt><trkpt lat="39.48581332418102" lon="8.911466369190373"><ele>69.0</ele><time>2026-04-07T16:44:01Z</time></trkpt><trkpt lat="39.48581661537839" lon="8.911568398419826"><ele>69.0</ele><time>2026-04-07T16:44:03Z</time></trkpt><trkpt lat="39.48581990427922" lon="8.911668609939833"><ele>69.0</ele><time>2026-04-07T16:44:05Z</time></trkpt><trkpt lat="39.485819553190034" lon="8.911770406139587"><ele>69.0</ele><time>2026-04-07T16:44:07Z</time></trkpt><trkpt lat="39.48581381554837" lon="8.911857819462053"><ele>69.0</ele><time>2026-04-07T16:44:09Z</time></trkpt><trkpt lat="39.485810989132226" lon="8.911953840726467"><ele>69.0</ele><time>2026-04-07T16:44:11Z</time></trkpt><trkpt lat="39.485814019124696" lon="8.912095504752893"><ele>69.5</ele><time>2026-04-07T16:44:14Z</time></trkpt><trkpt lat="39.48580672253462" lon="8.912244441602361"><ele>70.0</ele><time>2026-04-07T16:44:17Z</time></trkpt><trkpt lat="39.485802895510425" lon="8.912336239613134"><ele>70.5</ele><time>2026-04-07T16:44:19Z</time></trkpt><trkpt lat="39.485789297841656" lon="8.91243279660608"><ele>71.0</ele><time>2026-04-07T16:44:21Z</time></trkpt><trkpt lat="39.48575897431827" lon="8.912548553863333"><ele>71.5</ele><time>2026-04-07T16:44:24Z</time></trkpt><trkpt lat="39.48572746839634" lon="8.91263422659547"><ele>72.0</ele><time>2026-04-07T16:44:26Z</time></trkpt><trkpt lat="39.48568892385993" lon="8.912710435553798"><ele>72.33333333333333</ele><time>2026-04-07T16:44:28Z</time></trkpt><trkpt lat="39.48564253166881" lon="8.912785815930762"><ele>72.66666666666667</ele><time>2026-04-07T16:44:30Z</time></trkpt><trkpt lat="39.4855887845631" lon="8.912840250914092"><ele>73.0</ele><time>2026-04-07T16:44:32Z</time></trkpt><trkpt lat="39.48551392813285" lon="8.91289399491727"><ele>73.33333333333334</ele><time>2026-04-07T16:44:35Z</time></trkpt><trkpt lat="39.48543511059639" lon="8.912933490851035"><ele>73.66666666666667</ele><time>2026-04-07T16:44:38Z</time></trkpt><trkpt lat="39.48534406045684" lon="8.912953297074093"><ele>74.0</ele><time>2026-04-07T16:44:41Z</time></trkpt><trkpt lat="39.48525855269913" lon="8.912964188393156"><ele>74.66666666666667</ele><time>2026-04-07T16:44:44Z</time></trkpt><trkpt lat="39.485178431298316" lon="8.912956193960241"><ele>75.33333333333334</ele><time>2026-04-07T16:44:46Z</time></trkpt><trkpt lat="39.485092920069576" lon="8.912956122046797"><ele>76.0</ele><time>2026-04-07T16:44:49Z</time></trkpt><trkpt lat="39.48500804533618" lon="8.912956450586114"><ele>76.66666666666667</ele><time>2026-04-07T16:44:52Z</time></trkpt><trkpt lat="39.484929454212775" lon="8.91295941107575"><ele>77.33333333333333</ele><time>2026-04-07T16:44:55Z</time></trkpt><trkpt lat="39.48484407778318" lon="8.91295245801516"><ele>78.0</ele><time>2026-04-07T16:44:58Z</time></trkpt><trkpt lat="39.484768473567776" lon="8.912949315397347"><ele>78.0</ele><time>2026-04-07T16:45:00Z</time></trkpt><trkpt lat="39.48468672948858" lon="8.91295175251466"><ele>78.0</ele><time>2026-04-07T16:45:02Z</time></trkpt><trkpt lat="39.48461195687086" lon="8.912952109538084"><ele>78.0</ele><time>2026-04-07T16:45:04Z</time></trkpt><trkpt lat="39.48451815818145" lon="8.912949254439127"><ele>78.0</ele><time>2026-04-07T16:45:07Z</time></trkpt><trkpt lat="39.48444721476198" lon="8.912943619648095"><ele>78.0</ele><time>2026-04-07T16:45:09Z</time></trkpt><trkpt lat="39.48438400612035" lon="8.912944010305177"><ele>78.0</ele><time>2026-04-07T16:45:11Z</time></trkpt><trkpt lat="39.48428967434312" lon="8.912939187605158"><ele>78.16666666666667</ele><time>2026-04-07T16:45:14Z</time></trkpt><trkpt lat="39.48421961134857" lon="8.912937449468078"><ele>78.33333333333333</ele><time>2026-04-07T16:45:16Z</time></trkpt><trkpt lat="39.484151691226266" lon="8.912934275564258"><ele>78.5</ele><time>2026-04-07T16:45:18Z</time></trkpt><trkpt lat="39.484062229855006" lon="8.912976994791453"><ele>78.66666666666666</ele><time>2026-04-07T16:45:21Z</time></trkpt><trkpt lat="39.48396512505374" lon="8.912987587545786"><ele>78.83333333333333</ele><time>2026-04-07T16:45:24Z</time></trkpt><trkpt lat="39.4838907278785" lon="8.913067110865777"><ele>79.0</ele><time>2026-04-07T16:45:27Z</time></trkpt><trkpt lat="39.48381495458989" lon="8.91314615953088"><ele>79.33333333333333</ele><time>2026-04-07T16:45:29Z</time></trkpt><trkpt lat="39.483743126847635" lon="8.91317960724737"><ele>79.66666666666666</ele><time>2026-04-07T16:45:31Z</time></trkpt><trkpt lat="39.48366268869231" lon="8.91317269764124"><ele>80.0</ele><time>2026-04-07T16:45:33Z</time></trkpt><trkpt lat="39.48358215457874" lon="8.913173035863867"><ele>80.33333333333333</ele><time>2026-04-07T16:45:35Z</time></trkpt><trkpt lat="39.48350290301683" lon="8.913168048373239"><ele>80.66666666666667</ele><time>2026-04-07T16:45:37Z</time></trkpt><trkpt lat="39.48342264274091" lon="8.913164675955663"><ele>81.0</ele><time>2026-04-07T16:45:39Z</time></trkpt><trkpt lat="39.48332511275855" lon="8.913162608139404"><ele>81.0</ele><time>2026-04-07T16:45:42Z</time></trkpt><trkpt lat="39.48325001553564" lon="8.913161982776831"><ele>81.0</ele><time>2026-04-07T16:45:44Z</time></trkpt><trkpt lat="39.483158033987976" lon="8.91316033921381"><ele>81.0</ele><time>2026-04-07T16:45:47Z</time></trkpt><trkpt lat="39.48301877548934" lon="8.913154167024505"><ele>81.0</ele><time>2026-04-07T16:45:50Z</time></trkpt><trkpt lat="39.482936775634194" lon="8.913152622069008"><ele>81.0</ele><time>2026-04-07T16:45:52Z</time></trkpt><trkpt lat="39.48285047273944" lon="8.913149541830629"><ele>80.6</ele><time>2026-04-07T16:45:54Z</time></trkpt><trkpt lat="39.482756017909566" lon="8.913147967198107"><ele>80.19999999999999</ele><time>2026-04-07T16:45:56Z</time></trkpt><trkpt lat="39.48266507793757" lon="8.913150403009345"><ele>79.80000000000001</ele><time>2026-04-07T16:45:58Z</time></trkpt><trkpt lat="39.48257086073537" lon="8.913151212044912"><ele>79.4</ele><time>2026-04-07T16:46:00Z</time></trkpt><trkpt lat="39.4824707140636" lon="8.91315521075176"><ele>79.0</ele><time>2026-04-07T16:46:02Z</time></trkpt><trkpt lat="39.482362303850834" lon="8.913158402420311"><ele>79.0</ele><time>2026-04-07T16:46:04Z</time></trkpt><trkpt lat="39.48222436616344" lon="8.913166040043105"><ele>79.0</ele><time>2026-04-07T16:46:06Z</time></trkpt><trkpt lat="39.482105959160975" lon="8.913169778495623"><ele>79.0</ele><time>2026-04-07T16:46:08Z</time></trkpt><trkpt lat="39.48198472141271" lon="8.913170743280748"><ele>79.0</ele><time>2026-04-07T16:46:10Z</time></trkpt><trkpt lat="39.48191393516613" lon="8.913141003548565"><ele>78.66666666666666</ele><time>2026-04-07T16:46:11Z</time></trkpt><trkpt lat="39.4817915810771" lon="8.913167986364934"><ele>78.33333333333333</ele><time>2026-04-07T16:46:13Z</time></trkpt><trkpt lat="39.481723471017034" lon="8.91317296841536"><ele>78.0</ele><time>2026-04-07T16:46:14Z</time></trkpt><trkpt lat="39.481655836413296" lon="8.91317438931972"><ele>77.66666666666667</ele><time>2026-04-07T16:46:15Z</time></trkpt><trkpt lat="39.48158439215311" lon="8.913178485518653"><ele>77.33333333333334</ele><time>2026-04-07T16:46:16Z</time></trkpt><trkpt lat="39.48151626085482" lon="8.91318658142125"><ele>77.0</ele><time>2026-04-07T16:46:17Z</time></trkpt><trkpt lat="39.481443995287826" lon="8.91318699244646"><ele>77.0</ele><time>2026-04-07T16:46:18Z</time></trkpt><trkpt lat="39.48137405744794" lon="8.913192083978618"><ele>77.0</ele><time>2026-04-07T16:46:19Z</time></trkpt><trkpt lat="39.481301340642055" lon="8.913201581574844"><ele>77.0</ele><time>2026-04-07T16:46:20Z</time></trkpt><trkpt lat="39.481228591513535" lon="8.913208908760476"><ele>77.0</ele><time>2026-04-07T16:46:21Z</time></trkpt><trkpt lat="39.48115756174495" lon="8.913222398342299"><ele>77.0</ele><time>2026-04-07T16:46:22Z</time></trkpt><trkpt lat="39.481090915000514" lon="8.913238058446524"><ele>77.0</ele><time>2026-04-07T16:46:23Z</time></trkpt><trkpt lat="39.48102296809614" lon="8.913259549362973"><ele>77.0</ele><time>2026-04-07T16:46:24Z</time></trkpt><trkpt lat="39.48095847180597" lon="8.91328613567381"><ele>77.2</ele><time>2026-04-07T16:46:25Z</time></trkpt><trkpt lat="39.48089845630816" lon="8.913316591304758"><ele>77.4</ele><time>2026-04-07T16:46:26Z</time></trkpt><trkpt lat="39.48083520576179" lon="8.91334289546546"><ele>77.6</ele><time>2026-04-07T16:46:27Z</time></trkpt><trkpt lat="39.480725805898466" lon="8.913403615002569"><ele>77.8</ele><time>2026-04-07T16:46:29Z</time></trkpt><trkpt lat="39.48062771059254" lon="8.91347490738645"><ele>78.0</ele><time>2026-04-07T16:46:31Z</time></trkpt><trkpt lat="39.480539716800486" lon="8.913550717022392"><ele>78.0</ele><time>2026-04-07T16:46:33Z</time></trkpt><trkpt lat="39.48047374191426" lon="8.913631345331291"><ele>78.0</ele><time>2026-04-07T16:46:35Z</time></trkpt><trkpt lat="39.48040946837934" lon="8.913726809187006"><ele>78.0</ele><time>2026-04-07T16:46:37Z</time></trkpt><trkpt lat="39.4803555723256" lon="8.913822789827877"><ele>78.0</ele><time>2026-04-07T16:46:39Z</time></trkpt><trkpt lat="39.480308805859885" lon="8.91391646895617"><ele>78.0</ele><time>2026-04-07T16:46:41Z</time></trkpt><trkpt lat="39.48026712550746" lon="8.914009006327738"><ele>78.0</ele><time>2026-04-07T16:46:43Z</time></trkpt><trkpt lat="39.480231211687475" lon="8.914097353670533"><ele>77.85714285714286</ele><time>2026-04-07T16:46:45Z</time></trkpt><trkpt lat="39.480203882275454" lon="8.914185545387598"><ele>77.71428571428571</ele><time>2026-04-07T16:46:47Z</time></trkpt><trkpt lat="39.480183590990826" lon="8.9142711243768"><ele>77.57142857142857</ele><time>2026-04-07T16:46:49Z</time></trkpt><trkpt lat="39.48015606878695" lon="8.914346513672129"><ele>77.42857142857143</ele><time>2026-04-07T16:46:51Z</time></trkpt><trkpt lat="39.48012753184167" lon="8.914428538314967"><ele>77.28571428571428</ele><time>2026-04-07T16:46:53Z</time></trkpt><trkpt lat="39.480108286688626" lon="8.914513453774322"><ele>77.14285714285714</ele><time>2026-04-07T16:46:55Z</time></trkpt><trkpt lat="39.480082144083404" lon="8.914599309989445"><ele>77.0</ele><time>2026-04-07T16:46:57Z</time></trkpt><trkpt lat="39.480060377840374" lon="8.91469045564711"><ele>77.6</ele><time>2026-04-07T16:47:00Z</time></trkpt><trkpt lat="39.480026412661374" lon="8.914828475449248"><ele>78.2</ele><time>2026-04-07T16:47:02Z</time></trkpt><trkpt lat="39.480000771598306" lon="8.914945110300511"><ele>78.8</ele><time>2026-04-07T16:47:05Z</time></trkpt><trkpt lat="39.47997835831637" lon="8.915048109739056"><ele>79.4</ele><time>2026-04-07T16:47:08Z</time></trkpt><trkpt lat="39.48002213455268" lon="8.914955417412633"><ele>80.0</ele><time>2026-04-07T16:47:14Z</time></trkpt><trkpt lat="39.48004308247922" lon="8.914854061027178"><ele>80.0</ele><time>2026-04-07T16:47:16Z</time></trkpt><trkpt lat="39.48007366584186" lon="8.914742988100178"><ele>80.0</ele><time>2026-04-07T16:47:18Z</time></trkpt><trkpt lat="39.4800967657608" lon="8.914636743580477"><ele>80.0</ele><time>2026-04-07T16:47:20Z</time></trkpt><trkpt lat="39.480123363038224" lon="8.914517943229782"><ele>80.0</ele><time>2026-04-07T16:47:22Z</time></trkpt><trkpt lat="39.480156117836664" lon="8.914394288511906"><ele>80.0</ele><time>2026-04-07T16:47:24Z</time></trkpt><trkpt lat="39.48018373187677" lon="8.914259687370926"><ele>80.0</ele><time>2026-04-07T16:47:26Z</time></trkpt><trkpt lat="39.480209493670465" lon="8.91418033919831"><ele>80.0</ele><time>2026-04-07T16:47:28Z</time></trkpt><trkpt lat="39.480136062292594" lon="8.914189053611393"><ele>80.0</ele><time>2026-04-07T16:47:31Z</time></trkpt><trkpt lat="39.48008515749799" lon="8.914301825913677"><ele>80.0</ele><time>2026-04-07T16:47:34Z</time></trkpt><trkpt lat="39.48000523161373" lon="8.91435140764198"><ele>80.0</ele><time>2026-04-07T16:47:36Z</time></trkpt><trkpt lat="39.47993116993551" lon="8.914381598340478"><ele>80.0</ele><time>2026-04-07T16:47:39Z</time></trkpt><trkpt lat="39.479872224602865" lon="8.914420942377877"><ele>80.0</ele><time>2026-04-07T16:47:47Z</time></trkpt><trkpt lat="39.47986862586611" lon="8.914504400528841"><ele>80.0</ele><time>2026-04-07T16:48:03Z</time></trkpt><trkpt lat="39.47982287435467" lon="8.914585978831523"><ele>80.0</ele><time>2026-04-07T16:48:08Z</time></trkpt><trkpt lat="39.479782418388645" lon="8.914668395539703"><ele>80.0</ele><time>2026-04-07T16:48:12Z</time></trkpt><trkpt lat="39.4797478849242" lon="8.914751487966585"><ele>80.0</ele><time>2026-04-07T16:48:17Z</time></trkpt><trkpt lat="39.479716551131446" lon="8.914833875127611"><ele>80.0</ele><time>2026-04-07T16:48:22Z</time></trkpt><trkpt lat="39.47968226282636" lon="8.914912757038941"><ele>80.0</ele><time>2026-04-07T16:48:27Z</time></trkpt><trkpt lat="39.47963881515037" lon="8.914991196433496"><ele>80.0</ele><time>2026-04-07T16:48:32Z</time></trkpt><trkpt lat="39.479590104175166" lon="8.914938307713609"><ele>80.0</ele><time>2026-04-07T16:48:36Z</time></trkpt><trkpt lat="39.479655588461895" lon="8.914963482585527"><ele>80.0</ele><time>2026-04-07T16:48:51Z</time></trkpt><trkpt lat="39.47968629900111" lon="8.914887883269715"><ele>80.0</ele><time>2026-04-07T16:48:59Z</time></trkpt><trkpt lat="39.47971719526497" lon="8.914805911371943"><ele>80.0</ele><time>2026-04-07T16:49:04Z</time></trkpt><trkpt lat="39.4797519928712" lon="8.914732355342815"><ele>80.0</ele><time>2026-04-07T16:49:08Z</time></trkpt><trkpt lat="39.47978092632224" lon="8.914658834020983"><ele>80.0</ele><time>2026-04-07T16:49:13Z</time></trkpt><trkpt lat="39.4798161134575" lon="8.914577012752359"><ele>80.0</ele><time>2026-04-07T16:49:18Z</time></trkpt><trkpt lat="39.479850952862805" lon="8.914498977496157"><ele>80.0</ele><time>2026-04-07T16:49:23Z</time></trkpt><trkpt lat="39.47988691407349" lon="8.914416620125753"><ele>80.0</ele><time>2026-04-07T16:49:42Z</time></trkpt><trkpt lat="39.47994086343998" lon="8.914369309819742"><ele>80.0</ele><time>2026-04-07T16:49:57Z</time></trkpt><trkpt lat="39.48002291819023" lon="8.914360442528785"><ele>80.0</ele><time>2026-04-07T16:50:00Z</time></trkpt><trkpt lat="39.480091233573276" lon="8.914321774852235"><ele>80.0</ele><time>2026-04-07T16:50:02Z</time></trkpt><trkpt lat="39.48012736892518" lon="8.914242048440848"><ele>80.0</ele><time>2026-04-07T16:50:04Z</time></trkpt><trkpt lat="39.480181304561576" lon="8.91417523147888"><ele>80.0</ele><time>2026-04-07T16:50:07Z</time></trkpt><trkpt lat="39.48020432273246" lon="8.914266485985449"><ele>80.0</ele><time>2026-04-07T16:50:11Z</time></trkpt><trkpt lat="39.480157634938465" lon="8.914358663268724"><ele>80.0</ele><time>2026-04-07T16:50:14Z</time></trkpt><trkpt lat="39.48012711959481" lon="8.91446961010563"><ele>80.0</ele><time>2026-04-07T16:50:17Z</time></trkpt><trkpt lat="39.48010271558053" lon="8.914552809940838"><ele>80.0</ele><time>2026-04-07T16:50:20Z</time></trkpt><trkpt lat="39.48007914925321" lon="8.914645626472845"><ele>80.0</ele><time>2026-04-07T16:50:23Z</time></trkpt><trkpt lat="39.4800521007206" lon="8.914747092792506"><ele>80.0</ele><time>2026-04-07T16:50:26Z</time></trkpt><trkpt lat="39.48002938339489" lon="8.914861592086222"><ele>80.0</ele><time>2026-04-07T16:50:29Z</time></trkpt><trkpt lat="39.480010626321246" lon="8.914940833092626"><ele>80.0</ele><time>2026-04-07T16:50:30Z</time></trkpt><trkpt lat="39.47999393848651" lon="8.915043390649888"><ele>80.0</ele><time>2026-04-07T16:50:33Z</time></trkpt><trkpt lat="39.479958527619054" lon="8.915161130581792"><ele>80.0</ele><time>2026-04-07T16:50:36Z</time></trkpt><trkpt lat="39.47994135916334" lon="8.915247103265688"><ele>80.0</ele><time>2026-04-07T16:50:38Z</time></trkpt><trkpt lat="39.47992100294033" lon="8.91534116280946"><ele>79.83333333333334</ele><time>2026-04-07T16:50:40Z</time></trkpt><trkpt lat="39.479903056446425" lon="8.915435855384498"><ele>79.66666666666667</ele><time>2026-04-07T16:50:42Z</time></trkpt><trkpt lat="39.47988276045637" lon="8.915531808040182"><ele>79.5</ele><time>2026-04-07T16:50:44Z</time></trkpt><trkpt lat="39.479861031890465" lon="8.915629894448948"><ele>79.33333333333333</ele><time>2026-04-07T16:50:46Z</time></trkpt><trkpt lat="39.47983815337564" lon="8.915733198632685"><ele>79.16666666666666</ele><time>2026-04-07T16:50:48Z</time></trkpt><trkpt lat="39.479817357530415" lon="8.915842938723687"><ele>79.0</ele><time>2026-04-07T16:50:50Z</time></trkpt><trkpt lat="39.47979540134242" lon="8.91596042710044"><ele>78.60000000000001</ele><time>2026-04-07T16:50:52Z</time></trkpt><trkpt lat="39.4797708253652" lon="8.916083400017666"><ele>78.2</ele><time>2026-04-07T16:50:54Z</time></trkpt><trkpt lat="39.479746793048015" lon="8.916209222672457"><ele>77.80000000000001</ele><time>2026-04-07T16:50:56Z</time></trkpt><trkpt lat="39.479726648677385" lon="8.916335996222179"><ele>77.4</ele><time>2026-04-07T16:50:58Z</time></trkpt><trkpt lat="39.4796974875388" lon="8.9164688652309"><ele>77.0</ele><time>2026-04-07T16:51:00Z</time></trkpt><trkpt lat="39.479670656154205" lon="8.916612717073562"><ele>77.0</ele><time>2026-04-07T16:51:02Z</time></trkpt><trkpt lat="39.47964410925166" lon="8.916760298631676"><ele>77.0</ele><time>2026-04-07T16:51:04Z</time></trkpt><trkpt lat="39.47961406970926" lon="8.916911461991099"><ele>77.0</ele><time>2026-04-07T16:51:06Z</time></trkpt><trkpt lat="39.47959763592923" lon="8.916992807500353"><ele>77.0</ele><time>2026-04-07T16:51:07Z</time></trkpt><trkpt lat="39.47958410077651" lon="8.91707336500594"><ele>77.0</ele><time>2026-04-07T16:51:08Z</time></trkpt><trkpt lat="39.479568230087544" lon="8.917154677188629"><ele>77.0</ele><time>2026-04-07T16:51:09Z</time></trkpt><trkpt lat="39.47955468838526" lon="8.917236319734748"><ele>77.0</ele><time>2026-04-07T16:51:10Z</time></trkpt><trkpt lat="39.4795403307482" lon="8.917320055449474"><ele>77.0</ele><time>2026-04-07T16:51:11Z</time></trkpt><trkpt lat="39.47952468694922" lon="8.917407152961664"><ele>77.0</ele><time>2026-04-07T16:51:12Z</time></trkpt><trkpt lat="39.47949557338335" lon="8.917567775587232"><ele>77.0</ele><time>2026-04-07T16:51:14Z</time></trkpt><trkpt lat="39.47947914379465" lon="8.917649977284423"><ele>77.0</ele><time>2026-04-07T16:51:15Z</time></trkpt><trkpt lat="39.47946309355957" lon="8.917734148236786"><ele>77.0</ele><time>2026-04-07T16:51:16Z</time></trkpt><trkpt lat="39.47944850270468" lon="8.917819014276454"><ele>76.71428571428571</ele><time>2026-04-07T16:51:17Z</time></trkpt><trkpt lat="39.479433167969965" lon="8.917903069412969"><ele>76.42857142857143</ele><time>2026-04-07T16:51:18Z</time></trkpt><trkpt lat="39.479415852538274" lon="8.917987980688684"><ele>76.14285714285714</ele><time>2026-04-07T16:51:19Z</time></trkpt><trkpt lat="39.47939821075739" lon="8.918075421107995"><ele>75.85714285714286</ele><time>2026-04-07T16:51:20Z</time></trkpt><trkpt lat="39.47938176164351" lon="8.918163176634483"><ele>75.57142857142857</ele><time>2026-04-07T16:51:21Z</time></trkpt><trkpt lat="39.47936438953153" lon="8.918248460427721"><ele>75.28571428571428</ele><time>2026-04-07T16:51:22Z</time></trkpt><trkpt lat="39.47934921454332" lon="8.918335124069273"><ele>75.0</ele><time>2026-04-07T16:51:23Z</time></trkpt><trkpt lat="39.479333197011144" lon="8.91842328179662"><ele>74.85714285714285</ele><time>2026-04-07T16:51:24Z</time></trkpt><trkpt lat="39.47931589889625" lon="8.918510347353969"><ele>74.71428571428571</ele><time>2026-04-07T16:51:25Z</time></trkpt><trkpt lat="39.47930124865705" lon="8.9185992499965"><ele>74.57142857142857</ele><time>2026-04-07T16:51:26Z</time></trkpt><trkpt lat="39.47928495687872" lon="8.918686853779345"><ele>74.42857142857142</ele><time>2026-04-07T16:51:27Z</time></trkpt><trkpt lat="39.4792664240943" lon="8.918774741455188"><ele>74.28571428571428</ele><time>2026-04-07T16:51:28Z</time></trkpt><trkpt lat="39.47924997025003" lon="8.918866467883749"><ele>74.14285714285714</ele><time>2026-04-07T16:51:29Z</time></trkpt><trkpt lat="39.47923442164236" lon="8.91895368024906"><ele>74.0</ele><time>2026-04-07T16:51:30Z</time></trkpt><trkpt lat="39.47921947151982" lon="8.919040410862914"><ele>74.0</ele><time>2026-04-07T16:51:31Z</time></trkpt><trkpt lat="39.47920141677578" lon="8.91912610576742"><ele>74.0</ele><time>2026-04-07T16:51:32Z</time></trkpt><trkpt lat="39.47918577893836" lon="8.919209419080909"><ele>74.0</ele><time>2026-04-07T16:51:33Z</time></trkpt><trkpt lat="39.47917196944124" lon="8.919294080980833"><ele>74.0</ele><time>2026-04-07T16:51:34Z</time></trkpt><trkpt lat="39.479155391333165" lon="8.919378626192003"><ele>74.0</ele><time>2026-04-07T16:51:35Z</time></trkpt><trkpt lat="39.47912156372294" lon="8.919547302361472"><ele>74.0</ele><time>2026-04-07T16:51:37Z</time></trkpt><trkpt lat="39.47910653723393" lon="8.919628512875844"><ele>73.85714285714286</ele><time>2026-04-07T16:51:38Z</time></trkpt><trkpt lat="39.47909107685372" lon="8.91971059324254"><ele>73.71428571428571</ele><time>2026-04-07T16:51:39Z</time></trkpt><trkpt lat="39.479073239339726" lon="8.919793160512691"><ele>73.57142857142857</ele><time>2026-04-07T16:51:40Z</time></trkpt><trkpt lat="39.4790574642428" lon="8.919873366385122"><ele>73.42857142857143</ele><time>2026-04-07T16:51:41Z</time></trkpt><trkpt lat="39.47903899858622" lon="8.919953648679115"><ele>73.28571428571429</ele><time>2026-04-07T16:51:42Z</time></trkpt><trkpt lat="39.479011992492936" lon="8.920029540188137"><ele>73.14285714285714</ele><time>2026-04-07T16:51:43Z</time></trkpt><trkpt lat="39.4789826663179" lon="8.920104294881193"><ele>73.0</ele><time>2026-04-07T16:51:44Z</time></trkpt><trkpt lat="39.47890697710723" lon="8.920232338023265"><ele>73.0</ele><time>2026-04-07T16:51:46Z</time></trkpt><trkpt lat="39.47886081596545" lon="8.92029093615045"><ele>73.0</ele><time>2026-04-07T16:51:47Z</time></trkpt><trkpt lat="39.47881371240924" lon="8.920346423946155"><ele>73.0</ele><time>2026-04-07T16:51:48Z</time></trkpt><trkpt lat="39.47871322683523" lon="8.920430355264621"><ele>73.0</ele><time>2026-04-07T16:51:50Z</time></trkpt><trkpt lat="39.47860848897154" lon="8.920495965098361"><ele>73.0</ele><time>2026-04-07T16:51:52Z</time></trkpt><trkpt lat="39.47849390235692" lon="8.920528627484229"><ele>73.0</ele><time>2026-04-07T16:51:54Z</time></trkpt><trkpt lat="39.478380617435924" lon="8.92054638936261"><ele>73.0</ele><time>2026-04-07T16:51:56Z</time></trkpt><trkpt lat="39.47826563433143" lon="8.920555350172945"><ele>73.0</ele><time>2026-04-07T16:51:58Z</time></trkpt><trkpt lat="39.47815310627971" lon="8.920558631340596"><ele>73.0</ele><time>2026-04-07T16:52:00Z</time></trkpt><trkpt lat="39.47804166433896" lon="8.920566796582941"><ele>72.75</ele><time>2026-04-07T16:52:02Z</time></trkpt><trkpt lat="39.47792747999952" lon="8.920568582270702"><ele>72.5</ele><time>2026-04-07T16:52:04Z</time></trkpt><trkpt lat="39.477812104599785" lon="8.920573825074165"><ele>72.25</ele><time>2026-04-07T16:52:06Z</time></trkpt><trkpt lat="39.47769640684265" lon="8.92058010108489"><ele>72.0</ele><time>2026-04-07T16:52:08Z</time></trkpt><trkpt lat="39.47758254622153" lon="8.920583498921946"><ele>72.0</ele><time>2026-04-07T16:52:10Z</time></trkpt><trkpt lat="39.47746882331396" lon="8.92058948256101"><ele>72.0</ele><time>2026-04-07T16:52:12Z</time></trkpt><trkpt lat="39.47735155198692" lon="8.920595331264332"><ele>72.0</ele><time>2026-04-07T16:52:14Z</time></trkpt><trkpt lat="39.47724071852566" lon="8.920609809000005"><ele>72.0</ele><time>2026-04-07T16:52:16Z</time></trkpt><trkpt lat="39.47712843548124" lon="8.920628267874614"><ele>71.8</ele><time>2026-04-07T16:52:18Z</time></trkpt><trkpt lat="39.47701859903276" lon="8.920662617208462"><ele>71.6</ele><time>2026-04-07T16:52:20Z</time></trkpt><trkpt lat="39.47691110286521" lon="8.920706282285371"><ele>71.39999999999999</ele><time>2026-04-07T16:52:22Z</time></trkpt><trkpt lat="39.47680693170577" lon="8.920758060559889"><ele>71.2</ele><time>2026-04-07T16:52:24Z</time></trkpt><trkpt lat="39.476704970371216" lon="8.920815152561332"><ele>71.0</ele><time>2026-04-07T16:52:26Z</time></trkpt><trkpt lat="39.47660622082605" lon="8.920871756387621"><ele>71.0</ele><time>2026-04-07T16:52:28Z</time></trkpt><trkpt lat="39.476517151912724" lon="8.92093430796976"><ele>71.0</ele><time>2026-04-07T16:52:30Z</time></trkpt><trkpt lat="39.47642057119876" lon="8.921000447485543"><ele>71.0</ele><time>2026-04-07T16:52:32Z</time></trkpt><trkpt lat="39.47632340296856" lon="8.92106142271643"><ele>71.0</ele><time>2026-04-07T16:52:34Z</time></trkpt><trkpt lat="39.47623101194991" lon="8.921121379341805"><ele>71.0</ele><time>2026-04-07T16:52:36Z</time></trkpt><trkpt lat="39.476131893444794" lon="8.921177936579555"><ele>71.0</ele><time>2026-04-07T16:52:38Z</time></trkpt><trkpt lat="39.476031846657854" lon="8.921236150425017"><ele>71.0</ele><time>2026-04-07T16:52:40Z</time></trkpt><trkpt lat="39.47593173698967" lon="8.921305585166683"><ele>71.0</ele><time>2026-04-07T16:52:42Z</time></trkpt><trkpt lat="39.47583890583349" lon="8.921384074464536"><ele>71.0</ele><time>2026-04-07T16:52:44Z</time></trkpt><trkpt lat="39.4757553661773" lon="8.921474994319821"><ele>71.0</ele><time>2026-04-07T16:52:46Z</time></trkpt><trkpt lat="39.47567988886673" lon="8.92157380444948"><ele>71.0</ele><time>2026-04-07T16:52:48Z</time></trkpt><trkpt lat="39.47561401915139" lon="8.921680056326906"><ele>71.0</ele><time>2026-04-07T16:52:50Z</time></trkpt><trkpt lat="39.47556204249777" lon="8.92179723711137"><ele>71.0</ele><time>2026-04-07T16:52:52Z</time></trkpt><trkpt lat="39.47551573481278" lon="8.921919189553371"><ele>71.0</ele><time>2026-04-07T16:52:54Z</time></trkpt><trkpt lat="39.47548303296988" lon="8.922049654925468"><ele>71.0</ele><time>2026-04-07T16:52:56Z</time></trkpt><trkpt lat="39.47545838250543" lon="8.922182823603586"><ele>71.0</ele><time>2026-04-07T16:52:58Z</time></trkpt><trkpt lat="39.4754470266836" lon="8.922319826088184"><ele>71.0</ele><time>2026-04-07T16:53:00Z</time></trkpt><trkpt lat="39.47544402866136" lon="8.922458868230292"><ele>71.0</ele><time>2026-04-07T16:53:02Z</time></trkpt><trkpt lat="39.475455685751974" lon="8.922597339171386"><ele>71.0</ele><time>2026-04-07T16:53:04Z</time></trkpt><trkpt lat="39.47547427185528" lon="8.9227354044662"><ele>71.0</ele><time>2026-04-07T16:53:06Z</time></trkpt><trkpt lat="39.475504772930115" lon="8.922871668585222"><ele>71.0</ele><time>2026-04-07T16:53:08Z</time></trkpt><trkpt lat="39.47554087828677" lon="8.923005929193012"><ele>71.0</ele><time>2026-04-07T16:53:10Z</time></trkpt><trkpt lat="39.47557757750688" lon="8.923140009514276"><ele>71.0</ele><time>2026-04-07T16:53:12Z</time></trkpt><trkpt lat="39.47561539562069" lon="8.923267247135065"><ele>71.0</ele><time>2026-04-07T16:53:14Z</time></trkpt><trkpt lat="39.47565489951154" lon="8.923401671691579"><ele>71.0</ele><time>2026-04-07T16:53:16Z</time></trkpt><trkpt lat="39.47569286916409" lon="8.923538959939298"><ele>71.0</ele><time>2026-04-07T16:53:18Z</time></trkpt><trkpt lat="39.475734010659465" lon="8.923672751610635"><ele>71.0</ele><time>2026-04-07T16:53:20Z</time></trkpt><trkpt lat="39.47577395753112" lon="8.92380797665422"><ele>71.0</ele><time>2026-04-07T16:53:22Z</time></trkpt><trkpt lat="39.47581055548052" lon="8.923945028009166"><ele>71.0</ele><time>2026-04-07T16:53:24Z</time></trkpt><trkpt lat="39.47585178023685" lon="8.924075581235144"><ele>71.0</ele><time>2026-04-07T16:53:26Z</time></trkpt><trkpt lat="39.475889588300646" lon="8.924215186739248"><ele>70.8</ele><time>2026-04-07T16:53:28Z</time></trkpt><trkpt lat="39.47592720020516" lon="8.924343364950808"><ele>70.6</ele><time>2026-04-07T16:53:30Z</time></trkpt><trkpt lat="39.475964373390724" lon="8.92447452134504"><ele>70.4</ele><time>2026-04-07T16:53:32Z</time></trkpt><trkpt lat="39.47600162443024" lon="8.924606151474846"><ele>70.2</ele><time>2026-04-07T16:53:34Z</time></trkpt><trkpt lat="39.476040976358824" lon="8.924737335367354"><ele>70.0</ele><time>2026-04-07T16:53:36Z</time></trkpt><trkpt lat="39.47607905955855" lon="8.92487235100054"><ele>70.0</ele><time>2026-04-07T16:53:38Z</time></trkpt><trkpt lat="39.4761192078819" lon="8.925008665771664"><ele>70.0</ele><time>2026-04-07T16:53:40Z</time></trkpt><trkpt lat="39.476157855400025" lon="8.925136929100125"><ele>70.0</ele><time>2026-04-07T16:53:42Z</time></trkpt><trkpt lat="39.47619185939457" lon="8.925267195363505"><ele>70.0</ele><time>2026-04-07T16:53:44Z</time></trkpt><trkpt lat="39.47625367109647" lon="8.925444930687494"><ele>70.4</ele><time>2026-04-07T16:53:47Z</time></trkpt><trkpt lat="39.47628808286443" lon="8.925571276870127"><ele>70.8</ele><time>2026-04-07T16:53:49Z</time></trkpt><trkpt lat="39.47632664490132" lon="8.925702333442306"><ele>71.2</ele><time>2026-04-07T16:53:51Z</time></trkpt><trkpt lat="39.47636327831495" lon="8.925838381461467"><ele>71.6</ele><time>2026-04-07T16:53:53Z</time></trkpt><trkpt lat="39.47640444376697" lon="8.925965448979813"><ele>72.0</ele><time>2026-04-07T16:53:55Z</time></trkpt><trkpt lat="39.476441291186106" lon="8.926099198245126"><ele>72.5</ele><time>2026-04-07T16:53:57Z</time></trkpt><trkpt lat="39.476482372731326" lon="8.92623055666341"><ele>73.0</ele><time>2026-04-07T16:53:59Z</time></trkpt><trkpt lat="39.47651348851925" lon="8.9263823623103"><ele>73.5</ele><time>2026-04-07T16:54:01Z</time></trkpt><trkpt lat="39.476544710661834" lon="8.926529769257154"><ele>74.0</ele><time>2026-04-07T16:54:03Z</time></trkpt><trkpt lat="39.47654251006571" lon="8.926687154553239"><ele>73.60000000000001</ele><time>2026-04-07T16:54:05Z</time></trkpt><trkpt lat="39.47653432816061" lon="8.926835627296686"><ele>73.2</ele><time>2026-04-07T16:54:07Z</time></trkpt><trkpt lat="39.476505466454256" lon="8.926983051547024"><ele>72.80000000000001</ele><time>2026-04-07T16:54:09Z</time></trkpt><trkpt lat="39.4764613158802" lon="8.92711446282728"><ele>72.4</ele><time>2026-04-07T16:54:11Z</time></trkpt><trkpt lat="39.476399558601926" lon="8.92722688841573"><ele>72.0</ele><time>2026-04-07T16:54:13Z</time></trkpt><trkpt lat="39.476327635329866" lon="8.927332011541292"><ele>72.0</ele><time>2026-04-07T16:54:15Z</time></trkpt><trkpt lat="39.47627766218962" lon="8.927446016464682"><ele>72.0</ele><time>2026-04-07T16:54:17Z</time></trkpt><trkpt lat="39.476201176945565" lon="8.927555880047093"><ele>72.0</ele><time>2026-04-07T16:54:19Z</time></trkpt><trkpt lat="39.47612586203221" lon="8.927665721890861"><ele>72.0</ele><time>2026-04-07T16:54:21Z</time></trkpt><trkpt lat="39.476040859685256" lon="8.927756955519788"><ele>72.0</ele><time>2026-04-07T16:54:23Z</time></trkpt><trkpt lat="39.47600399739239" lon="8.927823850197345"><ele>71.66666666666667</ele><time>2026-04-07T16:54:24Z</time></trkpt><trkpt lat="39.47592420200023" lon="8.927941820670549"><ele>71.33333333333333</ele><time>2026-04-07T16:54:26Z</time></trkpt><trkpt lat="39.475845938176334" lon="8.928059978284864"><ele>71.0</ele><time>2026-04-07T16:54:28Z</time></trkpt><trkpt lat="39.47580327893344" lon="8.928120852617683"><ele>70.66666666666666</ele><time>2026-04-07T16:54:29Z</time></trkpt><trkpt lat="39.47575331596423" lon="8.928176739767895"><ele>70.33333333333333</ele><time>2026-04-07T16:54:30Z</time></trkpt><trkpt lat="39.4757117538902" lon="8.928240957555671"><ele>70.0</ele><time>2026-04-07T16:54:31Z</time></trkpt><trkpt lat="39.47562260571532" lon="8.928363631740288"><ele>69.8</ele><time>2026-04-07T16:54:33Z</time></trkpt><trkpt lat="39.475581402113356" lon="8.92842603985283"><ele>69.6</ele><time>2026-04-07T16:54:34Z</time></trkpt><trkpt lat="39.47549220992691" lon="8.92854256888963"><ele>69.4</ele><time>2026-04-07T16:54:36Z</time></trkpt><trkpt lat="39.47545318694057" lon="8.928610133107448"><ele>69.2</ele><time>2026-04-07T16:54:37Z</time></trkpt><trkpt lat="39.475363002324166" lon="8.928734342545084"><ele>69.0</ele><time>2026-04-07T16:54:39Z</time></trkpt><trkpt lat="39.475318220138554" lon="8.92880244686906"><ele>68.71428571428572</ele><time>2026-04-07T16:54:40Z</time></trkpt><trkpt lat="39.475274209061965" lon="8.928869176316882"><ele>68.42857142857143</ele><time>2026-04-07T16:54:41Z</time></trkpt><trkpt lat="39.47522721166721" lon="8.928936425557493"><ele>68.14285714285714</ele><time>2026-04-07T16:54:42Z</time></trkpt><trkpt lat="39.47517769067994" lon="8.929005631643653"><ele>67.85714285714286</ele><time>2026-04-07T16:54:43Z</time></trkpt><trkpt lat="39.47513026111329" lon="8.929076278185523"><ele>67.57142857142857</ele><time>2026-04-07T16:54:44Z</time></trkpt><trkpt lat="39.47508837795715" lon="8.929139335485818"><ele>67.28571428571429</ele><time>2026-04-07T16:54:45Z</time></trkpt><trkpt lat="39.475042833606075" lon="8.929203599830712"><ele>67.0</ele><time>2026-04-07T16:54:46Z</time></trkpt><trkpt lat="39.47499531635683" lon="8.92927085889164"><ele>67.66666666666666</ele><time>2026-04-07T16:54:47Z</time></trkpt><trkpt lat="39.47492212579047" lon="8.929359242022946"><ele>68.33333333333333</ele><time>2026-04-07T16:54:49Z</time></trkpt><trkpt lat="39.47486240707421" lon="8.929429905125314"><ele>69.0</ele><time>2026-04-07T16:54:51Z</time></trkpt><trkpt lat="39.47480380927764" lon="8.92948732731581"><ele>69.66666666666667</ele><time>2026-04-07T16:54:53Z</time></trkpt><trkpt lat="39.47474472622574" lon="8.929563628010687"><ele>70.33333333333334</ele><time>2026-04-07T16:54:56Z</time></trkpt><trkpt lat="39.474698564715375" lon="8.929628209284"><ele>71.0</ele><time>2026-04-07T16:54:59Z</time></trkpt><trkpt lat="39.474646732380926" lon="8.929699095688052"><ele>71.71428571428571</ele><time>2026-04-07T16:55:02Z</time></trkpt><trkpt lat="39.47458705107131" lon="8.929752524220016"><ele>72.42857142857142</ele><time>2026-04-07T16:55:05Z</time></trkpt><trkpt lat="39.474538393870795" lon="8.929817886344741"><ele>73.14285714285714</ele><time>2026-04-07T16:55:08Z</time></trkpt><trkpt lat="39.47449633064206" lon="8.92988043848201"><ele>73.85714285714286</ele><time>2026-04-07T16:55:11Z</time></trkpt><trkpt lat="39.474446067671145" lon="8.929940635437676"><ele>74.57142857142858</ele><time>2026-04-07T16:55:14Z</time></trkpt><trkpt lat="39.47439509812092" lon="8.930000244036423"><ele>75.28571428571428</ele><time>2026-04-07T16:55:17Z</time></trkpt><trkpt lat="39.47434112242881" lon="8.930064638262472"><ele>76.0</ele><time>2026-04-07T16:55:20Z</time></trkpt><trkpt lat="39.47428897116916" lon="8.930134783530045"><ele>76.16666666666666</ele><time>2026-04-07T16:55:23Z</time></trkpt><trkpt lat="39.47423851849659" lon="8.930208463866867"><ele>76.33333333333333</ele><time>2026-04-07T16:55:26Z</time></trkpt><trkpt lat="39.47418409631555" lon="8.93027952943792"><ele>76.5</ele><time>2026-04-07T16:55:29Z</time></trkpt><trkpt lat="39.474135423693355" lon="8.930342422070849"><ele>76.66666666666667</ele><time>2026-04-07T16:55:32Z</time></trkpt><trkpt lat="39.47408279456933" lon="8.930412510082004"><ele>76.83333333333334</ele><time>2026-04-07T16:55:35Z</time></trkpt><trkpt lat="39.47402446649638" lon="8.930494752347183"><ele>77.0</ele><time>2026-04-07T16:55:38Z</time></trkpt><trkpt lat="39.47396105230464" lon="8.930581219838817"><ele>77.0</ele><time>2026-04-07T16:55:41Z</time></trkpt><trkpt lat="39.47389382738628" lon="8.93067788202727"><ele>77.0</ele><time>2026-04-07T16:55:44Z</time></trkpt><trkpt lat="39.47384947065117" lon="8.930741131583984"><ele>77.0</ele><time>2026-04-07T16:55:46Z</time></trkpt><trkpt lat="39.4738032727546" lon="8.930797797190753"><ele>77.0</ele><time>2026-04-07T16:55:48Z</time></trkpt><trkpt lat="39.47375860075468" lon="8.930861930530044"><ele>77.0</ele><time>2026-04-07T16:55:50Z</time></trkpt><trkpt lat="39.473712845544675" lon="8.93092690577356"><ele>77.0</ele><time>2026-04-07T16:55:52Z</time></trkpt><trkpt lat="39.473664459655566" lon="8.930991778491405"><ele>77.0</ele><time>2026-04-07T16:55:54Z</time></trkpt><trkpt lat="39.47361742136925" lon="8.931058482283104"><ele>77.0</ele><time>2026-04-07T16:55:56Z</time></trkpt><trkpt lat="39.47356711419321" lon="8.93112833834741"><ele>77.0</ele><time>2026-04-07T16:55:58Z</time></trkpt><trkpt lat="39.473515090579" lon="8.931208176335996"><ele>77.0</ele><time>2026-04-07T16:56:00Z</time></trkpt><trkpt lat="39.473453321573835" lon="8.93130031933328"><ele>77.0</ele><time>2026-04-07T16:56:02Z</time></trkpt><trkpt lat="39.473394183749456" lon="8.931391036248911"><ele>77.0</ele><time>2026-04-07T16:56:04Z</time></trkpt><trkpt lat="39.47332540712519" lon="8.93148841005136"><ele>77.0</ele><time>2026-04-07T16:56:06Z</time></trkpt><trkpt lat="39.47325471739809" lon="8.931590914400397"><ele>77.0</ele><time>2026-04-07T16:56:08Z</time></trkpt><trkpt lat="39.47321100238752" lon="8.931668258944338"><ele>77.0</ele><time>2026-04-07T16:56:09Z</time></trkpt><trkpt lat="39.47315142300845" lon="8.931748367498521"><ele>77.0</ele><time>2026-04-07T16:56:11Z</time></trkpt><trkpt lat="39.47308286807726" lon="8.931854286693751"><ele>77.0</ele><time>2026-04-07T16:56:13Z</time></trkpt><trkpt lat="39.47300750435051" lon="8.931961996687424"><ele>77.0</ele><time>2026-04-07T16:56:15Z</time></trkpt><trkpt lat="39.47293331612085" lon="8.932070926746935"><ele>76.75</ele><time>2026-04-07T16:56:17Z</time></trkpt><trkpt lat="39.47286380458987" lon="8.932178094932857"><ele>76.5</ele><time>2026-04-07T16:56:19Z</time></trkpt><trkpt lat="39.47278897978869" lon="8.932286975344077"><ele>76.25</ele><time>2026-04-07T16:56:21Z</time></trkpt><trkpt lat="39.47271655070553" lon="8.932402187427948"><ele>76.0</ele><time>2026-04-07T16:56:23Z</time></trkpt><trkpt lat="39.47263865768017" lon="8.93251686775224"><ele>75.75</ele><time>2026-04-07T16:56:25Z</time></trkpt><trkpt lat="39.47255902547872" lon="8.93262752679249"><ele>75.5</ele><time>2026-04-07T16:56:27Z</time></trkpt><trkpt lat="39.472484869120144" lon="8.93273456745322"><ele>75.25</ele><time>2026-04-07T16:56:29Z</time></trkpt><trkpt lat="39.47240945523007" lon="8.932849078284416"><ele>75.0</ele><time>2026-04-07T16:56:31Z</time></trkpt><trkpt lat="39.47233524026781" lon="8.932961158634699"><ele>75.0</ele><time>2026-04-07T16:56:33Z</time></trkpt><trkpt lat="39.47225806294642" lon="8.933072100914558"><ele>75.0</ele><time>2026-04-07T16:56:35Z</time></trkpt><trkpt lat="39.472182600824766" lon="8.933184444367948"><ele>75.0</ele><time>2026-04-07T16:56:37Z</time></trkpt><trkpt lat="39.47210954012398" lon="8.933295522920083"><ele>75.0</ele><time>2026-04-07T16:56:39Z</time></trkpt><trkpt lat="39.47203382021302" lon="8.93340871852879"><ele>74.5</ele><time>2026-04-07T16:56:41Z</time></trkpt><trkpt lat="39.47195963566546" lon="8.933520734387324"><ele>74.0</ele><time>2026-04-07T16:56:43Z</time></trkpt><trkpt lat="39.47188261256028" lon="8.933637187625518"><ele>73.5</ele><time>2026-04-07T16:56:45Z</time></trkpt><trkpt lat="39.471807762638456" lon="8.933758863489592"><ele>73.0</ele><time>2026-04-07T16:56:47Z</time></trkpt><trkpt lat="39.47172932483881" lon="8.93388252821347"><ele>73.0</ele><time>2026-04-07T16:56:49Z</time></trkpt><trkpt lat="39.47165115104469" lon="8.93400738899007"><ele>73.0</ele><time>2026-04-07T16:56:51Z</time></trkpt><trkpt lat="39.47160897441757" lon="8.934072917463178"><ele>73.0</ele><time>2026-04-07T16:56:52Z</time></trkpt><trkpt lat="39.471529397253896" lon="8.934203333645643"><ele>73.0</ele><time>2026-04-07T16:56:54Z</time></trkpt><trkpt lat="39.471487036941205" lon="8.934268502498577"><ele>73.0</ele><time>2026-04-07T16:56:55Z</time></trkpt><trkpt lat="39.47144373055606" lon="8.934332587154099"><ele>72.85714285714286</ele><time>2026-04-07T16:56:56Z</time></trkpt><trkpt lat="39.471402493327325" lon="8.934398872142841"><ele>72.71428571428572</ele><time>2026-04-07T16:56:57Z</time></trkpt><trkpt lat="39.471362723241576" lon="8.934465599350213"><ele>72.57142857142858</ele><time>2026-04-07T16:56:58Z</time></trkpt><trkpt lat="39.471319742730536" lon="8.934530042079102"><ele>72.42857142857143</ele><time>2026-04-07T16:56:59Z</time></trkpt><trkpt lat="39.47127876641525" lon="8.934593550243353"><ele>72.28571428571429</ele><time>2026-04-07T16:57:00Z</time></trkpt><trkpt lat="39.47123776904146" lon="8.93466154750687"><ele>72.14285714285715</ele><time>2026-04-07T16:57:01Z</time></trkpt><trkpt lat="39.47119541211527" lon="8.93472621046778"><ele>72.0</ele><time>2026-04-07T16:57:02Z</time></trkpt><trkpt lat="39.47115349125213" lon="8.934791973360776"><ele>71.85714285714286</ele><time>2026-04-07T16:57:03Z</time></trkpt><trkpt lat="39.4711119015092" lon="8.934855203149215"><ele>71.71428571428572</ele><time>2026-04-07T16:57:04Z</time></trkpt><trkpt lat="39.47106816258909" lon="8.934921664533142"><ele>71.57142857142857</ele><time>2026-04-07T16:57:05Z</time></trkpt><trkpt lat="39.47102806888583" lon="8.934984981027833"><ele>71.42857142857143</ele><time>2026-04-07T16:57:06Z</time></trkpt><trkpt lat="39.470982904263074" lon="8.935054447349804"><ele>71.28571428571428</ele><time>2026-04-07T16:57:07Z</time></trkpt><trkpt lat="39.47094024690985" lon="8.935116773808332"><ele>71.14285714285714</ele><time>2026-04-07T16:57:08Z</time></trkpt><trkpt lat="39.47089583577442" lon="8.935178922916482"><ele>71.0</ele><time>2026-04-07T16:57:09Z</time></trkpt><trkpt lat="39.47085010954914" lon="8.935238366551635"><ele>71.0</ele><time>2026-04-07T16:57:10Z</time></trkpt><trkpt lat="39.47076939060583" lon="8.935350351443649"><ele>71.0</ele><time>2026-04-07T16:57:12Z</time></trkpt><trkpt lat="39.47069089321028" lon="8.935457074807944"><ele>71.0</ele><time>2026-04-07T16:57:14Z</time></trkpt><trkpt lat="39.47061862087143" lon="8.935553923356537"><ele>71.0</ele><time>2026-04-07T16:57:16Z</time></trkpt><trkpt lat="39.4705496105956" lon="8.935648916918307"><ele>71.0</ele><time>2026-04-07T16:57:18Z</time></trkpt><trkpt lat="39.470486075679894" lon="8.935738349357898"><ele>71.0</ele><time>2026-04-07T16:57:20Z</time></trkpt><trkpt lat="39.47042162116271" lon="8.935823712116061"><ele>71.0</ele><time>2026-04-07T16:57:22Z</time></trkpt><trkpt lat="39.47036518354636" lon="8.93590496471693"><ele>71.0</ele><time>2026-04-07T16:57:24Z</time></trkpt><trkpt lat="39.470310000839596" lon="8.93597940391054"><ele>71.0</ele><time>2026-04-07T16:57:26Z</time></trkpt><trkpt lat="39.470257841397185" lon="8.93605325422911"><ele>71.0</ele><time>2026-04-07T16:57:28Z</time></trkpt><trkpt lat="39.47020670402391" lon="8.936125742610624"><ele>71.0</ele><time>2026-04-07T16:57:30Z</time></trkpt><trkpt lat="39.47015235225763" lon="8.936197773783848"><ele>71.6</ele><time>2026-04-07T16:57:32Z</time></trkpt><trkpt lat="39.4700954535641" lon="8.936273452768063"><ele>72.19999999999999</ele><time>2026-04-07T16:57:34Z</time></trkpt><trkpt lat="39.470025650247045" lon="8.936405223826831"><ele>72.80000000000001</ele><time>2026-04-07T16:57:37Z</time></trkpt><trkpt lat="39.46997335390132" lon="8.936483931505135"><ele>73.4</ele><time>2026-04-07T16:57:39Z</time></trkpt><trkpt lat="39.46991651238914" lon="8.936560574403277"><ele>74.0</ele><time>2026-04-07T16:57:41Z</time></trkpt><trkpt lat="39.469858899487235" lon="8.936639394557185"><ele>74.0</ele><time>2026-04-07T16:57:43Z</time></trkpt><trkpt lat="39.46980191512693" lon="8.936721187177865"><ele>74.0</ele><time>2026-04-07T16:57:45Z</time></trkpt><trkpt lat="39.469742367331186" lon="8.936798994185608"><ele>74.0</ele><time>2026-04-07T16:57:47Z</time></trkpt><trkpt lat="39.469682584504554" lon="8.936884419368598"><ele>74.0</ele><time>2026-04-07T16:57:49Z</time></trkpt><trkpt lat="39.46962108986743" lon="8.936978954571732"><ele>74.0</ele><time>2026-04-07T16:57:51Z</time></trkpt><trkpt lat="39.46955942945073" lon="8.93706076603478"><ele>74.0</ele><time>2026-04-07T16:57:53Z</time></trkpt><trkpt lat="39.469499444419164" lon="8.937159073220656"><ele>74.0</ele><time>2026-04-07T16:57:55Z</time></trkpt><trkpt lat="39.46942695413891" lon="8.937238510453756"><ele>74.0</ele><time>2026-04-07T16:57:57Z</time></trkpt><trkpt lat="39.46936969989564" lon="8.937332442273712"><ele>74.0</ele><time>2026-04-07T16:57:59Z</time></trkpt><trkpt lat="39.46930301236725" lon="8.937429412384686"><ele>74.0</ele><time>2026-04-07T16:58:01Z</time></trkpt><trkpt lat="39.46923490348175" lon="8.937526303287383"><ele>74.0</ele><time>2026-04-07T16:58:03Z</time></trkpt><trkpt lat="39.46914883243718" lon="8.937620648716129"><ele>74.0</ele><time>2026-04-07T16:58:05Z</time></trkpt><trkpt lat="39.46907788757379" lon="8.937726752643828"><ele>74.0</ele><time>2026-04-07T16:58:07Z</time></trkpt><trkpt lat="39.46901054354179" lon="8.93782747163421"><ele>74.0</ele><time>2026-04-07T16:58:09Z</time></trkpt><trkpt lat="39.46895300906187" lon="8.937947644901087"><ele>74.0</ele><time>2026-04-07T16:58:11Z</time></trkpt><trkpt lat="39.46888041416095" lon="8.938051745405106"><ele>74.0</ele><time>2026-04-07T16:58:13Z</time></trkpt><trkpt lat="39.468811919068266" lon="8.93815693285474"><ele>73.8</ele><time>2026-04-07T16:58:15Z</time></trkpt><trkpt lat="39.46874195765858" lon="8.938259822263966"><ele>73.60000000000001</ele><time>2026-04-07T16:58:17Z</time></trkpt><trkpt lat="39.468672957608916" lon="8.938366960120666"><ele>73.4</ele><time>2026-04-07T16:58:19Z</time></trkpt><trkpt lat="39.46860107718834" lon="8.93847390341311"><ele>73.2</ele><time>2026-04-07T16:58:21Z</time></trkpt><trkpt lat="39.46853139495115" lon="8.938579479101723"><ele>73.0</ele><time>2026-04-07T16:58:23Z</time></trkpt><trkpt lat="39.46846055877065" lon="8.93869257591861"><ele>73.0</ele><time>2026-04-07T16:58:25Z</time></trkpt><trkpt lat="39.46838843096186" lon="8.938798003994393"><ele>73.0</ele><time>2026-04-07T16:58:27Z</time></trkpt><trkpt lat="39.46831142754168" lon="8.93890565777202"><ele>73.0</ele><time>2026-04-07T16:58:29Z</time></trkpt><trkpt lat="39.46822586840889" lon="8.939008836894901"><ele>73.0</ele><time>2026-04-07T16:58:31Z</time></trkpt><trkpt lat="39.468129026168285" lon="8.93910182221093"><ele>73.0</ele><time>2026-04-07T16:58:33Z</time></trkpt><trkpt lat="39.46802297632828" lon="8.93917192077201"><ele>73.0</ele><time>2026-04-07T16:58:35Z</time></trkpt><trkpt lat="39.46796424496295" lon="8.93920173786466"><ele>73.0</ele><time>2026-04-07T16:58:36Z</time></trkpt><trkpt lat="39.46784578401142" lon="8.939244228567812"><ele>73.0</ele><time>2026-04-07T16:58:38Z</time></trkpt><trkpt lat="39.467783412265455" lon="8.939258221941829"><ele>73.0</ele><time>2026-04-07T16:58:39Z</time></trkpt><trkpt lat="39.46765909494667" lon="8.939277270182721"><ele>72.0</ele><time>2026-04-07T16:58:41Z</time></trkpt><trkpt lat="39.46753521664717" lon="8.939294441085831"><ele>71.0</ele><time>2026-04-07T16:58:43Z</time></trkpt><trkpt lat="39.46741290170035" lon="8.93929955904606"><ele>70.0</ele><time>2026-04-07T16:58:45Z</time></trkpt><trkpt lat="39.467285664152975" lon="8.939298974687794"><ele>69.0</ele><time>2026-04-07T16:58:47Z</time></trkpt><trkpt lat="39.46715747608057" lon="8.939305555770614"><ele>69.4</ele><time>2026-04-07T16:58:49Z</time></trkpt><trkpt lat="39.4670938945165" lon="8.939304247753082"><ele>69.80000000000001</ele><time>2026-04-07T16:58:50Z</time></trkpt><trkpt lat="39.467029652648215" lon="8.939305583014002"><ele>70.19999999999999</ele><time>2026-04-07T16:58:51Z</time></trkpt><trkpt lat="39.466908747987375" lon="8.939306389280837"><ele>70.6</ele><time>2026-04-07T16:58:53Z</time></trkpt><trkpt lat="39.46679413492115" lon="8.93930026245485"><ele>71.0</ele><time>2026-04-07T16:58:55Z</time></trkpt><trkpt lat="39.46669282790071" lon="8.939311238912438"><ele>71.0</ele><time>2026-04-07T16:58:57Z</time></trkpt><trkpt lat="39.46659195761732" lon="8.939307978146166"><ele>71.0</ele><time>2026-04-07T16:58:59Z</time></trkpt><trkpt lat="39.466494356603626" lon="8.939310747087468"><ele>71.0</ele><time>2026-04-07T16:59:01Z</time></trkpt><trkpt lat="39.46640025812675" lon="8.939307659606824"><ele>71.0</ele><time>2026-04-07T16:59:03Z</time></trkpt><trkpt lat="39.46630812313485" lon="8.939297056153595"><ele>71.0</ele><time>2026-04-07T16:59:05Z</time></trkpt><trkpt lat="39.466214837253155" lon="8.93930162855593"><ele>71.66666666666667</ele><time>2026-04-07T16:59:07Z</time></trkpt><trkpt lat="39.466130953420326" lon="8.939312126901036"><ele>72.33333333333334</ele><time>2026-04-07T16:59:09Z</time></trkpt><trkpt lat="39.466049517053484" lon="8.939305599743989"><ele>73.0</ele><time>2026-04-07T16:59:11Z</time></trkpt><trkpt lat="39.46596611445549" lon="8.939302216510052"><ele>73.66666666666667</ele><time>2026-04-07T16:59:13Z</time></trkpt><trkpt lat="39.46588514951851" lon="8.93928331742452"><ele>74.33333333333333</ele><time>2026-04-07T16:59:15Z</time></trkpt><trkpt lat="39.46580746499949" lon="8.93925618401646"><ele>75.0</ele><time>2026-04-07T16:59:17Z</time></trkpt><trkpt lat="39.46573338493647" lon="8.939219442291307"><ele>74.6</ele><time>2026-04-07T16:59:19Z</time></trkpt><trkpt lat="39.46565893203052" lon="8.939174719789387"><ele>74.2</ele><time>2026-04-07T16:59:21Z</time></trkpt><trkpt lat="39.46556701376627" lon="8.93909561225298"><ele>73.8</ele><time>2026-04-07T16:59:24Z</time></trkpt><trkpt lat="39.46551426222097" lon="8.939037159393791"><ele>73.4</ele><time>2026-04-07T16:59:26Z</time></trkpt><trkpt lat="39.465437021403964" lon="8.938956676110639"><ele>73.0</ele><time>2026-04-07T16:59:28Z</time></trkpt><trkpt lat="39.46535947871837" lon="8.938876197541763"><ele>73.0</ele><time>2026-04-07T16:59:30Z</time></trkpt><trkpt lat="39.46527814044028" lon="8.938792918716434"><ele>73.0</ele><time>2026-04-07T16:59:32Z</time></trkpt><trkpt lat="39.465195167705396" lon="8.938707972890041"><ele>73.0</ele><time>2026-04-07T16:59:34Z</time></trkpt><trkpt lat="39.46511329824257" lon="8.938617250883103"><ele>73.0</ele><time>2026-04-07T16:59:36Z</time></trkpt><trkpt lat="39.46503197679954" lon="8.938519309644947"><ele>73.0</ele><time>2026-04-07T16:59:38Z</time></trkpt><trkpt lat="39.46495141561901" lon="8.938427892028548"><ele>73.4</ele><time>2026-04-07T16:59:40Z</time></trkpt><trkpt lat="39.464871213131396" lon="8.938332787053502"><ele>73.8</ele><time>2026-04-07T16:59:42Z</time></trkpt><trkpt lat="39.464798620928626" lon="8.938243741493105"><ele>74.2</ele><time>2026-04-07T16:59:44Z</time></trkpt><trkpt lat="39.46468803440317" lon="8.938149459974815"><ele>74.6</ele><time>2026-04-07T16:59:46Z</time></trkpt><trkpt lat="39.46462417257015" lon="8.938068942449101"><ele>75.0</ele><time>2026-04-07T16:59:48Z</time></trkpt><trkpt lat="39.464563610826346" lon="8.937994166035061"><ele>75.0</ele><time>2026-04-07T16:59:50Z</time></trkpt><trkpt lat="39.46449938493207" lon="8.937920454991863"><ele>75.0</ele><time>2026-04-07T16:59:52Z</time></trkpt><trkpt lat="39.46443742241524" lon="8.937847312605546"><ele>75.0</ele><time>2026-04-07T16:59:54Z</time></trkpt><trkpt lat="39.46438252493714" lon="8.93777742088958"><ele>75.0</ele><time>2026-04-07T16:59:56Z</time></trkpt><trkpt lat="39.464326100467396" lon="8.937712901910674"><ele>75.0</ele><time>2026-04-07T16:59:58Z</time></trkpt><trkpt lat="39.464277493936216" lon="8.937655893683527"><ele>75.0</ele><time>2026-04-07T17:00:00Z</time></trkpt><trkpt lat="39.464227768763955" lon="8.937596603312992"><ele>74.57142857142857</ele><time>2026-04-07T17:00:02Z</time></trkpt><trkpt lat="39.46417936932583" lon="8.937538911237894"><ele>74.14285714285714</ele><time>2026-04-07T17:00:04Z</time></trkpt><trkpt lat="39.464130228916765" lon="8.937479011451549"><ele>73.71428571428572</ele><time>2026-04-07T17:00:06Z</time></trkpt><trkpt lat="39.46407443042183" lon="8.93741582436115"><ele>73.28571428571428</ele><time>2026-04-07T17:00:08Z</time></trkpt><trkpt lat="39.46401176509052" lon="8.937352666189579"><ele>72.85714285714286</ele><time>2026-04-07T17:00:10Z</time></trkpt><trkpt lat="39.46395071884068" lon="8.937281968642314"><ele>72.42857142857143</ele><time>2026-04-07T17:00:12Z</time></trkpt><trkpt lat="39.46389762732069" lon="8.937223478570726"><ele>72.0</ele><time>2026-04-07T17:00:14Z</time></trkpt><trkpt lat="39.46383325083111" lon="8.93715225796298"><ele>72.6</ele><time>2026-04-07T17:00:17Z</time></trkpt><trkpt lat="39.463763793797185" lon="8.937057469828893"><ele>73.2</ele><time>2026-04-07T17:00:18Z</time></trkpt><trkpt lat="39.46369626579726" lon="8.936982454993917"><ele>73.8</ele><time>2026-04-07T17:00:20Z</time></trkpt><trkpt lat="39.463627272260865" lon="8.936902913405982"><ele>74.4</ele><time>2026-04-07T17:00:22Z</time></trkpt><trkpt lat="39.46356145259613" lon="8.936829067691757"><ele>75.0</ele><time>2026-04-07T17:00:24Z</time></trkpt><trkpt lat="39.46348952924166" lon="8.936755296393775"><ele>74.8</ele><time>2026-04-07T17:00:26Z</time></trkpt><trkpt lat="39.463417582215264" lon="8.936673751681198"><ele>74.6</ele><time>2026-04-07T17:00:28Z</time></trkpt><trkpt lat="39.4633453053867" lon="8.936598577029434"><ele>74.4</ele><time>2026-04-07T17:00:30Z</time></trkpt><trkpt lat="39.46328263219645" lon="8.93652432037977"><ele>74.2</ele><time>2026-04-07T17:00:32Z</time></trkpt><trkpt lat="39.46321522353321" lon="8.936447704475201"><ele>74.0</ele><time>2026-04-07T17:00:34Z</time></trkpt><trkpt lat="39.46314845981538" lon="8.936370432923654"><ele>74.0</ele><time>2026-04-07T17:00:36Z</time></trkpt><trkpt lat="39.46308956247675" lon="8.936333885451706"><ele>74.0</ele><time>2026-04-07T17:00:37Z</time></trkpt><trkpt lat="39.46302289093466" lon="8.936260744956712"><ele>74.0</ele><time>2026-04-07T17:00:39Z</time></trkpt><trkpt lat="39.46295953589511" lon="8.936193302751683"><ele>74.0</ele><time>2026-04-07T17:00:41Z</time></trkpt><trkpt lat="39.462891203944274" lon="8.936120101113287"><ele>74.0</ele><time>2026-04-07T17:00:43Z</time></trkpt><trkpt lat="39.462824778418444" lon="8.936046979085663"><ele>74.0</ele><time>2026-04-07T17:00:45Z</time></trkpt><trkpt lat="39.462748986671684" lon="8.935966135906803"><ele>74.2</ele><time>2026-04-07T17:00:47Z</time></trkpt><trkpt lat="39.46267957421639" lon="8.935890349686883"><ele>74.4</ele><time>2026-04-07T17:00:49Z</time></trkpt><trkpt lat="39.46260337848798" lon="8.935818931129884"><ele>74.6</ele><time>2026-04-07T17:00:51Z</time></trkpt><trkpt lat="39.46252926866181" lon="8.935737043507334"><ele>74.8</ele><time>2026-04-07T17:00:53Z</time></trkpt><trkpt lat="39.46245051465233" lon="8.935656747286378"><ele>75.0</ele><time>2026-04-07T17:00:55Z</time></trkpt><trkpt lat="39.462369111295175" lon="8.935574976586967"><ele>74.6</ele><time>2026-04-07T17:00:57Z</time></trkpt><trkpt lat="39.4622836914689" lon="8.935491554879196"><ele>74.2</ele><time>2026-04-07T17:00:59Z</time></trkpt><trkpt lat="39.462196131596905" lon="8.935401104499437"><ele>73.8</ele><time>2026-04-07T17:01:01Z</time></trkpt><trkpt lat="39.46210896995406" lon="8.9353107841148"><ele>73.4</ele><time>2026-04-07T17:01:03Z</time></trkpt><trkpt lat="39.46201650172663" lon="8.935218041508897"><ele>73.0</ele><time>2026-04-07T17:01:05Z</time></trkpt><trkpt lat="39.46192796467997" lon="8.935125592840784"><ele>73.0</ele><time>2026-04-07T17:01:07Z</time></trkpt><trkpt lat="39.46183830443079" lon="8.935032455554946"><ele>73.0</ele><time>2026-04-07T17:01:09Z</time></trkpt><trkpt lat="39.46174417739708" lon="8.934937884797659"><ele>73.0</ele><time>2026-04-07T17:01:11Z</time></trkpt><trkpt lat="39.461652732559195" lon="8.934843110511123"><ele>73.0</ele><time>2026-04-07T17:01:13Z</time></trkpt><trkpt lat="39.46155816167473" lon="8.934750092163835"><ele>73.0</ele><time>2026-04-07T17:01:15Z</time></trkpt><trkpt lat="39.46146828110756" lon="8.934652523910785"><ele>73.0</ele><time>2026-04-07T17:01:17Z</time></trkpt><trkpt lat="39.4613708722766" lon="8.93455580171119"><ele>73.0</ele><time>2026-04-07T17:01:19Z</time></trkpt><trkpt lat="39.46127843942217" lon="8.934458340426232"><ele>73.0</ele><time>2026-04-07T17:01:21Z</time></trkpt><trkpt lat="39.461182141723235" lon="8.934362704981089"><ele>73.0</ele><time>2026-04-07T17:01:23Z</time></trkpt><trkpt lat="39.461087110259285" lon="8.934262700225787"><ele>73.0</ele><time>2026-04-07T17:01:25Z</time></trkpt><trkpt lat="39.46098573950962" lon="8.934162784637032"><ele>73.0</ele><time>2026-04-07T17:01:27Z</time></trkpt><trkpt lat="39.46089623313186" lon="8.934066361248043"><ele>73.0</ele><time>2026-04-07T17:01:29Z</time></trkpt><trkpt lat="39.46080000224225" lon="8.933967869214312"><ele>72.75</ele><time>2026-04-07T17:01:31Z</time></trkpt><trkpt lat="39.460704533858056" lon="8.933869149537768"><ele>72.5</ele><time>2026-04-07T17:01:33Z</time></trkpt><trkpt lat="39.46060955574499" lon="8.933768876582581"><ele>72.25</ele><time>2026-04-07T17:01:35Z</time></trkpt><trkpt lat="39.46051303088758" lon="8.933671373308563"><ele>72.0</ele><time>2026-04-07T17:01:37Z</time></trkpt><trkpt lat="39.460413676858096" lon="8.933571694693976"><ele>71.85714285714286</ele><time>2026-04-07T17:01:39Z</time></trkpt><trkpt lat="39.46036235959592" lon="8.933521260922767"><ele>71.71428571428572</ele><time>2026-04-07T17:01:40Z</time></trkpt><trkpt lat="39.46031121540902" lon="8.933471862857118"><ele>71.57142857142857</ele><time>2026-04-07T17:01:41Z</time></trkpt><trkpt lat="39.46025813645556" lon="8.933420191434017"><ele>71.42857142857143</ele><time>2026-04-07T17:01:42Z</time></trkpt><trkpt lat="39.46015790308921" lon="8.933322811100542"><ele>71.28571428571428</ele><time>2026-04-07T17:01:44Z</time></trkpt><trkpt lat="39.460105476477594" lon="8.933273500134618"><ele>71.14285714285714</ele><time>2026-04-07T17:01:45Z</time></trkpt><trkpt lat="39.46005293526036" lon="8.933228308977261"><ele>71.0</ele><time>2026-04-07T17:01:46Z</time></trkpt><trkpt lat="39.459947267981214" lon="8.933139669356024"><ele>71.0</ele><time>2026-04-07T17:01:48Z</time></trkpt><trkpt lat="39.459833904822915" lon="8.933071433771868"><ele>71.0</ele><time>2026-04-07T17:01:50Z</time></trkpt><trkpt lat="39.45972505807676" lon="8.93301814758615"><ele>71.0</ele><time>2026-04-07T17:01:52Z</time></trkpt><trkpt lat="39.45966409106218" lon="8.932988968433358"><ele>71.0</ele><time>2026-04-07T17:01:53Z</time></trkpt><trkpt lat="39.45954378143302" lon="8.932953402620303"><ele>71.0</ele><time>2026-04-07T17:01:55Z</time></trkpt><trkpt lat="39.45942944321291" lon="8.932920573391574"><ele>71.0</ele><time>2026-04-07T17:01:57Z</time></trkpt><trkpt lat="39.45936718725879" lon="8.932901822264432"><ele>71.0</ele><time>2026-04-07T17:01:58Z</time></trkpt><trkpt lat="39.459250114865895" lon="8.932874983946826"><ele>71.0</ele><time>2026-04-07T17:02:00Z</time></trkpt><trkpt lat="39.4591319633606" lon="8.932836748155792"><ele>71.0</ele><time>2026-04-07T17:02:02Z</time></trkpt><trkpt lat="39.45901405849209" lon="8.932805299761613"><ele>71.0</ele><time>2026-04-07T17:02:04Z</time></trkpt><trkpt lat="39.45889363762971" lon="8.932770642677427"><ele>70.8</ele><time>2026-04-07T17:02:06Z</time></trkpt><trkpt lat="39.45877659300857" lon="8.932735508333826"><ele>70.6</ele><time>2026-04-07T17:02:08Z</time></trkpt><trkpt lat="39.458712002028015" lon="8.932720663874578"><ele>70.4</ele><time>2026-04-07T17:02:09Z</time></trkpt><trkpt lat="39.458595629236456" lon="8.932685819145794"><ele>70.2</ele><time>2026-04-07T17:02:11Z</time></trkpt><trkpt lat="39.45847352922143" lon="8.932643290312633"><ele>70.0</ele><time>2026-04-07T17:02:13Z</time></trkpt><trkpt lat="39.45836026119374" lon="8.932618462216126"><ele>70.0</ele><time>2026-04-07T17:02:15Z</time></trkpt><trkpt lat="39.45824654769347" lon="8.932584738287995"><ele>70.0</ele><time>2026-04-07T17:02:17Z</time></trkpt><trkpt lat="39.458129970449164" lon="8.932552319483243"><ele>70.0</ele><time>2026-04-07T17:02:19Z</time></trkpt><trkpt lat="39.45801852459766" lon="8.932523798084478"><ele>70.0</ele><time>2026-04-07T17:02:21Z</time></trkpt><trkpt lat="39.45790673613632" lon="8.932491571630433"><ele>69.6</ele><time>2026-04-07T17:02:23Z</time></trkpt><trkpt lat="39.45779330300472" lon="8.932467233102134"><ele>69.2</ele><time>2026-04-07T17:02:25Z</time></trkpt><trkpt lat="39.457678964091144" lon="8.93245696293211"><ele>68.8</ele><time>2026-04-07T17:02:27Z</time></trkpt><trkpt lat="39.4575681124397" lon="8.932451879855606"><ele>68.4</ele><time>2026-04-07T17:02:29Z</time></trkpt><trkpt lat="39.45746071968368" lon="8.932463149013499"><ele>68.0</ele><time>2026-04-07T17:02:31Z</time></trkpt><trkpt lat="39.45735891008022" lon="8.932498761450006"><ele>68.0</ele><time>2026-04-07T17:02:33Z</time></trkpt><trkpt lat="39.457260545024425" lon="8.932542146618683"><ele>68.0</ele><time>2026-04-07T17:02:35Z</time></trkpt><trkpt lat="39.457167181383745" lon="8.93260061533337"><ele>68.0</ele><time>2026-04-07T17:02:37Z</time></trkpt><trkpt lat="39.45707819190273" lon="8.932671939854279"><ele>68.0</ele><time>2026-04-07T17:02:39Z</time></trkpt><trkpt lat="39.45699576032239" lon="8.932756776927864"><ele>68.0</ele><time>2026-04-07T17:02:41Z</time></trkpt><trkpt lat="39.45691436320545" lon="8.932843569263541"><ele>68.4</ele><time>2026-04-07T17:02:43Z</time></trkpt><trkpt lat="39.456849521083484" lon="8.932943787491714"><ele>68.8</ele><time>2026-04-07T17:02:45Z</time></trkpt><trkpt lat="39.45677774007121" lon="8.933045892191284"><ele>69.2</ele><time>2026-04-07T17:02:47Z</time></trkpt><trkpt lat="39.456702479193055" lon="8.933148686156313"><ele>69.6</ele><time>2026-04-07T17:02:49Z</time></trkpt><trkpt lat="39.456629786694776" lon="8.933251081145658"><ele>70.0</ele><time>2026-04-07T17:02:51Z</time></trkpt><trkpt lat="39.45655774887308" lon="8.933350628284273"><ele>70.0</ele><time>2026-04-07T17:02:53Z</time></trkpt><trkpt lat="39.45648526719742" lon="8.933448066869637"><ele>70.0</ele><time>2026-04-07T17:02:55Z</time></trkpt><trkpt lat="39.456417470500654" lon="8.93354447244689"><ele>70.0</ele><time>2026-04-07T17:02:57Z</time></trkpt><trkpt lat="39.4563483504364" lon="8.933638414381528"><ele>70.0</ele><time>2026-04-07T17:02:59Z</time></trkpt><trkpt lat="39.45628082912906" lon="8.933728828642126"><ele>70.0</ele><time>2026-04-07T17:03:01Z</time></trkpt><trkpt lat="39.45621573348956" lon="8.933819661945819"><ele>70.2</ele><time>2026-04-07T17:03:03Z</time></trkpt><trkpt lat="39.45615015778325" lon="8.933910591120958"><ele>70.4</ele><time>2026-04-07T17:03:05Z</time></trkpt><trkpt lat="39.4560872096468" lon="8.933996878506742"><ele>70.6</ele><time>2026-04-07T17:03:07Z</time></trkpt><trkpt lat="39.4560232376352" lon="8.93408429105606"><ele>70.8</ele><time>2026-04-07T17:03:09Z</time></trkpt><trkpt lat="39.45596256266346" lon="8.93417256088572"><ele>71.0</ele><time>2026-04-07T17:03:11Z</time></trkpt><trkpt lat="39.45589692068728" lon="8.934258864604246"><ele>71.2</ele><time>2026-04-07T17:03:13Z</time></trkpt><trkpt lat="39.45583635364198" lon="8.934350678170928"><ele>71.39999999999999</ele><time>2026-04-07T17:03:15Z</time></trkpt><trkpt lat="39.45576697106598" lon="8.934437585621462"><ele>71.6</ele><time>2026-04-07T17:03:17Z</time></trkpt><trkpt lat="39.455709589524595" lon="8.934526213604787"><ele>71.8</ele><time>2026-04-07T17:03:19Z</time></trkpt><trkpt lat="39.45564579733994" lon="8.934610946812649"><ele>72.0</ele><time>2026-04-07T17:03:21Z</time></trkpt><trkpt lat="39.45558350295091" lon="8.934703271674216"><ele>72.0</ele><time>2026-04-07T17:03:23Z</time></trkpt><trkpt lat="39.455520756227756" lon="8.934793178664437"><ele>72.0</ele><time>2026-04-07T17:03:25Z</time></trkpt><trkpt lat="39.45546000698553" lon="8.934881728028707"><ele>72.0</ele><time>2026-04-07T17:03:27Z</time></trkpt><trkpt lat="39.45539737668001" lon="8.934972552785753"><ele>72.0</ele><time>2026-04-07T17:03:29Z</time></trkpt><trkpt lat="39.45533339370845" lon="8.935058712931566"><ele>72.0</ele><time>2026-04-07T17:03:31Z</time></trkpt><trkpt lat="39.455274240753404" lon="8.935148692025127"><ele>72.0</ele><time>2026-04-07T17:03:33Z</time></trkpt><trkpt lat="39.45521057173584" lon="8.93523568024173"><ele>72.0</ele><time>2026-04-07T17:03:35Z</time></trkpt><trkpt lat="39.45514697321393" lon="8.93532901872935"><ele>72.0</ele><time>2026-04-07T17:03:37Z</time></trkpt><trkpt lat="39.45508162687589" lon="8.935418967091032"><ele>72.0</ele><time>2026-04-07T17:03:39Z</time></trkpt><trkpt lat="39.45502150104028" lon="8.935516274405211"><ele>72.0</ele><time>2026-04-07T17:03:41Z</time></trkpt><trkpt lat="39.454961966418686" lon="8.935654573061035"><ele>72.0</ele><time>2026-04-07T17:03:43Z</time></trkpt><trkpt lat="39.45488770849881" lon="8.935715275985796"><ele>72.0</ele><time>2026-04-07T17:03:45Z</time></trkpt><trkpt lat="39.45482495325063" lon="8.935816635092353"><ele>72.0</ele><time>2026-04-07T17:03:47Z</time></trkpt><trkpt lat="39.4547550058115" lon="8.935916405037831"><ele>72.0</ele><time>2026-04-07T17:03:49Z</time></trkpt><trkpt lat="39.45468596026964" lon="8.93601369836285"><ele>72.0</ele><time>2026-04-07T17:03:51Z</time></trkpt><trkpt lat="39.45461875086209" lon="8.93611159189122"><ele>71.8</ele><time>2026-04-07T17:03:53Z</time></trkpt><trkpt lat="39.45454826335222" lon="8.93620889968275"><ele>71.6</ele><time>2026-04-07T17:03:55Z</time></trkpt><trkpt lat="39.45445998016137" lon="8.93628471795595"><ele>71.39999999999999</ele><time>2026-04-07T17:03:57Z</time></trkpt><trkpt lat="39.454391664095326" lon="8.936384904882205"><ele>71.2</ele><time>2026-04-07T17:03:59Z</time></trkpt><trkpt lat="39.45432259002789" lon="8.936484750247635"><ele>71.0</ele><time>2026-04-07T17:04:01Z</time></trkpt><trkpt lat="39.454251794151666" lon="8.93658708448409"><ele>71.0</ele><time>2026-04-07T17:04:03Z</time></trkpt><trkpt lat="39.45418162436083" lon="8.936688145063993"><ele>71.0</ele><time>2026-04-07T17:04:05Z</time></trkpt><trkpt lat="39.454111218851324" lon="8.93678938917573"><ele>71.0</ele><time>2026-04-07T17:04:07Z</time></trkpt><trkpt lat="39.45405692254379" lon="8.936911975112146"><ele>71.0</ele><time>2026-04-07T17:04:09Z</time></trkpt><trkpt lat="39.45398507535567" lon="8.937013251273726"><ele>71.0</ele><time>2026-04-07T17:04:11Z</time></trkpt><trkpt lat="39.45391753937734" lon="8.937111722735226"><ele>71.0</ele><time>2026-04-07T17:04:13Z</time></trkpt><trkpt lat="39.45384967527112" lon="8.937207124476894"><ele>71.0</ele><time>2026-04-07T17:04:15Z</time></trkpt><trkpt lat="39.453782233314534" lon="8.937301512949476"><ele>71.0</ele><time>2026-04-07T17:04:17Z</time></trkpt><trkpt lat="39.45371328445578" lon="8.937395682699059"><ele>71.0</ele><time>2026-04-07T17:04:19Z</time></trkpt><trkpt lat="39.453637302270145" lon="8.937479113306923"><ele>71.0</ele><time>2026-04-07T17:04:21Z</time></trkpt><trkpt lat="39.453558898433904" lon="8.937563818828705"><ele>70.8</ele><time>2026-04-07T17:04:23Z</time></trkpt><trkpt lat="39.453475376231346" lon="8.937643436607042"><ele>70.6</ele><time>2026-04-07T17:04:25Z</time></trkpt><trkpt lat="39.45337932899076" lon="8.937713214594595"><ele>70.4</ele><time>2026-04-07T17:04:27Z</time></trkpt><trkpt lat="39.45326701330182" lon="8.937742746105075"><ele>70.2</ele><time>2026-04-07T17:04:29Z</time></trkpt><trkpt lat="39.453166168375404" lon="8.937807340892597"><ele>70.0</ele><time>2026-04-07T17:04:31Z</time></trkpt><trkpt lat="39.453060420313676" lon="8.93787180755327"><ele>69.75</ele><time>2026-04-07T17:04:33Z</time></trkpt><trkpt lat="39.45294931076101" lon="8.937939072819601"><ele>69.5</ele><time>2026-04-07T17:04:35Z</time></trkpt><trkpt lat="39.45283820592878" lon="8.938006335228062"><ele>69.25</ele><time>2026-04-07T17:04:37Z</time></trkpt><trkpt lat="39.452726894030036" lon="8.938073429439225"><ele>69.0</ele><time>2026-04-07T17:04:39Z</time></trkpt><trkpt lat="39.45261539846404" lon="8.938139433964352"><ele>69.0</ele><time>2026-04-07T17:04:41Z</time></trkpt><trkpt lat="39.45255749560668" lon="8.93817216166787"><ele>69.0</ele><time>2026-04-07T17:04:42Z</time></trkpt><trkpt lat="39.45245427771278" lon="8.938268589904858"><ele>69.0</ele><time>2026-04-07T17:04:44Z</time></trkpt><trkpt lat="39.45234577608456" lon="8.93832113527099"><ele>69.0</ele><time>2026-04-07T17:04:46Z</time></trkpt><trkpt lat="39.452249257413776" lon="8.938371294776317"><ele>69.0</ele><time>2026-04-07T17:04:48Z</time></trkpt><trkpt lat="39.45215957569164" lon="8.938416769070347"><ele>69.5</ele><time>2026-04-07T17:04:50Z</time></trkpt><trkpt lat="39.452076601068114" lon="8.93846082997207"><ele>70.0</ele><time>2026-04-07T17:04:52Z</time></trkpt><trkpt lat="39.451996945522964" lon="8.938504866449023"><ele>70.5</ele><time>2026-04-07T17:04:54Z</time></trkpt><trkpt lat="39.451921525957424" lon="8.938550349123544"><ele>71.0</ele><time>2026-04-07T17:04:56Z</time></trkpt><trkpt lat="39.45184346081549" lon="8.938583870684457"><ele>71.5</ele><time>2026-04-07T17:04:58Z</time></trkpt><trkpt lat="39.45176443284842" lon="8.93862491051318"><ele>72.0</ele><time>2026-04-07T17:05:00Z</time></trkpt><trkpt lat="39.45168435157703" lon="8.93867080160826"><ele>72.0</ele><time>2026-04-07T17:05:02Z</time></trkpt><trkpt lat="39.45160266029766" lon="8.9387146337528"><ele>72.0</ele><time>2026-04-07T17:05:04Z</time></trkpt><trkpt lat="39.45151732492716" lon="8.938761220219638"><ele>72.0</ele><time>2026-04-07T17:05:06Z</time></trkpt><trkpt lat="39.45143608258598" lon="8.938811166494522"><ele>72.0</ele><time>2026-04-07T17:05:09Z</time></trkpt><trkpt lat="39.45137480051074" lon="8.938851839945688"><ele>72.0</ele><time>2026-04-07T17:05:11Z</time></trkpt><trkpt lat="39.451290776078004" lon="8.938903197457693"><ele>72.0</ele><time>2026-04-07T17:05:13Z</time></trkpt><trkpt lat="39.45122104833767" lon="8.938933669810806"><ele>72.0</ele><time>2026-04-07T17:05:15Z</time></trkpt><trkpt lat="39.45114253139122" lon="8.938983996319543"><ele>72.0</ele><time>2026-04-07T17:05:17Z</time></trkpt><trkpt lat="39.451050206817925" lon="8.939036850350503"><ele>72.0</ele><time>2026-04-07T17:05:19Z</time></trkpt><trkpt lat="39.45096282131105" lon="8.939093685394292"><ele>72.0</ele><time>2026-04-07T17:05:21Z</time></trkpt><trkpt lat="39.45087364900494" lon="8.939146264666782"><ele>72.0</ele><time>2026-04-07T17:05:23Z</time></trkpt><trkpt lat="39.45078405064273" lon="8.939201316325354"><ele>72.0</ele><time>2026-04-07T17:05:25Z</time></trkpt><trkpt lat="39.450697442986915" lon="8.939250787279397"><ele>72.0</ele><time>2026-04-07T17:05:27Z</time></trkpt><trkpt lat="39.45061232679656" lon="8.93930126807837"><ele>72.0</ele><time>2026-04-07T17:05:29Z</time></trkpt><trkpt lat="39.4505369815934" lon="8.939364625134793"><ele>72.0</ele><time>2026-04-07T17:05:31Z</time></trkpt><trkpt lat="39.450454184858785" lon="8.939400691811564"><ele>72.0</ele><time>2026-04-07T17:05:33Z</time></trkpt><trkpt lat="39.45036730395339" lon="8.939456252875939"><ele>71.8</ele><time>2026-04-07T17:05:35Z</time></trkpt><trkpt lat="39.4502810252281" lon="8.939514976677643"><ele>71.6</ele><time>2026-04-07T17:05:37Z</time></trkpt><trkpt lat="39.45019306031991" lon="8.93956954666955"><ele>71.39999999999999</ele><time>2026-04-07T17:05:39Z</time></trkpt><trkpt lat="39.45009726227642" lon="8.939624040082206"><ele>71.2</ele><time>2026-04-07T17:05:41Z</time></trkpt><trkpt lat="39.45000084000602" lon="8.939683053680785"><ele>71.0</ele><time>2026-04-07T17:05:43Z</time></trkpt><trkpt lat="39.44990190310987" lon="8.939749897673263"><ele>71.0</ele><time>2026-04-07T17:05:45Z</time></trkpt><trkpt lat="39.44979190361326" lon="8.939816005136882"><ele>71.0</ele><time>2026-04-07T17:05:47Z</time></trkpt><trkpt lat="39.449685476506524" lon="8.939879572164754"><ele>71.0</ele><time>2026-04-07T17:05:49Z</time></trkpt><trkpt lat="39.4495772454723" lon="8.939943850074068"><ele>71.0</ele><time>2026-04-07T17:05:51Z</time></trkpt><trkpt lat="39.449469611003835" lon="8.940016735125129"><ele>71.0</ele><time>2026-04-07T17:05:53Z</time></trkpt><trkpt lat="39.449364046846526" lon="8.940089566016018"><ele>71.0</ele><time>2026-04-07T17:05:55Z</time></trkpt><trkpt lat="39.449256972648605" lon="8.94015496022203"><ele>71.0</ele><time>2026-04-07T17:05:57Z</time></trkpt><trkpt lat="39.44915150144595" lon="8.940228135017502"><ele>71.0</ele><time>2026-04-07T17:05:59Z</time></trkpt><trkpt lat="39.44904834327899" lon="8.940296490238524"><ele>71.0</ele><time>2026-04-07T17:06:01Z</time></trkpt><trkpt lat="39.448936999717866" lon="8.940354684916004"><ele>71.0</ele><time>2026-04-07T17:06:03Z</time></trkpt><trkpt lat="39.44887824028185" lon="8.940384807482861"><ele>71.0</ele><time>2026-04-07T17:06:04Z</time></trkpt><trkpt lat="39.44876363273358" lon="8.940448748686203"><ele>71.0</ele><time>2026-04-07T17:06:06Z</time></trkpt><trkpt lat="39.44865274699887" lon="8.940519962972099"><ele>71.0</ele><time>2026-04-07T17:06:08Z</time></trkpt><trkpt lat="39.448542704794434" lon="8.940589846559595"><ele>70.75</ele><time>2026-04-07T17:06:10Z</time></trkpt><trkpt lat="39.4484339896075" lon="8.940648800032486"><ele>70.5</ele><time>2026-04-07T17:06:12Z</time></trkpt><trkpt lat="39.448326668784055" lon="8.940711229480042"><ele>70.25</ele><time>2026-04-07T17:06:14Z</time></trkpt><trkpt lat="39.44822683538023" lon="8.940772024300777"><ele>70.0</ele><time>2026-04-07T17:06:16Z</time></trkpt><trkpt lat="39.44813142731511" lon="8.940825557518119"><ele>70.0</ele><time>2026-04-07T17:06:18Z</time></trkpt><trkpt lat="39.448035596040924" lon="8.940882204876202"><ele>70.0</ele><time>2026-04-07T17:06:20Z</time></trkpt><trkpt lat="39.447941587367794" lon="8.940940676618299"><ele>70.0</ele><time>2026-04-07T17:06:22Z</time></trkpt><trkpt lat="39.44784136975707" lon="8.940964907581646"><ele>70.0</ele><time>2026-04-07T17:06:24Z</time></trkpt><trkpt lat="39.44775306862266" lon="8.941016296111822"><ele>70.0</ele><time>2026-04-07T17:06:26Z</time></trkpt><trkpt lat="39.447669975447624" lon="8.941064653768857"><ele>70.0</ele><time>2026-04-07T17:06:28Z</time></trkpt><trkpt lat="39.447592340739966" lon="8.94110983473611"><ele>70.0</ele><time>2026-04-07T17:06:30Z</time></trkpt><trkpt lat="39.447522924694894" lon="8.94115023262145"><ele>70.0</ele><time>2026-04-07T17:06:32Z</time></trkpt><trkpt lat="39.44745220837703" lon="8.941191387388802"><ele>70.0</ele><time>2026-04-07T17:06:34Z</time></trkpt><trkpt lat="39.44738784621335" lon="8.941228844141408"><ele>70.0</ele><time>2026-04-07T17:06:36Z</time></trkpt><trkpt lat="39.44732122161641" lon="8.94126761754627"><ele>70.0</ele><time>2026-04-07T17:06:38Z</time></trkpt><trkpt lat="39.447254014046635" lon="8.94130673020148"><ele>70.0</ele><time>2026-04-07T17:06:40Z</time></trkpt><trkpt lat="39.4471847575184" lon="8.941347035425624"><ele>70.0</ele><time>2026-04-07T17:06:42Z</time></trkpt><trkpt lat="39.44711429112607" lon="8.94138804468576"><ele>70.0</ele><time>2026-04-07T17:06:44Z</time></trkpt><trkpt lat="39.447044269782396" lon="8.941428794912873"><ele>70.0</ele><time>2026-04-07T17:06:46Z</time></trkpt><trkpt lat="39.4469721351952" lon="8.941470774977107"><ele>70.0</ele><time>2026-04-07T17:06:48Z</time></trkpt><trkpt lat="39.44690678282196" lon="8.941525104359874"><ele>70.0</ele><time>2026-04-07T17:06:50Z</time></trkpt><trkpt lat="39.44683610241069" lon="8.941567429694986"><ele>70.33333333333333</ele><time>2026-04-07T17:06:52Z</time></trkpt><trkpt lat="39.446762744443255" lon="8.941600209256725"><ele>70.66666666666666</ele><time>2026-04-07T17:06:54Z</time></trkpt><trkpt lat="39.44669663176787" lon="8.941627781724126"><ele>71.0</ele><time>2026-04-07T17:06:56Z</time></trkpt><trkpt lat="39.44676758242921" lon="8.941622638785566"><ele>71.33333333333333</ele><time>2026-04-07T17:07:03Z</time></trkpt><trkpt lat="39.44683759070963" lon="8.941585687215781"><ele>71.66666666666667</ele><time>2026-04-07T17:07:05Z</time></trkpt><trkpt lat="39.44692611103589" lon="8.94154594059275"><ele>72.0</ele><time>2026-04-07T17:07:07Z</time></trkpt><trkpt lat="39.447030033824454" lon="8.941496395477488"><ele>71.66666666666667</ele><time>2026-04-07T17:07:09Z</time></trkpt><trkpt lat="39.447147172447245" lon="8.941434312521327"><ele>71.33333333333333</ele><time>2026-04-07T17:07:11Z</time></trkpt><trkpt lat="39.44720381520557" lon="8.941397049875937"><ele>71.0</ele><time>2026-04-07T17:07:12Z</time></trkpt><trkpt lat="39.44731884961855" lon="8.9413323347416"><ele>70.66666666666666</ele><time>2026-04-07T17:07:14Z</time></trkpt><trkpt lat="39.44737818199065" lon="8.941296098019217"><ele>70.33333333333333</ele><time>2026-04-07T17:07:15Z</time></trkpt><trkpt lat="39.44743684457121" lon="8.941266226683357"><ele>70.0</ele><time>2026-04-07T17:07:16Z</time></trkpt><trkpt lat="39.447497198195165" lon="8.941231984302975"><ele>70.0</ele><time>2026-04-07T17:07:17Z</time></trkpt><trkpt lat="39.44755645424953" lon="8.941197553178604"><ele>70.0</ele><time>2026-04-07T17:07:18Z</time></trkpt><trkpt lat="39.44761497126903" lon="8.94116100260446"><ele>70.0</ele><time>2026-04-07T17:07:19Z</time></trkpt><trkpt lat="39.44767701596279" lon="8.941124743211518"><ele>70.0</ele><time>2026-04-07T17:07:20Z</time></trkpt><trkpt lat="39.44773942164761" lon="8.941090436617598"><ele>70.0</ele><time>2026-04-07T17:07:21Z</time></trkpt><trkpt lat="39.44780294036898" lon="8.941054330532934"><ele>70.0</ele><time>2026-04-07T17:07:22Z</time></trkpt><trkpt lat="39.4478664247742" lon="8.941019058438343"><ele>70.0</ele><time>2026-04-07T17:07:23Z</time></trkpt><trkpt lat="39.4479314204731" lon="8.94098030804543"><ele>70.0</ele><time>2026-04-07T17:07:24Z</time></trkpt><trkpt lat="39.44799910095504" lon="8.94094442802143"><ele>70.0</ele><time>2026-04-07T17:07:25Z</time></trkpt><trkpt lat="39.44806760780719" lon="8.940904144354084"><ele>70.0</ele><time>2026-04-07T17:07:26Z</time></trkpt><trkpt lat="39.44813868503331" lon="8.94086009294237"><ele>70.0</ele><time>2026-04-07T17:07:27Z</time></trkpt><trkpt lat="39.448210626914765" lon="8.940819789514096"><ele>70.0</ele><time>2026-04-07T17:07:28Z</time></trkpt><trkpt lat="39.44827974428917" lon="8.94077824968937"><ele>70.0</ele><time>2026-04-07T17:07:29Z</time></trkpt><trkpt lat="39.448353029471626" lon="8.940734151189169"><ele>70.0</ele><time>2026-04-07T17:07:30Z</time></trkpt><trkpt lat="39.44842866039722" lon="8.940691536749531"><ele>70.0</ele><time>2026-04-07T17:07:31Z</time></trkpt><trkpt lat="39.448505216501104" lon="8.940647139147414"><ele>70.0</ele><time>2026-04-07T17:07:32Z</time></trkpt><trkpt lat="39.448578487176" lon="8.940605347627054"><ele>70.0</ele><time>2026-04-07T17:07:33Z</time></trkpt><trkpt lat="39.44865117569983" lon="8.940560378727984"><ele>70.0</ele><time>2026-04-07T17:07:34Z</time></trkpt><trkpt lat="39.44872046212384" lon="8.940517942367933"><ele>70.0</ele><time>2026-04-07T17:07:35Z</time></trkpt><trkpt lat="39.4487915107231" lon="8.940474670306848"><ele>70.14285714285714</ele><time>2026-04-07T17:07:36Z</time></trkpt><trkpt lat="39.44885878189786" lon="8.940432823202537"><ele>70.28571428571428</ele><time>2026-04-07T17:07:37Z</time></trkpt><trkpt lat="39.448925756398" lon="8.94039070628834"><ele>70.42857142857143</ele><time>2026-04-07T17:07:38Z</time></trkpt><trkpt lat="39.44899199541228" lon="8.940348111639493"><ele>70.57142857142857</ele><time>2026-04-07T17:07:39Z</time></trkpt><trkpt lat="39.449052289538905" lon="8.940308921552333"><ele>70.71428571428571</ele><time>2026-04-07T17:07:40Z</time></trkpt><trkpt lat="39.44911559218474" lon="8.940264174645524"><ele>70.85714285714286</ele><time>2026-04-07T17:07:41Z</time></trkpt><trkpt lat="39.44917723510909" lon="8.940230702477121"><ele>71.0</ele><time>2026-04-07T17:07:42Z</time></trkpt><trkpt lat="39.449238113027434" lon="8.940197301654743"><ele>71.0</ele><time>2026-04-07T17:07:43Z</time></trkpt><trkpt lat="39.44929992156984" lon="8.940159379084834"><ele>71.0</ele><time>2026-04-07T17:07:44Z</time></trkpt><trkpt lat="39.44935986452385" lon="8.940122418308732"><ele>71.0</ele><time>2026-04-07T17:07:45Z</time></trkpt><trkpt lat="39.449417912144206" lon="8.940087753996666"><ele>71.0</ele><time>2026-04-07T17:07:46Z</time></trkpt><trkpt lat="39.44947548319931" lon="8.940052409939726"><ele>71.0</ele><time>2026-04-07T17:07:47Z</time></trkpt><trkpt lat="39.44959034843501" lon="8.939983659223781"><ele>71.0</ele><time>2026-04-07T17:07:49Z</time></trkpt><trkpt lat="39.449647986947824" lon="8.93994172817231"><ele>71.0</ele><time>2026-04-07T17:07:50Z</time></trkpt><trkpt lat="39.449758910488455" lon="8.939876739763042"><ele>71.0</ele><time>2026-04-07T17:07:52Z</time></trkpt><trkpt lat="39.44986696372861" lon="8.939809081506406"><ele>71.0</ele><time>2026-04-07T17:07:54Z</time></trkpt><trkpt lat="39.4499746424643" lon="8.93974012935121"><ele>71.0</ele><time>2026-04-07T17:07:56Z</time></trkpt><trkpt lat="39.45008051420872" lon="8.93967576767651"><ele>71.0</ele><time>2026-04-07T17:07:58Z</time></trkpt><trkpt lat="39.45018767001853" lon="8.939611426654073"><ele>71.0</ele><time>2026-04-07T17:08:00Z</time></trkpt><trkpt lat="39.45029358460703" lon="8.939546868566298"><ele>71.0</ele><time>2026-04-07T17:08:02Z</time></trkpt><trkpt lat="39.4503968751043" lon="8.93948588799957"><ele>71.0</ele><time>2026-04-07T17:08:04Z</time></trkpt><trkpt lat="39.45050085133046" lon="8.939417187799236"><ele>71.25</ele><time>2026-04-07T17:08:06Z</time></trkpt><trkpt lat="39.45060611238897" lon="8.93935417720802"><ele>71.5</ele><time>2026-04-07T17:08:08Z</time></trkpt><trkpt lat="39.45070773700358" lon="8.939288466913695"><ele>71.75</ele><time>2026-04-07T17:08:10Z</time></trkpt><trkpt lat="39.45081547960248" lon="8.939224728775079"><ele>72.0</ele><time>2026-04-07T17:08:12Z</time></trkpt><trkpt lat="39.45092335142122" lon="8.939163582567533"><ele>72.0</ele><time>2026-04-07T17:08:14Z</time></trkpt><trkpt lat="39.45102737488882" lon="8.939099398397826"><ele>72.0</ele><time>2026-04-07T17:08:16Z</time></trkpt><trkpt lat="39.451134975613925" lon="8.939033712480981"><ele>72.0</ele><time>2026-04-07T17:08:18Z</time></trkpt><trkpt lat="39.451242726232145" lon="8.938969733115044"><ele>72.0</ele><time>2026-04-07T17:08:20Z</time></trkpt><trkpt lat="39.45135261992872" lon="8.938900482526376"><ele>72.0</ele><time>2026-04-07T17:08:22Z</time></trkpt><trkpt lat="39.451408571901474" lon="8.938862870186261"><ele>72.0</ele><time>2026-04-07T17:08:23Z</time></trkpt><trkpt lat="39.45152774678869" lon="8.938799879043994"><ele>72.0</ele><time>2026-04-07T17:08:25Z</time></trkpt><trkpt lat="39.45158927885378" lon="8.938767052385446"><ele>72.0</ele><time>2026-04-07T17:08:26Z</time></trkpt><trkpt lat="39.45165319563201" lon="8.93873110225005"><ele>72.0</ele><time>2026-04-07T17:08:27Z</time></trkpt><trkpt lat="39.45171632815343" lon="8.938696986070413"><ele>72.0</ele><time>2026-04-07T17:08:28Z</time></trkpt><trkpt lat="39.45178067485699" lon="8.938659952215897"><ele>72.0</ele><time>2026-04-07T17:08:29Z</time></trkpt><trkpt lat="39.45184832251076" lon="8.938626432066076"><ele>72.0</ele><time>2026-04-07T17:08:30Z</time></trkpt><trkpt lat="39.4519168333905" lon="8.938589421336552"><ele>72.0</ele><time>2026-04-07T17:08:31Z</time></trkpt><trkpt lat="39.45198699228401" lon="8.938552856808508"><ele>72.0</ele><time>2026-04-07T17:08:32Z</time></trkpt><trkpt lat="39.45205958531272" lon="8.938516342157698"><ele>72.0</ele><time>2026-04-07T17:08:33Z</time></trkpt><trkpt lat="39.45213150458907" lon="8.938475005245618"><ele>72.0</ele><time>2026-04-07T17:08:34Z</time></trkpt><trkpt lat="39.45220830073736" lon="8.938430529729946"><ele>71.83333333333333</ele><time>2026-04-07T17:08:35Z</time></trkpt><trkpt lat="39.452287845793705" lon="8.938392470574025"><ele>71.66666666666667</ele><time>2026-04-07T17:08:36Z</time></trkpt><trkpt lat="39.45236596878753" lon="8.938349970069641"><ele>71.5</ele><time>2026-04-07T17:08:37Z</time></trkpt><trkpt lat="39.45244691302924" lon="8.938307733133762"><ele>71.33333333333334</ele><time>2026-04-07T17:08:38Z</time></trkpt><trkpt lat="39.4525277022956" lon="8.938266161700536"><ele>71.16666666666667</ele><time>2026-04-07T17:08:39Z</time></trkpt><trkpt lat="39.452604993316406" lon="8.938221308710594"><ele>71.0</ele><time>2026-04-07T17:08:40Z</time></trkpt><trkpt lat="39.45267661936465" lon="8.938176182897225"><ele>70.85714285714286</ele><time>2026-04-07T17:08:41Z</time></trkpt><trkpt lat="39.45274738901347" lon="8.938134477122118"><ele>70.71428571428571</ele><time>2026-04-07T17:08:42Z</time></trkpt><trkpt lat="39.45281404493146" lon="8.938094406407043"><ele>70.57142857142857</ele><time>2026-04-07T17:08:43Z</time></trkpt><trkpt lat="39.45287871912473" lon="8.93805249999281"><ele>70.42857142857143</ele><time>2026-04-07T17:08:44Z</time></trkpt><trkpt lat="39.45294072493307" lon="8.938017637228691"><ele>70.28571428571428</ele><time>2026-04-07T17:08:45Z</time></trkpt><trkpt lat="39.45300329373887" lon="8.937978448105902"><ele>70.14285714285714</ele><time>2026-04-07T17:08:46Z</time></trkpt><trkpt lat="39.45306387755058" lon="8.937939466669587"><ele>70.0</ele><time>2026-04-07T17:08:47Z</time></trkpt><trkpt lat="39.453121878693814" lon="8.937904039401547"><ele>70.0</ele><time>2026-04-07T17:08:48Z</time></trkpt><trkpt lat="39.45323249801712" lon="8.937836654442393"><ele>70.0</ele><time>2026-04-07T17:08:50Z</time></trkpt><trkpt lat="39.45333667826538" lon="8.937775655989098"><ele>70.0</ele><time>2026-04-07T17:08:52Z</time></trkpt><trkpt lat="39.45343698717582" lon="8.937709228664032"><ele>70.0</ele><time>2026-04-07T17:08:54Z</time></trkpt><trkpt lat="39.453532687953164" lon="8.93762674013092"><ele>70.0</ele><time>2026-04-07T17:08:56Z</time></trkpt><trkpt lat="39.45362544586622" lon="8.937540248814264"><ele>70.0</ele><time>2026-04-07T17:08:58Z</time></trkpt><trkpt lat="39.4537036698932" lon="8.937442834579594"><ele>70.0</ele><time>2026-04-07T17:09:00Z</time></trkpt><trkpt lat="39.45378558615736" lon="8.937344820601925"><ele>70.0</ele><time>2026-04-07T17:09:02Z</time></trkpt><trkpt lat="39.45386474476572" lon="8.937237487297018"><ele>70.0</ele><time>2026-04-07T17:09:04Z</time></trkpt><trkpt lat="39.4539388423688" lon="8.937125221907227"><ele>70.25</ele><time>2026-04-07T17:09:06Z</time></trkpt><trkpt lat="39.45402204774265" lon="8.937010957657169"><ele>70.5</ele><time>2026-04-07T17:09:08Z</time></trkpt><trkpt lat="39.454100734859516" lon="8.936895424946503"><ele>70.75</ele><time>2026-04-07T17:09:10Z</time></trkpt><trkpt lat="39.45417933019769" lon="8.936782011931031"><ele>71.0</ele><time>2026-04-07T17:09:12Z</time></trkpt><trkpt lat="39.45426062696388" lon="8.93667059372888"><ele>71.0</ele><time>2026-04-07T17:09:14Z</time></trkpt><trkpt lat="39.45433656566652" lon="8.936560612351835"><ele>71.0</ele><time>2026-04-07T17:09:16Z</time></trkpt><trkpt lat="39.45441465930518" lon="8.936446483457944"><ele>71.0</ele><time>2026-04-07T17:09:18Z</time></trkpt><trkpt lat="39.45449352296293" lon="8.93633409748337"><ele>71.0</ele><time>2026-04-07T17:09:20Z</time></trkpt><trkpt lat="39.45457258544655" lon="8.936220269741963"><ele>71.2</ele><time>2026-04-07T17:09:22Z</time></trkpt><trkpt lat="39.454652246403704" lon="8.936104382189493"><ele>71.39999999999999</ele><time>2026-04-07T17:09:24Z</time></trkpt><trkpt lat="39.45473302929346" lon="8.935989200145432"><ele>71.6</ele><time>2026-04-07T17:09:26Z</time></trkpt><trkpt lat="39.45481448578797" lon="8.9358715633186"><ele>71.8</ele><time>2026-04-07T17:09:28Z</time></trkpt><trkpt lat="39.454855433305774" lon="8.935808376613979"><ele>72.0</ele><time>2026-04-07T17:09:29Z</time></trkpt><trkpt lat="39.4549335693219" lon="8.935692774663426"><ele>72.0</ele><time>2026-04-07T17:09:31Z</time></trkpt><trkpt lat="39.45501553462314" lon="8.93557853794828"><ele>72.0</ele><time>2026-04-07T17:09:33Z</time></trkpt><trkpt lat="39.45509365275869" lon="8.935455955780194"><ele>72.0</ele><time>2026-04-07T17:09:35Z</time></trkpt><trkpt lat="39.45517642948213" lon="8.935341443325042"><ele>72.0</ele><time>2026-04-07T17:09:37Z</time></trkpt><trkpt lat="39.455260917786454" lon="8.935223992679143"><ele>72.0</ele><time>2026-04-07T17:09:39Z</time></trkpt><trkpt lat="39.45534404558567" lon="8.935100717076883"><ele>72.0</ele><time>2026-04-07T17:09:41Z</time></trkpt><trkpt lat="39.45543135219654" lon="8.934979092788343"><ele>72.0</ele><time>2026-04-07T17:09:43Z</time></trkpt><trkpt lat="39.45547404633792" lon="8.934915057898456"><ele>72.0</ele><time>2026-04-07T17:09:44Z</time></trkpt><trkpt lat="39.45555806955108" lon="8.934793027901012"><ele>72.0</ele><time>2026-04-07T17:09:46Z</time></trkpt><trkpt lat="39.4556054945095" lon="8.934724814939132"><ele>72.00000000000001</ele><time>2026-04-07T17:09:47Z</time></trkpt><trkpt lat="39.45564967429489" lon="8.934664242035655"><ele>72.0</ele><time>2026-04-07T17:09:48Z</time></trkpt><trkpt lat="39.455697130982415" lon="8.934599581420283"><ele>72.0</ele><time>2026-04-07T17:09:49Z</time></trkpt><trkpt lat="39.45574406185692" lon="8.934534015860294"><ele>72.0</ele><time>2026-04-07T17:09:50Z</time></trkpt><trkpt lat="39.455789428946055" lon="8.934465836846698"><ele>72.0</ele><time>2026-04-07T17:09:51Z</time></trkpt><trkpt lat="39.45583336147384" lon="8.934403385783288"><ele>72.00000000000001</ele><time>2026-04-07T17:09:52Z</time></trkpt><trkpt lat="39.455881170103375" lon="8.934337404093142"><ele>72.0</ele><time>2026-04-07T17:09:53Z</time></trkpt><trkpt lat="39.455927724729456" lon="8.934277471504057"><ele>71.85714285714286</ele><time>2026-04-07T17:09:54Z</time></trkpt><trkpt lat="39.455978709906056" lon="8.934206548855842"><ele>71.71428571428572</ele><time>2026-04-07T17:09:55Z</time></trkpt><trkpt lat="39.45602556515928" lon="8.93414395107438"><ele>71.57142857142857</ele><time>2026-04-07T17:09:56Z</time></trkpt><trkpt lat="39.4560746927568" lon="8.934077896581515"><ele>71.42857142857143</ele><time>2026-04-07T17:09:57Z</time></trkpt><trkpt lat="39.456120709081176" lon="8.934010703759851"><ele>71.28571428571428</ele><time>2026-04-07T17:09:58Z</time></trkpt><trkpt lat="39.456169774708606" lon="8.933945223085686"><ele>71.14285714285714</ele><time>2026-04-07T17:09:59Z</time></trkpt><trkpt lat="39.456221944993466" lon="8.93387401409992"><ele>71.0</ele><time>2026-04-07T17:10:00Z</time></trkpt><trkpt lat="39.456271955340235" lon="8.933806050444987"><ele>70.83333333333334</ele><time>2026-04-07T17:10:01Z</time></trkpt><trkpt lat="39.45632193055999" lon="8.933737183412589"><ele>70.66666666666667</ele><time>2026-04-07T17:10:02Z</time></trkpt><trkpt lat="39.45637528980419" lon="8.933665121713998"><ele>70.5</ele><time>2026-04-07T17:10:03Z</time></trkpt><trkpt lat="39.456428524355296" lon="8.933591111899752"><ele>70.33333333333333</ele><time>2026-04-07T17:10:04Z</time></trkpt><trkpt lat="39.456478649586145" lon="8.933522820892168"><ele>70.16666666666666</ele><time>2026-04-07T17:10:05Z</time></trkpt><trkpt lat="39.456529070531325" lon="8.933450869641376"><ele>70.0</ele><time>2026-04-07T17:10:06Z</time></trkpt><trkpt lat="39.45658102137573" lon="8.93338008129557"><ele>70.0</ele><time>2026-04-07T17:10:07Z</time></trkpt><trkpt lat="39.45663334851634" lon="8.933306036638688"><ele>70.0</ele><time>2026-04-07T17:10:08Z</time></trkpt><trkpt lat="39.456686285773465" lon="8.933238155571805"><ele>70.0</ele><time>2026-04-07T17:10:09Z</time></trkpt><trkpt lat="39.45673729003946" lon="8.933167709480687"><ele>70.0</ele><time>2026-04-07T17:10:10Z</time></trkpt><trkpt lat="39.456782480306664" lon="8.933099140674955"><ele>70.0</ele><time>2026-04-07T17:10:11Z</time></trkpt><trkpt lat="39.45683299837843" lon="8.93302907890269"><ele>70.0</ele><time>2026-04-07T17:10:12Z</time></trkpt><trkpt lat="39.45688195892147" lon="8.932960931254744"><ele>70.0</ele><time>2026-04-07T17:10:13Z</time></trkpt><trkpt lat="39.45693063676888" lon="8.93289494708252"><ele>70.0</ele><time>2026-04-07T17:10:14Z</time></trkpt><trkpt lat="39.456982348285" lon="8.932829007057723"><ele>70.0</ele><time>2026-04-07T17:10:15Z</time></trkpt><trkpt lat="39.45703541560871" lon="8.93276565482574"><ele>70.0</ele><time>2026-04-07T17:10:16Z</time></trkpt><trkpt lat="39.457092182880494" lon="8.932708755949353"><ele>70.0</ele><time>2026-04-07T17:10:17Z</time></trkpt><trkpt lat="39.457154625979065" lon="8.932662618973195"><ele>70.0</ele><time>2026-04-07T17:10:18Z</time></trkpt><trkpt lat="39.45721908530662" lon="8.932619685327081"><ele>70.0</ele><time>2026-04-07T17:10:19Z</time></trkpt><trkpt lat="39.45728417989601" lon="8.932579533356522"><ele>70.0</ele><time>2026-04-07T17:10:20Z</time></trkpt><trkpt lat="39.45734892846514" lon="8.93254712219522"><ele>69.71428571428571</ele><time>2026-04-07T17:10:21Z</time></trkpt><trkpt lat="39.45741668731083" lon="8.932520663454314"><ele>69.42857142857143</ele><time>2026-04-07T17:10:22Z</time></trkpt><trkpt lat="39.457485927242985" lon="8.932503453935896"><ele>69.14285714285714</ele><time>2026-04-07T17:10:23Z</time></trkpt><trkpt lat="39.45755583661923" lon="8.932492615969062"><ele>68.85714285714286</ele><time>2026-04-07T17:10:24Z</time></trkpt><trkpt lat="39.45762667951939" lon="8.932492432888852"><ele>68.57142857142857</ele><time>2026-04-07T17:10:25Z</time></trkpt><trkpt lat="39.45769785711305" lon="8.932495360377455"><ele>68.28571428571428</ele><time>2026-04-07T17:10:26Z</time></trkpt><trkpt lat="39.45776806795568" lon="8.932503440663034"><ele>68.0</ele><time>2026-04-07T17:10:27Z</time></trkpt><trkpt lat="39.45783827936547" lon="8.932514987328167"><ele>67.99999999999999</ele><time>2026-04-07T17:10:28Z</time></trkpt><trkpt lat="39.45790539046317" lon="8.932537736030095"><ele>68.0</ele><time>2026-04-07T17:10:29Z</time></trkpt><trkpt lat="39.45797473504196" lon="8.932555516913638"><ele>68.0</ele><time>2026-04-07T17:10:30Z</time></trkpt><trkpt lat="39.4580429373034" lon="8.932572709088193"><ele>68.0</ele><time>2026-04-07T17:10:31Z</time></trkpt><trkpt lat="39.458109066976306" lon="8.932591149150838"><ele>68.0</ele><time>2026-04-07T17:10:32Z</time></trkpt><trkpt lat="39.45817665181854" lon="8.932612251456167"><ele>67.99999999999999</ele><time>2026-04-07T17:10:33Z</time></trkpt><trkpt lat="39.45824454478585" lon="8.932633216519102"><ele>68.0</ele><time>2026-04-07T17:10:34Z</time></trkpt><trkpt lat="39.45831349071229" lon="8.932649507595688"><ele>68.28571428571428</ele><time>2026-04-07T17:10:35Z</time></trkpt><trkpt lat="39.458378224606854" lon="8.932670145831716"><ele>68.57142857142857</ele><time>2026-04-07T17:10:36Z</time></trkpt><trkpt lat="39.45844736621645" lon="8.932688704724661"><ele>68.85714285714286</ele><time>2026-04-07T17:10:37Z</time></trkpt><trkpt lat="39.45851597391315" lon="8.932705218673"><ele>69.14285714285714</ele><time>2026-04-07T17:10:38Z</time></trkpt><trkpt lat="39.45858235446314" lon="8.93272651718191"><ele>69.42857142857143</ele><time>2026-04-07T17:10:39Z</time></trkpt><trkpt lat="39.45864929343781" lon="8.93274567084088"><ele>69.71428571428571</ele><time>2026-04-07T17:10:40Z</time></trkpt><trkpt lat="39.458715760255195" lon="8.93276185390615"><ele>70.0</ele><time>2026-04-07T17:10:41Z</time></trkpt><trkpt lat="39.458781713746994" lon="8.932780919159093"><ele>70.14285714285714</ele><time>2026-04-07T17:10:42Z</time></trkpt><trkpt lat="39.45884786929722" lon="8.932800796084766"><ele>70.28571428571428</ele><time>2026-04-07T17:10:43Z</time></trkpt><trkpt lat="39.45891165083862" lon="8.932817752108202"><ele>70.42857142857143</ele><time>2026-04-07T17:10:44Z</time></trkpt><trkpt lat="39.4589758429922" lon="8.93283558106398"><ele>70.57142857142857</ele><time>2026-04-07T17:10:45Z</time></trkpt><trkpt lat="39.45903947020153" lon="8.93285312838122"><ele>70.71428571428571</ele><time>2026-04-07T17:10:46Z</time></trkpt><trkpt lat="39.45910254942341" lon="8.932873729720798"><ele>70.85714285714286</ele><time>2026-04-07T17:10:47Z</time></trkpt><trkpt lat="39.45916648780249" lon="8.932891892798425"><ele>71.0</ele><time>2026-04-07T17:10:48Z</time></trkpt><trkpt lat="39.459229725100215" lon="8.93290960009973"><ele>71.0</ele><time>2026-04-07T17:10:49Z</time></trkpt><trkpt lat="39.45935386672328" lon="8.932945298485915"><ele>71.0</ele><time>2026-04-07T17:10:51Z</time></trkpt><trkpt lat="39.45941767196611" lon="8.9329632319356"><ele>71.0</ele><time>2026-04-07T17:10:52Z</time></trkpt><trkpt lat="39.45948009272379" lon="8.932979981805826"><ele>71.0</ele><time>2026-04-07T17:10:53Z</time></trkpt><trkpt lat="39.45954245400261" lon="8.932998667799385"><ele>71.0</ele><time>2026-04-07T17:10:54Z</time></trkpt><trkpt lat="39.45960571950977" lon="8.933014278255682"><ele>71.0</ele><time>2026-04-07T17:10:55Z</time></trkpt><trkpt lat="39.459668108689776" lon="8.933032017347728"><ele>71.0</ele><time>2026-04-07T17:10:56Z</time></trkpt><trkpt lat="39.45972760261114" lon="8.933060174325377"><ele>71.0</ele><time>2026-04-07T17:10:57Z</time></trkpt><trkpt lat="39.459788304870216" lon="8.933087221797779"><ele>71.0</ele><time>2026-04-07T17:10:58Z</time></trkpt><trkpt lat="39.45984701517115" lon="8.933118240048405"><ele>71.0</ele><time>2026-04-07T17:10:59Z</time></trkpt><trkpt lat="39.45990752257148" lon="8.933153312370901"><ele>71.0</ele><time>2026-04-07T17:11:00Z</time></trkpt><trkpt lat="39.460013725529095" lon="8.933230044384173"><ele>71.0</ele><time>2026-04-07T17:11:02Z</time></trkpt><trkpt lat="39.460117440776806" lon="8.933320014400342"><ele>71.0</ele><time>2026-04-07T17:11:04Z</time></trkpt><trkpt lat="39.460214092038115" lon="8.933418948760883"><ele>71.0</ele><time>2026-04-07T17:11:06Z</time></trkpt><trkpt lat="39.46030671765858" lon="8.933509457248395"><ele>71.0</ele><time>2026-04-07T17:11:08Z</time></trkpt><trkpt lat="39.460398552316846" lon="8.933604292599064"><ele>71.0</ele><time>2026-04-07T17:11:10Z</time></trkpt><trkpt lat="39.46048876194067" lon="8.933694962798727"><ele>71.0</ele><time>2026-04-07T17:11:12Z</time></trkpt><trkpt lat="39.46057394369728" lon="8.933777962826161"><ele>71.2</ele><time>2026-04-07T17:11:14Z</time></trkpt><trkpt lat="39.46065831201992" lon="8.933863349712054"><ele>71.39999999999999</ele><time>2026-04-07T17:11:16Z</time></trkpt><trkpt lat="39.46074056487173" lon="8.933948721651099"><ele>71.6</ele><time>2026-04-07T17:11:18Z</time></trkpt><trkpt lat="39.46082227182662" lon="8.934033203119174"><ele>71.8</ele><time>2026-04-07T17:11:20Z</time></trkpt><trkpt lat="39.46090224512227" lon="8.934115043045452"><ele>72.0</ele><time>2026-04-07T17:11:22Z</time></trkpt><trkpt lat="39.4609807299316" lon="8.934197799504592"><ele>72.2</ele><time>2026-04-07T17:11:24Z</time></trkpt><trkpt lat="39.46106179038794" lon="8.934276508428786"><ele>72.4</ele><time>2026-04-07T17:11:26Z</time></trkpt><trkpt lat="39.46113946684605" lon="8.93435846695388"><ele>72.6</ele><time>2026-04-07T17:11:28Z</time></trkpt><trkpt lat="39.461216892529215" lon="8.93444081512121"><ele>72.8</ele><time>2026-04-07T17:11:30Z</time></trkpt><trkpt lat="39.4612941200546" lon="8.934517595067135"><ele>73.0</ele><time>2026-04-07T17:11:32Z</time></trkpt><trkpt lat="39.46137278648933" lon="8.934595445917353"><ele>73.0</ele><time>2026-04-07T17:11:34Z</time></trkpt><trkpt lat="39.46144961601119" lon="8.934676449036735"><ele>73.0</ele><time>2026-04-07T17:11:36Z</time></trkpt><trkpt lat="39.46152574942868" lon="8.934750326204927"><ele>73.0</ele><time>2026-04-07T17:11:38Z</time></trkpt><trkpt lat="39.46160156484554" lon="8.934829852551475"><ele>73.0</ele><time>2026-04-07T17:11:40Z</time></trkpt><trkpt lat="39.46168217535032" lon="8.934906554135805"><ele>73.0</ele><time>2026-04-07T17:11:42Z</time></trkpt><trkpt lat="39.46175917067167" lon="8.934986622502471"><ele>73.0</ele><time>2026-04-07T17:11:44Z</time></trkpt><trkpt lat="39.46183424406781" lon="8.935066856906628"><ele>73.0</ele><time>2026-04-07T17:11:46Z</time></trkpt><trkpt lat="39.4619131773325" lon="8.935143872888446"><ele>73.0</ele><time>2026-04-07T17:11:48Z</time></trkpt><trkpt lat="39.46199213284897" lon="8.935222186879665"><ele>73.0</ele><time>2026-04-07T17:11:50Z</time></trkpt><trkpt lat="39.46206931660063" lon="8.935293725375622"><ele>73.0</ele><time>2026-04-07T17:11:52Z</time></trkpt><trkpt lat="39.46214199677279" lon="8.935374281046414"><ele>73.0</ele><time>2026-04-07T17:11:54Z</time></trkpt><trkpt lat="39.46220910864417" lon="8.935444193440583"><ele>73.0</ele><time>2026-04-07T17:11:56Z</time></trkpt><trkpt lat="39.46228145172524" lon="8.93551943479411"><ele>73.0</ele><time>2026-04-07T17:11:58Z</time></trkpt><trkpt lat="39.462344758720455" lon="8.935587414190143"><ele>73.0</ele><time>2026-04-07T17:12:00Z</time></trkpt><trkpt lat="39.46242252029543" lon="8.935661279284316"><ele>73.0</ele><time>2026-04-07T17:12:02Z</time></trkpt><trkpt lat="39.4624852728873" lon="8.935733952985876"><ele>73.0</ele><time>2026-04-07T17:12:04Z</time></trkpt><trkpt lat="39.462558780375076" lon="8.935806310464883"><ele>73.0</ele><time>2026-04-07T17:12:06Z</time></trkpt><trkpt lat="39.4626260949872" lon="8.935879655748254"><ele>73.0</ele><time>2026-04-07T17:12:08Z</time></trkpt><trkpt lat="39.462694882127714" lon="8.935950861240327"><ele>73.0</ele><time>2026-04-07T17:12:10Z</time></trkpt><trkpt lat="39.46275988932255" lon="8.93602262078874"><ele>73.0</ele><time>2026-04-07T17:12:12Z</time></trkpt><trkpt lat="39.462834365045495" lon="8.936097798160278"><ele>73.0</ele><time>2026-04-07T17:12:14Z</time></trkpt><trkpt lat="39.46290676819061" lon="8.936177251324088"><ele>73.2</ele><time>2026-04-07T17:12:16Z</time></trkpt><trkpt lat="39.462973183278244" lon="8.936252220256238"><ele>73.4</ele><time>2026-04-07T17:12:18Z</time></trkpt><trkpt lat="39.46305034751606" lon="8.936331680107827"><ele>73.60000000000001</ele><time>2026-04-07T17:12:20Z</time></trkpt><trkpt lat="39.46312653179107" lon="8.936419673837728"><ele>73.8</ele><time>2026-04-07T17:12:22Z</time></trkpt><trkpt lat="39.46320778853257" lon="8.936507094494944"><ele>74.0</ele><time>2026-04-07T17:12:24Z</time></trkpt><trkpt lat="39.46328666873598" lon="8.936596441260098"><ele>74.0</ele><time>2026-04-07T17:12:26Z</time></trkpt><trkpt lat="39.46337160194385" lon="8.93668484852653"><ele>74.0</ele><time>2026-04-07T17:12:28Z</time></trkpt><trkpt lat="39.46345284715542" lon="8.936775348180925"><ele>74.0</ele><time>2026-04-07T17:12:30Z</time></trkpt><trkpt lat="39.46353076702145" lon="8.936864202128307"><ele>74.0</ele><time>2026-04-07T17:12:32Z</time></trkpt><trkpt lat="39.46361079990043" lon="8.936952518768173"><ele>74.0</ele><time>2026-04-07T17:12:34Z</time></trkpt><trkpt lat="39.46369489975274" lon="8.937042032847174"><ele>74.2</ele><time>2026-04-07T17:12:36Z</time></trkpt><trkpt lat="39.46377553661955" lon="8.937131230060539"><ele>74.4</ele><time>2026-04-07T17:12:38Z</time></trkpt><trkpt lat="39.46385891537338" lon="8.937222827415829"><ele>74.6</ele><time>2026-04-07T17:12:40Z</time></trkpt><trkpt lat="39.46393887637352" lon="8.937316673868756"><ele>74.8</ele><time>2026-04-07T17:12:42Z</time></trkpt><trkpt lat="39.46402006524062" lon="8.937408271550636"><ele>75.0</ele><time>2026-04-07T17:12:44Z</time></trkpt><trkpt lat="39.46410665373441" lon="8.937504518898786"><ele>75.0</ele><time>2026-04-07T17:12:46Z</time></trkpt><trkpt lat="39.46419525743633" lon="8.93760572708752"><ele>75.0</ele><time>2026-04-07T17:12:48Z</time></trkpt><trkpt lat="39.46424292845605" lon="8.9376606941985"><ele>75.0</ele><time>2026-04-07T17:12:49Z</time></trkpt><trkpt lat="39.464292842273245" lon="8.937719843754788"><ele>75.0</ele><time>2026-04-07T17:12:50Z</time></trkpt><trkpt lat="39.464345612361775" lon="8.937782523287035"><ele>75.0</ele><time>2026-04-07T17:12:51Z</time></trkpt><trkpt lat="39.464400214918044" lon="8.93784373079417"><ele>75.0</ele><time>2026-04-07T17:12:52Z</time></trkpt><trkpt lat="39.46445494251228" lon="8.93790863654851"><ele>75.0</ele><time>2026-04-07T17:12:53Z</time></trkpt><trkpt lat="39.46451008991378" lon="8.937975041060358"><ele>75.0</ele><time>2026-04-07T17:12:54Z</time></trkpt><trkpt lat="39.46456760363771" lon="8.938044670801611"><ele>75.0</ele><time>2026-04-07T17:12:55Z</time></trkpt><trkpt lat="39.46462545174532" lon="8.938109516798328"><ele>75.0</ele><time>2026-04-07T17:12:56Z</time></trkpt><trkpt lat="39.464679504611894" lon="8.938174574290077"><ele>75.0</ele><time>2026-04-07T17:12:57Z</time></trkpt><trkpt lat="39.464737006539075" lon="8.938240235806719"><ele>75.0</ele><time>2026-04-07T17:12:58Z</time></trkpt><trkpt lat="39.464788277353165" lon="8.938305112073799"><ele>74.71428571428571</ele><time>2026-04-07T17:12:59Z</time></trkpt><trkpt lat="39.46484473394898" lon="8.938370751102381"><ele>74.42857142857143</ele><time>2026-04-07T17:13:00Z</time></trkpt><trkpt lat="39.46490047006485" lon="8.9384337171891"><ele>74.14285714285714</ele><time>2026-04-07T17:13:01Z</time></trkpt><trkpt lat="39.46495558078201" lon="8.93849761912663"><ele>73.85714285714286</ele><time>2026-04-07T17:13:02Z</time></trkpt><trkpt lat="39.46501066314297" lon="8.93855308213764"><ele>73.57142857142857</ele><time>2026-04-07T17:13:03Z</time></trkpt><trkpt lat="39.46506023248815" lon="8.938620119025508"><ele>73.28571428571428</ele><time>2026-04-07T17:13:04Z</time></trkpt><trkpt lat="39.46511275611362" lon="8.938676211843559"><ele>73.0</ele><time>2026-04-07T17:13:05Z</time></trkpt><trkpt lat="39.46516459168427" lon="8.93873252428552"><ele>73.0</ele><time>2026-04-07T17:13:06Z</time></trkpt><trkpt lat="39.465216506945076" lon="8.938783678452651"><ele>73.0</ele><time>2026-04-07T17:13:07Z</time></trkpt><trkpt lat="39.4653133656708" lon="8.93888348759276"><ele>73.0</ele><time>2026-04-07T17:13:09Z</time></trkpt><trkpt lat="39.465404226688904" lon="8.93897951188175"><ele>73.0</ele><time>2026-04-07T17:13:11Z</time></trkpt><trkpt lat="39.465496758528865" lon="8.939067839229262"><ele>73.0</ele><time>2026-04-07T17:13:13Z</time></trkpt><trkpt lat="39.46559201338789" lon="8.939151761674022"><ele>73.33333333333333</ele><time>2026-04-07T17:13:15Z</time></trkpt><trkpt lat="39.46569473264443" lon="8.939229517124584"><ele>73.66666666666666</ele><time>2026-04-07T17:13:17Z</time></trkpt><trkpt lat="39.46581206639582" lon="8.939285343063133"><ele>74.0</ele><time>2026-04-07T17:13:19Z</time></trkpt><trkpt lat="39.46587434644668" lon="8.939305830278592"><ele>74.33333333333333</ele><time>2026-04-07T17:13:20Z</time></trkpt><trkpt lat="39.46593875120894" lon="8.939324895526783"><ele>74.66666666666667</ele><time>2026-04-07T17:13:21Z</time></trkpt><trkpt lat="39.46601282251471" lon="8.939329733640912"><ele>75.0</ele><time>2026-04-07T17:13:22Z</time></trkpt><trkpt lat="39.466083432325895" lon="8.93933625936417"><ele>74.99999999999999</ele><time>2026-04-07T17:13:23Z</time></trkpt><trkpt lat="39.466151444957994" lon="8.939339371367863"><ele>75.0</ele><time>2026-04-07T17:13:24Z</time></trkpt><trkpt lat="39.46622274763035" lon="8.939339088925768"><ele>75.0</ele><time>2026-04-07T17:13:25Z</time></trkpt><trkpt lat="39.46629425097205" lon="8.93934289820736"><ele>75.0</ele><time>2026-04-07T17:13:26Z</time></trkpt><trkpt lat="39.4663624564031" lon="8.939344920356339"><ele>75.0</ele><time>2026-04-07T17:13:27Z</time></trkpt><trkpt lat="39.466432906170326" lon="8.939341876442928"><ele>74.99999999999999</ele><time>2026-04-07T17:13:28Z</time></trkpt><trkpt lat="39.46650658570001" lon="8.939341316403697"><ele>75.0</ele><time>2026-04-07T17:13:29Z</time></trkpt><trkpt lat="39.466577397875966" lon="8.939341508874199"><ele>74.42857142857142</ele><time>2026-04-07T17:13:30Z</time></trkpt><trkpt lat="39.466647393285015" lon="8.939342594842692"><ele>73.85714285714286</ele><time>2026-04-07T17:13:31Z</time></trkpt><trkpt lat="39.46671991838708" lon="8.939342497750005"><ele>73.28571428571428</ele><time>2026-04-07T17:13:32Z</time></trkpt><trkpt lat="39.46679301204178" lon="8.939343105096615"><ele>72.71428571428571</ele><time>2026-04-07T17:13:33Z</time></trkpt><trkpt lat="39.46686559518419" lon="8.93933728888283"><ele>72.14285714285714</ele><time>2026-04-07T17:13:34Z</time></trkpt><trkpt lat="39.466940874019265" lon="8.939335803273192"><ele>71.57142857142857</ele><time>2026-04-07T17:13:35Z</time></trkpt><trkpt lat="39.467007900530945" lon="8.939335083951656"><ele>71.0</ele><time>2026-04-07T17:13:36Z</time></trkpt><trkpt lat="39.4670843740966" lon="8.939335279084128"><ele>70.66666666666667</ele><time>2026-04-07T17:13:37Z</time></trkpt><trkpt lat="39.46715289160258" lon="8.939336131013128"><ele>70.33333333333334</ele><time>2026-04-07T17:13:38Z</time></trkpt><trkpt lat="39.46722681180325" lon="8.939331299920218"><ele>70.0</ele><time>2026-04-07T17:13:39Z</time></trkpt><trkpt lat="39.46729009755553" lon="8.939336920968591"><ele>69.66666666666667</ele><time>2026-04-07T17:13:40Z</time></trkpt><trkpt lat="39.46735504649421" lon="8.9393312979632"><ele>69.33333333333333</ele><time>2026-04-07T17:13:41Z</time></trkpt><trkpt lat="39.46747747780615" lon="8.939327868147787"><ele>69.0</ele><time>2026-04-07T17:13:43Z</time></trkpt><trkpt lat="39.46759883391318" lon="8.939315471614583"><ele>69.0</ele><time>2026-04-07T17:13:45Z</time></trkpt><trkpt lat="39.46771245527731" lon="8.939307320286462"><ele>69.0</ele><time>2026-04-07T17:13:47Z</time></trkpt><trkpt lat="39.467819173009346" lon="8.939286385788634"><ele>69.0</ele><time>2026-04-07T17:13:49Z</time></trkpt><trkpt lat="39.46792481329046" lon="8.939258804852669"><ele>69.0</ele><time>2026-04-07T17:13:51Z</time></trkpt><trkpt lat="39.4680246365307" lon="8.939214837301554"><ele>69.0</ele><time>2026-04-07T17:13:53Z</time></trkpt><trkpt lat="39.468120531746784" lon="8.939156944394878"><ele>69.8</ele><time>2026-04-07T17:13:55Z</time></trkpt><trkpt lat="39.46820416626451" lon="8.939078657674015"><ele>70.60000000000001</ele><time>2026-04-07T17:13:57Z</time></trkpt><trkpt lat="39.46828578768552" lon="8.938989003642842"><ele>71.4</ele><time>2026-04-07T17:13:59Z</time></trkpt><trkpt lat="39.46836182379048" lon="8.938885789270495"><ele>72.2</ele><time>2026-04-07T17:14:01Z</time></trkpt><trkpt lat="39.46843479123483" lon="8.938776260103161"><ele>73.0</ele><time>2026-04-07T17:14:03Z</time></trkpt><trkpt lat="39.46850777223029" lon="8.938673176892577"><ele>73.0</ele><time>2026-04-07T17:14:05Z</time></trkpt><trkpt lat="39.468580270336965" lon="8.93856285241423"><ele>73.0</ele><time>2026-04-07T17:14:07Z</time></trkpt><trkpt lat="39.46865100758048" lon="8.93845162365243"><ele>73.0</ele><time>2026-04-07T17:14:09Z</time></trkpt><trkpt lat="39.46872456008691" lon="8.938339071524586"><ele>73.0</ele><time>2026-04-07T17:14:11Z</time></trkpt><trkpt lat="39.468798142654016" lon="8.93823388394735"><ele>73.0</ele><time>2026-04-07T17:14:13Z</time></trkpt><trkpt lat="39.46886940417522" lon="8.93812479651928"><ele>73.2</ele><time>2026-04-07T17:14:15Z</time></trkpt><trkpt lat="39.468942366302166" lon="8.938018423393085"><ele>73.4</ele><time>2026-04-07T17:14:17Z</time></trkpt><trkpt lat="39.469014068832" lon="8.9379077529693"><ele>73.60000000000001</ele><time>2026-04-07T17:14:19Z</time></trkpt><trkpt lat="39.469084074572635" lon="8.937801610201198"><ele>73.8</ele><time>2026-04-07T17:14:21Z</time></trkpt><trkpt lat="39.46915632926365" lon="8.937697307351646"><ele>74.0</ele><time>2026-04-07T17:14:23Z</time></trkpt><trkpt lat="39.46922920924199" lon="8.937587484941524"><ele>73.8</ele><time>2026-04-07T17:14:25Z</time></trkpt><trkpt lat="39.469302312442316" lon="8.937474769307832"><ele>73.60000000000001</ele><time>2026-04-07T17:14:27Z</time></trkpt><trkpt lat="39.469376601858706" lon="8.937367959266824"><ele>73.4</ele><time>2026-04-07T17:14:29Z</time></trkpt><trkpt lat="39.46944982905283" lon="8.937258827175699"><ele>73.2</ele><time>2026-04-07T17:14:31Z</time></trkpt><trkpt lat="39.469522889110166" lon="8.93714863262851"><ele>73.0</ele><time>2026-04-07T17:14:33Z</time></trkpt><trkpt lat="39.46959737663161" lon="8.937035634608609"><ele>73.25</ele><time>2026-04-07T17:14:35Z</time></trkpt><trkpt lat="39.46967403614456" lon="8.936927786833207"><ele>73.5</ele><time>2026-04-07T17:14:37Z</time></trkpt><trkpt lat="39.46975159492583" lon="8.936816665109976"><ele>73.75</ele><time>2026-04-07T17:14:39Z</time></trkpt><trkpt lat="39.469828690230706" lon="8.93670656719341"><ele>74.0</ele><time>2026-04-07T17:14:41Z</time></trkpt><trkpt lat="39.46990829327878" lon="8.936595256995082"><ele>74.0</ele><time>2026-04-07T17:14:43Z</time></trkpt><trkpt lat="39.469987474484974" lon="8.936480700523555"><ele>74.0</ele><time>2026-04-07T17:14:45Z</time></trkpt><trkpt lat="39.470067648395066" lon="8.936364676002208"><ele>74.0</ele><time>2026-04-07T17:14:47Z</time></trkpt><trkpt lat="39.470113141379386" lon="8.936308064121837"><ele>74.0</ele><time>2026-04-07T17:14:48Z</time></trkpt><trkpt lat="39.47019929078703" lon="8.936188377409573"><ele>74.0</ele><time>2026-04-07T17:14:50Z</time></trkpt><trkpt lat="39.47024371456076" lon="8.93612076179471"><ele>74.0</ele><time>2026-04-07T17:14:51Z</time></trkpt><trkpt lat="39.47029229796398" lon="8.936055431411658"><ele>74.0</ele><time>2026-04-07T17:14:52Z</time></trkpt><trkpt lat="39.47034522748417" lon="8.935984842351921"><ele>74.0</ele><time>2026-04-07T17:14:53Z</time></trkpt><trkpt lat="39.47039543580501" lon="8.935908109526627"><ele>74.0</ele><time>2026-04-07T17:14:54Z</time></trkpt><trkpt lat="39.47045077105972" lon="8.935832376210659"><ele>74.0</ele><time>2026-04-07T17:14:55Z</time></trkpt><trkpt lat="39.47050715874889" lon="8.935756497739991"><ele>74.0</ele><time>2026-04-07T17:14:56Z</time></trkpt><trkpt lat="39.470563233503185" lon="8.935679043924862"><ele>73.5</ele><time>2026-04-07T17:14:57Z</time></trkpt><trkpt lat="39.47061655675199" lon="8.935599990056902"><ele>73.0</ele><time>2026-04-07T17:14:58Z</time></trkpt><trkpt lat="39.47067378470569" lon="8.935521956748687"><ele>72.5</ele><time>2026-04-07T17:14:59Z</time></trkpt><trkpt lat="39.47073370920022" lon="8.935446182990242"><ele>72.0</ele><time>2026-04-07T17:15:00Z</time></trkpt><trkpt lat="39.47079210363094" lon="8.935371766409853"><ele>71.5</ele><time>2026-04-07T17:15:01Z</time></trkpt><trkpt lat="39.47084618504184" lon="8.935296978411413"><ele>71.0</ele><time>2026-04-07T17:15:02Z</time></trkpt><trkpt lat="39.470899207569566" lon="8.935223172269314"><ele>71.0</ele><time>2026-04-07T17:15:03Z</time></trkpt><trkpt lat="39.470953163793006" lon="8.935146451879044"><ele>71.0</ele><time>2026-04-07T17:15:04Z</time></trkpt><trkpt lat="39.471006296619265" lon="8.93507281887364"><ele>71.0</ele><time>2026-04-07T17:15:05Z</time></trkpt><trkpt lat="39.471053619256054" lon="8.935001400683316"><ele>71.0</ele><time>2026-04-07T17:15:06Z</time></trkpt><trkpt lat="39.471099818226755" lon="8.934930732099922"><ele>71.0</ele><time>2026-04-07T17:15:07Z</time></trkpt><trkpt lat="39.47114707147756" lon="8.93486141831204"><ele>71.0</ele><time>2026-04-07T17:15:08Z</time></trkpt><trkpt lat="39.4711902432754" lon="8.934796983443212"><ele>71.0</ele><time>2026-04-07T17:15:09Z</time></trkpt><trkpt lat="39.47123259193772" lon="8.934734171377208"><ele>70.8</ele><time>2026-04-07T17:15:10Z</time></trkpt><trkpt lat="39.47127279178981" lon="8.934669240427668"><ele>70.6</ele><time>2026-04-07T17:15:11Z</time></trkpt><trkpt lat="39.47135014756639" lon="8.934545480302717"><ele>70.4</ele><time>2026-04-07T17:15:13Z</time></trkpt><trkpt lat="39.4714299020736" lon="8.934429698607495"><ele>70.2</ele><time>2026-04-07T17:15:15Z</time></trkpt><trkpt lat="39.47150512099156" lon="8.93430952909018"><ele>70.0</ele><time>2026-04-07T17:15:17Z</time></trkpt><trkpt lat="39.4715805490886" lon="8.934192602780042"><ele>70.6</ele><time>2026-04-07T17:15:19Z</time></trkpt><trkpt lat="39.471650569528684" lon="8.934079682199304"><ele>71.2</ele><time>2026-04-07T17:15:21Z</time></trkpt><trkpt lat="39.47172042310361" lon="8.93396834728775"><ele>71.8</ele><time>2026-04-07T17:15:23Z</time></trkpt><trkpt lat="39.47179107333868" lon="8.933860464958642"><ele>72.4</ele><time>2026-04-07T17:15:25Z</time></trkpt><trkpt lat="39.47185787538307" lon="8.933753654972298"><ele>73.0</ele><time>2026-04-07T17:15:27Z</time></trkpt><trkpt lat="39.471925958069185" lon="8.933650377294335"><ele>73.0</ele><time>2026-04-07T17:15:29Z</time></trkpt><trkpt lat="39.471990172111106" lon="8.933548243259983"><ele>73.0</ele><time>2026-04-07T17:15:31Z</time></trkpt><trkpt lat="39.47205572767211" lon="8.933445556335501"><ele>73.0</ele><time>2026-04-07T17:15:33Z</time></trkpt><trkpt lat="39.47212370371862" lon="8.933338338706722"><ele>73.0</ele><time>2026-04-07T17:15:35Z</time></trkpt><trkpt lat="39.47218930417234" lon="8.933235702869533"><ele>73.0</ele><time>2026-04-07T17:15:37Z</time></trkpt><trkpt lat="39.47226074372951" lon="8.93313164565632"><ele>73.4</ele><time>2026-04-07T17:15:39Z</time></trkpt><trkpt lat="39.47233004837007" lon="8.933019061869613"><ele>73.8</ele><time>2026-04-07T17:15:41Z</time></trkpt><trkpt lat="39.47240420777334" lon="8.932912066565038"><ele>74.2</ele><time>2026-04-07T17:15:43Z</time></trkpt><trkpt lat="39.47247463167754" lon="8.932801002850834"><ele>74.6</ele><time>2026-04-07T17:15:45Z</time></trkpt><trkpt lat="39.47254815479621" lon="8.93269487746604"><ele>75.0</ele><time>2026-04-07T17:15:47Z</time></trkpt><trkpt lat="39.47261961256351" lon="8.932590970793845"><ele>75.0</ele><time>2026-04-07T17:15:49Z</time></trkpt><trkpt lat="39.47269179573302" lon="8.932481813300495"><ele>75.0</ele><time>2026-04-07T17:15:51Z</time></trkpt><trkpt lat="39.4727651578071" lon="8.932379038812316"><ele>75.0</ele><time>2026-04-07T17:15:53Z</time></trkpt><trkpt lat="39.47283687834748" lon="8.932268374181064"><ele>75.0</ele><time>2026-04-07T17:15:55Z</time></trkpt><trkpt lat="39.47290582874611" lon="8.93216600645573"><ele>75.0</ele><time>2026-04-07T17:15:57Z</time></trkpt><trkpt lat="39.47298152533843" lon="8.932055742059008"><ele>75.0</ele><time>2026-04-07T17:15:59Z</time></trkpt><trkpt lat="39.47305041877934" lon="8.931950779924959"><ele>75.0</ele><time>2026-04-07T17:16:01Z</time></trkpt><trkpt lat="39.473121371470434" lon="8.931839211361892"><ele>75.0</ele><time>2026-04-07T17:16:03Z</time></trkpt><trkpt lat="39.473189711364306" lon="8.93173802996402"><ele>75.0</ele><time>2026-04-07T17:16:05Z</time></trkpt><trkpt lat="39.47326125246682" lon="8.931637087722267"><ele>75.0</ele><time>2026-04-07T17:16:07Z</time></trkpt><trkpt lat="39.4733285834254" lon="8.931534841192814"><ele>75.4</ele><time>2026-04-07T17:16:09Z</time></trkpt><trkpt lat="39.47339783057568" lon="8.931439592104107"><ele>75.8</ele><time>2026-04-07T17:16:11Z</time></trkpt><trkpt lat="39.473462316463625" lon="8.9313399384446"><ele>76.2</ele><time>2026-04-07T17:16:13Z</time></trkpt><trkpt lat="39.473531731205355" lon="8.931238277676014"><ele>76.6</ele><time>2026-04-07T17:16:15Z</time></trkpt><trkpt lat="39.47359594814362" lon="8.931138785083707"><ele>77.0</ele><time>2026-04-07T17:16:17Z</time></trkpt><trkpt lat="39.4736628351852" lon="8.931045887915731"><ele>77.0</ele><time>2026-04-07T17:16:19Z</time></trkpt><trkpt lat="39.473734298448186" lon="8.930946095771459"><ele>77.0</ele><time>2026-04-07T17:16:21Z</time></trkpt><trkpt lat="39.47380616597382" lon="8.930842003480077"><ele>77.0</ele><time>2026-04-07T17:16:23Z</time></trkpt><trkpt lat="39.47388335338891" lon="8.93073500696642"><ele>77.0</ele><time>2026-04-07T17:16:25Z</time></trkpt><trkpt lat="39.47396505568895" lon="8.930626118212578"><ele>77.0</ele><time>2026-04-07T17:16:27Z</time></trkpt><trkpt lat="39.47404944388508" lon="8.93051345366183"><ele>77.0</ele><time>2026-04-07T17:16:29Z</time></trkpt><trkpt lat="39.4740938913244" lon="8.93045322327923"><ele>77.0</ele><time>2026-04-07T17:16:30Z</time></trkpt><trkpt lat="39.47417938068616" lon="8.930336742754422"><ele>77.0</ele><time>2026-04-07T17:16:32Z</time></trkpt><trkpt lat="39.474268266814114" lon="8.930219478856545"><ele>77.0</ele><time>2026-04-07T17:16:34Z</time></trkpt><trkpt lat="39.474315520750494" lon="8.93015851131215"><ele>77.0</ele><time>2026-04-07T17:16:35Z</time></trkpt><trkpt lat="39.474368389911895" lon="8.930091356598693"><ele>76.83333333333334</ele><time>2026-04-07T17:16:36Z</time></trkpt><trkpt lat="39.47442304102837" lon="8.930023999075054"><ele>76.66666666666667</ele><time>2026-04-07T17:16:37Z</time></trkpt><trkpt lat="39.47448126475696" lon="8.929947112417365"><ele>76.5</ele><time>2026-04-07T17:16:38Z</time></trkpt><trkpt lat="39.47454225348922" lon="8.92986726698952"><ele>76.33333333333333</ele><time>2026-04-07T17:16:39Z</time></trkpt><trkpt lat="39.474608741807714" lon="8.929785133586984"><ele>76.16666666666666</ele><time>2026-04-07T17:16:40Z</time></trkpt><trkpt lat="39.47468527595794" lon="8.929694377764621"><ele>76.0</ele><time>2026-04-07T17:16:41Z</time></trkpt><trkpt lat="39.47476717764002" lon="8.92959783792283"><ele>74.75</ele><time>2026-04-07T17:16:42Z</time></trkpt><trkpt lat="39.47484872401198" lon="8.929491642282882"><ele>73.5</ele><time>2026-04-07T17:16:43Z</time></trkpt><trkpt lat="39.474934460369404" lon="8.929377731455196"><ele>72.25</ele><time>2026-04-07T17:16:44Z</time></trkpt><trkpt lat="39.47502552878717" lon="8.92926599359149"><ele>71.0</ele><time>2026-04-07T17:16:45Z</time></trkpt><trkpt lat="39.475113993917326" lon="8.929144394213557"><ele>70.6</ele><time>2026-04-07T17:16:46Z</time></trkpt><trkpt lat="39.475197372908205" lon="8.929024720218107"><ele>70.19999999999999</ele><time>2026-04-07T17:16:47Z</time></trkpt><trkpt lat="39.475276867064146" lon="8.928917508467492"><ele>69.80000000000001</ele><time>2026-04-07T17:16:48Z</time></trkpt><trkpt lat="39.47534754236071" lon="8.92881766495539"><ele>69.4</ele><time>2026-04-07T17:16:49Z</time></trkpt><trkpt lat="39.475414856759436" lon="8.928729358336216"><ele>69.0</ele><time>2026-04-07T17:16:50Z</time></trkpt><trkpt lat="39.475471377699236" lon="8.928646023949064"><ele>69.0</ele><time>2026-04-07T17:16:51Z</time></trkpt><trkpt lat="39.47552971963124" lon="8.928568082341668"><ele>69.0</ele><time>2026-04-07T17:16:52Z</time></trkpt><trkpt lat="39.47558732383963" lon="8.928490809486922"><ele>69.0</ele><time>2026-04-07T17:16:53Z</time></trkpt><trkpt lat="39.475641415387884" lon="8.928411183541897"><ele>69.0</ele><time>2026-04-07T17:16:54Z</time></trkpt><trkpt lat="39.47569004156071" lon="8.928338796263997"><ele>69.0</ele><time>2026-04-07T17:16:55Z</time></trkpt><trkpt lat="39.475737917586855" lon="8.928275252831943"><ele>69.0</ele><time>2026-04-07T17:16:56Z</time></trkpt><trkpt lat="39.47578775731048" lon="8.928202787276382"><ele>69.2</ele><time>2026-04-07T17:16:57Z</time></trkpt><trkpt lat="39.475835873121106" lon="8.928133845989425"><ele>69.4</ele><time>2026-04-07T17:16:58Z</time></trkpt><trkpt lat="39.47587908655818" lon="8.92806830543177"><ele>69.6</ele><time>2026-04-07T17:16:59Z</time></trkpt><trkpt lat="39.475960690496265" lon="8.927941300976563"><ele>69.8</ele><time>2026-04-07T17:17:01Z</time></trkpt><trkpt lat="39.47599459551943" lon="8.92787170743838"><ele>70.0</ele><time>2026-04-07T17:17:02Z</time></trkpt><trkpt lat="39.476081819336436" lon="8.927764210084796"><ele>70.0</ele><time>2026-04-07T17:17:04Z</time></trkpt><trkpt lat="39.476154240896385" lon="8.9276451237053"><ele>70.0</ele><time>2026-04-07T17:17:06Z</time></trkpt><trkpt lat="39.476224206548196" lon="8.927538744575104"><ele>70.0</ele><time>2026-04-07T17:17:08Z</time></trkpt><trkpt lat="39.47629741372355" lon="8.927434112883917"><ele>70.0</ele><time>2026-04-07T17:17:10Z</time></trkpt><trkpt lat="39.47636668246384" lon="8.92732420743553"><ele>70.0</ele><time>2026-04-07T17:17:12Z</time></trkpt><trkpt lat="39.47643485784892" lon="8.927209966196527"><ele>70.5</ele><time>2026-04-07T17:17:14Z</time></trkpt><trkpt lat="39.47649545207841" lon="8.927085514376275"><ele>71.0</ele><time>2026-04-07T17:17:16Z</time></trkpt><trkpt lat="39.47653788215683" lon="8.926944889174221"><ele>71.5</ele><time>2026-04-07T17:17:18Z</time></trkpt><trkpt lat="39.47655988624489" lon="8.926794443758572"><ele>72.0</ele><time>2026-04-07T17:17:20Z</time></trkpt><trkpt lat="39.47656274355607" lon="8.926641031742824"><ele>72.5</ele><time>2026-04-07T17:17:22Z</time></trkpt><trkpt lat="39.47655111923352" lon="8.926493716873194"><ele>73.0</ele><time>2026-04-07T17:17:24Z</time></trkpt><trkpt lat="39.47652286604106" lon="8.926353062227408"><ele>73.5</ele><time>2026-04-07T17:17:26Z</time></trkpt><trkpt lat="39.476493683133555" lon="8.92621435536386"><ele>74.0</ele><time>2026-04-07T17:17:28Z</time></trkpt><trkpt lat="39.476473307239196" lon="8.926070690742991"><ele>74.0</ele><time>2026-04-07T17:17:30Z</time></trkpt><trkpt lat="39.476437882865575" lon="8.925937412719767"><ele>74.0</ele><time>2026-04-07T17:17:32Z</time></trkpt><trkpt lat="39.47640093150468" lon="8.925803932750764"><ele>74.0</ele><time>2026-04-07T17:17:34Z</time></trkpt><trkpt lat="39.476341753667604" lon="8.92567896036656"><ele>74.0</ele><time>2026-04-07T17:17:36Z</time></trkpt><trkpt lat="39.47630521597527" lon="8.92554216351989"><ele>74.0</ele><time>2026-04-07T17:17:38Z</time></trkpt><trkpt lat="39.476268954295875" lon="8.925404329518209"><ele>73.0</ele><time>2026-04-07T17:17:40Z</time></trkpt><trkpt lat="39.476227114681464" lon="8.925264787338296"><ele>72.0</ele><time>2026-04-07T17:17:42Z</time></trkpt><trkpt lat="39.47618901900488" lon="8.92511931135078"><ele>71.0</ele><time>2026-04-07T17:17:44Z</time></trkpt><trkpt lat="39.47614674609486" lon="8.924973453127347"><ele>70.0</ele><time>2026-04-07T17:17:46Z</time></trkpt><trkpt lat="39.4761014953133" lon="8.924825811907192"><ele>70.0</ele><time>2026-04-07T17:17:48Z</time></trkpt><trkpt lat="39.47605908155237" lon="8.924678417434498"><ele>70.0</ele><time>2026-04-07T17:17:50Z</time></trkpt><trkpt lat="39.4760207430596" lon="8.92453417655395"><ele>70.0</ele><time>2026-04-07T17:17:52Z</time></trkpt><trkpt lat="39.475982333577" lon="8.924389338479456"><ele>70.0</ele><time>2026-04-07T17:17:54Z</time></trkpt><trkpt lat="39.47593664839578" lon="8.924241144670068"><ele>70.2</ele><time>2026-04-07T17:17:56Z</time></trkpt><trkpt lat="39.47591112582228" lon="8.924164811744417"><ele>70.4</ele><time>2026-04-07T17:17:57Z</time></trkpt><trkpt lat="39.47586973897207" lon="8.924017494844776"><ele>70.6</ele><time>2026-04-07T17:17:59Z</time></trkpt><trkpt lat="39.475824573493334" lon="8.923867808170453"><ele>70.8</ele><time>2026-04-07T17:18:01Z</time></trkpt><trkpt lat="39.47578243961557" lon="8.923717158772812"><ele>71.0</ele><time>2026-04-07T17:18:03Z</time></trkpt><trkpt lat="39.47574340125269" lon="8.92356383018862"><ele>71.0</ele><time>2026-04-07T17:18:05Z</time></trkpt><trkpt lat="39.47569837921908" lon="8.923413528558365"><ele>71.0</ele><time>2026-04-07T17:18:07Z</time></trkpt><trkpt lat="39.47565113781234" lon="8.92326368597654"><ele>71.0</ele><time>2026-04-07T17:18:09Z</time></trkpt><trkpt lat="39.47561131292402" lon="8.923117257240973"><ele>71.0</ele><time>2026-04-07T17:18:11Z</time></trkpt><trkpt lat="39.47556806446958" lon="8.922969687009378"><ele>71.0</ele><time>2026-04-07T17:18:13Z</time></trkpt><trkpt lat="39.47553225090316" lon="8.922824038761997"><ele>71.0</ele><time>2026-04-07T17:18:15Z</time></trkpt><trkpt lat="39.47550263978656" lon="8.922674276482608"><ele>71.0</ele><time>2026-04-07T17:18:17Z</time></trkpt><trkpt lat="39.475482945885815" lon="8.922522777493947"><ele>71.0</ele><time>2026-04-07T17:18:19Z</time></trkpt><trkpt lat="39.475478570943544" lon="8.92236875933413"><ele>71.25</ele><time>2026-04-07T17:18:21Z</time></trkpt><trkpt lat="39.47549153336249" lon="8.922215416584605"><ele>71.5</ele><time>2026-04-07T17:18:23Z</time></trkpt><trkpt lat="39.475515272871874" lon="8.922063290192025"><ele>71.75</ele><time>2026-04-07T17:18:25Z</time></trkpt><trkpt lat="39.47555577701873" lon="8.921919577906777"><ele>72.0</ele><time>2026-04-07T17:18:27Z</time></trkpt><trkpt lat="39.47561096145065" lon="8.921787441218765"><ele>71.8</ele><time>2026-04-07T17:18:29Z</time></trkpt><trkpt lat="39.47567443478356" lon="8.92165511553476"><ele>71.6</ele><time>2026-04-07T17:18:31Z</time></trkpt><trkpt lat="39.475753559563586" lon="8.921536496889436"><ele>71.39999999999999</ele><time>2026-04-07T17:18:33Z</time></trkpt><trkpt lat="39.47579953831042" lon="8.921479075440082"><ele>71.2</ele><time>2026-04-07T17:18:34Z</time></trkpt><trkpt lat="39.47589217504661" lon="8.921384947684244"><ele>71.0</ele><time>2026-04-07T17:18:36Z</time></trkpt><trkpt lat="39.47599396575686" lon="8.921297772955844"><ele>71.0</ele><time>2026-04-07T17:18:38Z</time></trkpt><trkpt lat="39.47609570180331" lon="8.921220939218914"><ele>71.0</ele><time>2026-04-07T17:18:40Z</time></trkpt><trkpt lat="39.476203166633404" lon="8.92115115253251"><ele>71.0</ele><time>2026-04-07T17:18:42Z</time></trkpt><trkpt lat="39.47631035578167" lon="8.921088827187932"><ele>71.0</ele><time>2026-04-07T17:18:44Z</time></trkpt><trkpt lat="39.47641750588973" lon="8.921022047189677"><ele>71.0</ele><time>2026-04-07T17:18:46Z</time></trkpt><trkpt lat="39.47652963172259" lon="8.920955453214868"><ele>71.0</ele><time>2026-04-07T17:18:48Z</time></trkpt><trkpt lat="39.47664401149422" lon="8.920892466110317"><ele>71.0</ele><time>2026-04-07T17:18:50Z</time></trkpt><trkpt lat="39.47675734395213" lon="8.920826415674464"><ele>71.0</ele><time>2026-04-07T17:18:52Z</time></trkpt><trkpt lat="39.47681456211416" lon="8.920789794634954"><ele>71.0</ele><time>2026-04-07T17:18:53Z</time></trkpt><trkpt lat="39.47693072517914" lon="8.920730251503265"><ele>71.0</ele><time>2026-04-07T17:18:55Z</time></trkpt><trkpt lat="39.477048938735294" lon="8.92068303784839"><ele>71.0</ele><time>2026-04-07T17:18:57Z</time></trkpt><trkpt lat="39.47716723683921" lon="8.920648591688106"><ele>71.0</ele><time>2026-04-07T17:18:59Z</time></trkpt><trkpt lat="39.47728618757854" lon="8.92062686811741"><ele>71.0</ele><time>2026-04-07T17:19:01Z</time></trkpt><trkpt lat="39.47740354758757" lon="8.920621561316121"><ele>71.25</ele><time>2026-04-07T17:19:03Z</time></trkpt><trkpt lat="39.47752174675663" lon="8.920615336492954"><ele>71.5</ele><time>2026-04-07T17:19:05Z</time></trkpt><trkpt lat="39.47763477614984" lon="8.920613278168496"><ele>71.75</ele><time>2026-04-07T17:19:07Z</time></trkpt><trkpt lat="39.47774993391443" lon="8.920607600779936"><ele>72.0</ele><time>2026-04-07T17:19:09Z</time></trkpt><trkpt lat="39.47786455751414" lon="8.920604066933475"><ele>72.25</ele><time>2026-04-07T17:19:11Z</time></trkpt><trkpt lat="39.477977568237975" lon="8.92059840094798"><ele>72.5</ele><time>2026-04-07T17:19:13Z</time></trkpt><trkpt lat="39.47808905337689" lon="8.920592909516134"><ele>72.75</ele><time>2026-04-07T17:19:15Z</time></trkpt><trkpt lat="39.478202675478784" lon="8.920589115730692"><ele>73.0</ele><time>2026-04-07T17:19:17Z</time></trkpt><trkpt lat="39.47831828110825" lon="8.920573394804189"><ele>73.0</ele><time>2026-04-07T17:19:19Z</time></trkpt><trkpt lat="39.478435757435605" lon="8.920566239107234"><ele>73.0</ele><time>2026-04-07T17:19:21Z</time></trkpt><trkpt lat="39.478553132993554" lon="8.920536693265534"><ele>73.0</ele><time>2026-04-07T17:19:23Z</time></trkpt><trkpt lat="39.478665196527956" lon="8.920481401898435"><ele>73.0</ele><time>2026-04-07T17:19:25Z</time></trkpt><trkpt lat="39.47871719816632" lon="8.920431059275462"><ele>73.0</ele><time>2026-04-07T17:19:26Z</time></trkpt><trkpt lat="39.47882223888885" lon="8.920351739618598"><ele>73.0</ele><time>2026-04-07T17:19:28Z</time></trkpt><trkpt lat="39.47891427616455" lon="8.920241352680748"><ele>73.0</ele><time>2026-04-07T17:19:30Z</time></trkpt><trkpt lat="39.47895304949487" lon="8.920173050364932"><ele>73.0</ele><time>2026-04-07T17:19:31Z</time></trkpt><trkpt lat="39.4790176751909" lon="8.920039038839523"><ele>73.0</ele><time>2026-04-07T17:19:33Z</time></trkpt><trkpt lat="39.479054127806954" lon="8.919885986594766"><ele>73.0</ele><time>2026-04-07T17:19:35Z</time></trkpt><trkpt lat="39.47908385457506" lon="8.919740917722903"><ele>73.25</ele><time>2026-04-07T17:19:37Z</time></trkpt><trkpt lat="39.4791139577394" lon="8.91959837852392"><ele>73.5</ele><time>2026-04-07T17:19:39Z</time></trkpt><trkpt lat="39.479152650844" lon="8.919459808600507"><ele>73.75</ele><time>2026-04-07T17:19:41Z</time></trkpt><trkpt lat="39.479190316817316" lon="8.919321059406764"><ele>74.0</ele><time>2026-04-07T17:19:43Z</time></trkpt><trkpt lat="39.47922065966113" lon="8.91917975497958"><ele>74.0</ele><time>2026-04-07T17:19:45Z</time></trkpt><trkpt lat="39.47924898348544" lon="8.919039338998395"><ele>74.0</ele><time>2026-04-07T17:19:47Z</time></trkpt><trkpt lat="39.47927399648123" lon="8.91889899114999"><ele>74.0</ele><time>2026-04-07T17:19:49Z</time></trkpt><trkpt lat="39.47930005403685" lon="8.918761550579005"><ele>74.0</ele><time>2026-04-07T17:19:51Z</time></trkpt><trkpt lat="39.479326763357044" lon="8.918623055551304"><ele>74.0</ele><time>2026-04-07T17:19:53Z</time></trkpt><trkpt lat="39.47935152641415" lon="8.918491397184516"><ele>74.25</ele><time>2026-04-07T17:19:55Z</time></trkpt><trkpt lat="39.47937731068536" lon="8.918365368325292"><ele>74.5</ele><time>2026-04-07T17:19:57Z</time></trkpt><trkpt lat="39.47939828614716" lon="8.918238389371034"><ele>74.75</ele><time>2026-04-07T17:19:59Z</time></trkpt><trkpt lat="39.4794571312349" lon="8.918047364142508"><ele>75.0</ele><time>2026-04-07T17:20:02Z</time></trkpt><trkpt lat="39.47947825715169" lon="8.917929938620924"><ele>75.0</ele><time>2026-04-07T17:20:04Z</time></trkpt><trkpt lat="39.479501609997165" lon="8.917816450577147"><ele>75.0</ele><time>2026-04-07T17:20:06Z</time></trkpt><trkpt lat="39.47952741142467" lon="8.917696605690203"><ele>75.0</ele><time>2026-04-07T17:20:08Z</time></trkpt><trkpt lat="39.47955003682418" lon="8.917584018033171"><ele>75.0</ele><time>2026-04-07T17:20:10Z</time></trkpt><trkpt lat="39.479570405149374" lon="8.91746335036077"><ele>75.0</ele><time>2026-04-07T17:20:12Z</time></trkpt><trkpt lat="39.479594234674614" lon="8.917350629454956"><ele>75.2</ele><time>2026-04-07T17:20:14Z</time></trkpt><trkpt lat="39.47961117219779" lon="8.917225755514707"><ele>75.4</ele><time>2026-04-07T17:20:16Z</time></trkpt><trkpt lat="39.479635222712666" lon="8.917112130917216"><ele>75.6</ele><time>2026-04-07T17:20:18Z</time></trkpt><trkpt lat="39.479651840319725" lon="8.916979925901432"><ele>75.8</ele><time>2026-04-07T17:20:20Z</time></trkpt><trkpt lat="39.47966256050138" lon="8.916852952643358"><ele>76.0</ele><time>2026-04-07T17:20:22Z</time></trkpt><trkpt lat="39.47967747437328" lon="8.91676797564969"><ele>76.2</ele><time>2026-04-07T17:20:24Z</time></trkpt><trkpt lat="39.47970758132343" lon="8.916647154381273"><ele>76.39999999999999</ele><time>2026-04-07T17:20:26Z</time></trkpt><trkpt lat="39.47972631807603" lon="8.916523758951207"><ele>76.6</ele><time>2026-04-07T17:20:28Z</time></trkpt><trkpt lat="39.47974885421616" lon="8.9164064200763"><ele>76.8</ele><time>2026-04-07T17:20:30Z</time></trkpt><trkpt lat="39.47977710294554" lon="8.916288583283356"><ele>77.0</ele><time>2026-04-07T17:20:32Z</time></trkpt><trkpt lat="39.479800585641215" lon="8.916178598677956"><ele>77.0</ele><time>2026-04-07T17:20:34Z</time></trkpt><trkpt lat="39.4798122627378" lon="8.91608778792368"><ele>77.0</ele><time>2026-04-07T17:20:36Z</time></trkpt><trkpt lat="39.47986551814558" lon="8.915901687554845"><ele>77.0</ele><time>2026-04-07T17:20:38Z</time></trkpt><trkpt lat="39.479900635765794" lon="8.915789029321349"><ele>77.0</ele><time>2026-04-07T17:20:40Z</time></trkpt><trkpt lat="39.47992512789737" lon="8.915667255034132"><ele>77.0</ele><time>2026-04-07T17:20:42Z</time></trkpt><trkpt lat="39.47994710659899" lon="8.915539289608802"><ele>77.4</ele><time>2026-04-07T17:20:44Z</time></trkpt><trkpt lat="39.479972733705" lon="8.915409097275154"><ele>77.80000000000001</ele><time>2026-04-07T17:20:46Z</time></trkpt><trkpt lat="39.48000061365698" lon="8.915280406316707"><ele>78.2</ele><time>2026-04-07T17:20:48Z</time></trkpt><trkpt lat="39.48002523490752" lon="8.915149253357463"><ele>78.60000000000001</ele><time>2026-04-07T17:20:50Z</time></trkpt><trkpt lat="39.48005430699207" lon="8.915018523101681"><ele>79.0</ele><time>2026-04-07T17:20:52Z</time></trkpt><trkpt lat="39.48008386730358" lon="8.914878103271672"><ele>79.2</ele><time>2026-04-07T17:20:54Z</time></trkpt><trkpt lat="39.48009515032653" lon="8.914756395996138"><ele>79.4</ele><time>2026-04-07T17:20:56Z</time></trkpt><trkpt lat="39.48012671835773" lon="8.914623478380308"><ele>79.6</ele><time>2026-04-07T17:20:58Z</time></trkpt><trkpt lat="39.48015483745013" lon="8.914488524968425"><ele>79.8</ele><time>2026-04-07T17:21:00Z</time></trkpt><trkpt lat="39.48017786491482" lon="8.91441171602882"><ele>80.0</ele><time>2026-04-07T17:21:01Z</time></trkpt><trkpt lat="39.48022239931983" lon="8.914260272645707"><ele>79.66666666666667</ele><time>2026-04-07T17:21:03Z</time></trkpt><trkpt lat="39.48025064870811" lon="8.914177787284146"><ele>79.33333333333334</ele><time>2026-04-07T17:21:04Z</time></trkpt><trkpt lat="39.480277747885566" lon="8.914090398225516"><ele>79.0</ele><time>2026-04-07T17:21:05Z</time></trkpt><trkpt lat="39.4803088618846" lon="8.914006920952385"><ele>78.66666666666667</ele><time>2026-04-07T17:21:06Z</time></trkpt><trkpt lat="39.48035260579607" lon="8.913915332103839"><ele>78.33333333333333</ele><time>2026-04-07T17:21:07Z</time></trkpt><trkpt lat="39.48039546853447" lon="8.913829825532465"><ele>78.0</ele><time>2026-04-07T17:21:08Z</time></trkpt><trkpt lat="39.48044567907075" lon="8.913748673531924"><ele>78.0</ele><time>2026-04-07T17:21:09Z</time></trkpt><trkpt lat="39.48049555803759" lon="8.913671239800378"><ele>78.0</ele><time>2026-04-07T17:21:10Z</time></trkpt><trkpt lat="39.480551135873796" lon="8.913599209766163"><ele>78.0</ele><time>2026-04-07T17:21:11Z</time></trkpt><trkpt lat="39.48060880150769" lon="8.913532422009586"><ele>78.0</ele><time>2026-04-07T17:21:12Z</time></trkpt><trkpt lat="39.48067224592551" lon="8.913477744526883"><ele>78.0</ele><time>2026-04-07T17:21:13Z</time></trkpt><trkpt lat="39.480742843987095" lon="8.913432872492526"><ele>78.0</ele><time>2026-04-07T17:21:14Z</time></trkpt><trkpt lat="39.48081244941053" lon="8.91339061604038"><ele>77.83333333333333</ele><time>2026-04-07T17:21:15Z</time></trkpt><trkpt lat="39.48088218790876" lon="8.913351541406431"><ele>77.66666666666667</ele><time>2026-04-07T17:21:16Z</time></trkpt><trkpt lat="39.48094960093162" lon="8.913321822007891"><ele>77.5</ele><time>2026-04-07T17:21:17Z</time></trkpt><trkpt lat="39.48101642250963" lon="8.913298112688457"><ele>77.33333333333334</ele><time>2026-04-07T17:21:18Z</time></trkpt><trkpt lat="39.48108344830792" lon="8.91328179148847"><ele>77.16666666666667</ele><time>2026-04-07T17:21:19Z</time></trkpt><trkpt lat="39.48120065347026" lon="8.913243594194903"><ele>77.0</ele><time>2026-04-07T17:21:21Z</time></trkpt><trkpt lat="39.48131690296884" lon="8.913228064239082"><ele>77.0</ele><time>2026-04-07T17:21:23Z</time></trkpt><trkpt lat="39.481425941203554" lon="8.913220430596956"><ele>77.0</ele><time>2026-04-07T17:21:25Z</time></trkpt><trkpt lat="39.481527915965614" lon="8.913215719172035"><ele>77.0</ele><time>2026-04-07T17:21:27Z</time></trkpt><trkpt lat="39.4816207302188" lon="8.913217774416545"><ele>77.0</ele><time>2026-04-07T17:21:29Z</time></trkpt><trkpt lat="39.481711188847626" lon="8.913213992842355"><ele>77.0</ele><time>2026-04-07T17:21:31Z</time></trkpt><trkpt lat="39.48180018531" lon="8.913205754808555"><ele>77.0</ele><time>2026-04-07T17:21:33Z</time></trkpt><trkpt lat="39.481894580094504" lon="8.913208203474289"><ele>77.0</ele><time>2026-04-07T17:21:35Z</time></trkpt><trkpt lat="39.48198765847523" lon="8.913198437907209"><ele>77.0</ele><time>2026-04-07T17:21:37Z</time></trkpt><trkpt lat="39.48208175051306" lon="8.913196074373966"><ele>77.0</ele><time>2026-04-07T17:21:39Z</time></trkpt><trkpt lat="39.48218262198947" lon="8.913198531538919"><ele>77.0</ele><time>2026-04-07T17:21:41Z</time></trkpt><trkpt lat="39.4822537875099" lon="8.913197658486943"><ele>77.33333333333334</ele><time>2026-04-07T17:21:43Z</time></trkpt><trkpt lat="39.48232711699942" lon="8.913186180302127"><ele>77.66666666666667</ele><time>2026-04-07T17:21:45Z</time></trkpt><trkpt lat="39.48241559381896" lon="8.913194269290898"><ele>78.0</ele><time>2026-04-07T17:21:47Z</time></trkpt><trkpt lat="39.48249952077517" lon="8.913194816660953"><ele>78.33333333333333</ele><time>2026-04-07T17:21:49Z</time></trkpt><trkpt lat="39.48258219496758" lon="8.913203490741557"><ele>78.66666666666666</ele><time>2026-04-07T17:21:51Z</time></trkpt><trkpt lat="39.482664537307166" lon="8.913201745355595"><ele>79.0</ele><time>2026-04-07T17:21:53Z</time></trkpt><trkpt lat="39.48275972829915" lon="8.913199631337353"><ele>79.0</ele><time>2026-04-07T17:21:55Z</time></trkpt><trkpt lat="39.48286054181294" lon="8.913193311534695"><ele>79.0</ele><time>2026-04-07T17:21:57Z</time></trkpt><trkpt lat="39.482964963537356" lon="8.913192766521783"><ele>79.0</ele><time>2026-04-07T17:21:59Z</time></trkpt><trkpt lat="39.483028222106235" lon="8.91318507370461"><ele>79.0</ele><time>2026-04-07T17:22:00Z</time></trkpt><trkpt lat="39.48314471396547" lon="8.91319015202183"><ele>79.0</ele><time>2026-04-07T17:22:02Z</time></trkpt><trkpt lat="39.48326406865567" lon="8.913200088013248"><ele>79.0</ele><time>2026-04-07T17:22:04Z</time></trkpt><trkpt lat="39.48338163439545" lon="8.913205428321739"><ele>79.0</ele><time>2026-04-07T17:22:06Z</time></trkpt><trkpt lat="39.483480463653024" lon="8.913209831639136"><ele>79.0</ele><time>2026-04-07T17:22:08Z</time></trkpt><trkpt lat="39.483598357267816" lon="8.91321346855352"><ele>79.0</ele><time>2026-04-07T17:22:10Z</time></trkpt><trkpt lat="39.48370351114457" lon="8.913208916393652"><ele>79.0</ele><time>2026-04-07T17:22:12Z</time></trkpt><trkpt lat="39.483794179277936" lon="8.91320267030696"><ele>79.0</ele><time>2026-04-07T17:22:14Z</time></trkpt><trkpt lat="39.48387517452505" lon="8.9132026818166"><ele>79.0</ele><time>2026-04-07T17:22:19Z</time></trkpt><trkpt lat="39.48394532074979" lon="8.913196357043537"><ele>79.0</ele><time>2026-04-07T17:22:21Z</time></trkpt><trkpt lat="39.484037407689186" lon="8.913204573294381"><ele>79.0</ele><time>2026-04-07T17:22:23Z</time></trkpt><trkpt lat="39.48413805956126" lon="8.913215359744907"><ele>79.0</ele><time>2026-04-07T17:22:25Z</time></trkpt><trkpt lat="39.48424208990437" lon="8.913222228373638"><ele>79.0</ele><time>2026-04-07T17:22:27Z</time></trkpt><trkpt lat="39.484347103565334" lon="8.91322255627254"><ele>79.0</ele><time>2026-04-07T17:22:29Z</time></trkpt><trkpt lat="39.48445399317813" lon="8.913234158312132"><ele>79.0</ele><time>2026-04-07T17:22:31Z</time></trkpt><trkpt lat="39.484564827034184" lon="8.9132385389643"><ele>79.0</ele><time>2026-04-07T17:22:33Z</time></trkpt><trkpt lat="39.48467438431757" lon="8.913230901601802"><ele>79.0</ele><time>2026-04-07T17:22:35Z</time></trkpt><trkpt lat="39.48478767159496" lon="8.91323606637659"><ele>79.0</ele><time>2026-04-07T17:22:37Z</time></trkpt><trkpt lat="39.48490015026309" lon="8.913235375752118"><ele>78.83333333333333</ele><time>2026-04-07T17:22:39Z</time></trkpt><trkpt lat="39.48501030364216" lon="8.913229065296417"><ele>78.66666666666666</ele><time>2026-04-07T17:22:41Z</time></trkpt><trkpt lat="39.485132274214635" lon="8.913237654644854"><ele>78.5</ele><time>2026-04-07T17:22:43Z</time></trkpt><trkpt lat="39.48519634080715" lon="8.913244992918145"><ele>78.33333333333333</ele><time>2026-04-07T17:22:44Z</time></trkpt><trkpt lat="39.48525987989456" lon="8.913252415006466"><ele>78.16666666666667</ele><time>2026-04-07T17:22:45Z</time></trkpt><trkpt lat="39.48532338327424" lon="8.913258467639272"><ele>78.0</ele><time>2026-04-07T17:22:46Z</time></trkpt><trkpt lat="39.48538828346072" lon="8.913263438221561"><ele>77.33333333333333</ele><time>2026-04-07T17:22:47Z</time></trkpt><trkpt lat="39.485454359192005" lon="8.91326712624786"><ele>76.66666666666667</ele><time>2026-04-07T17:22:48Z</time></trkpt><trkpt lat="39.48551837436646" lon="8.913272367185037"><ele>76.0</ele><time>2026-04-07T17:22:49Z</time></trkpt><trkpt lat="39.48564981712749" lon="8.91328073788482"><ele>75.33333333333334</ele><time>2026-04-07T17:22:51Z</time></trkpt><trkpt lat="39.48572203050585" lon="8.913283362503135"><ele>74.66666666666667</ele><time>2026-04-07T17:22:52Z</time></trkpt><trkpt lat="39.485789923855606" lon="8.913291229717245"><ele>74.0</ele><time>2026-04-07T17:22:53Z</time></trkpt><trkpt lat="39.48586057252111" lon="8.913298996372845"><ele>74.0</ele><time>2026-04-07T17:22:54Z</time></trkpt><trkpt lat="39.48593318363897" lon="8.913309530618768"><ele>74.0</ele><time>2026-04-07T17:22:55Z</time></trkpt><trkpt lat="39.48600743125334" lon="8.91332367611615"><ele>74.0</ele><time>2026-04-07T17:22:56Z</time></trkpt><trkpt lat="39.486083237884266" lon="8.913330948246013"><ele>74.0</ele><time>2026-04-07T17:22:57Z</time></trkpt><trkpt lat="39.48615622067513" lon="8.91334168438975"><ele>74.0</ele><time>2026-04-07T17:22:58Z</time></trkpt><trkpt lat="39.48622976773186" lon="8.91334955509793"><ele>74.0</ele><time>2026-04-07T17:22:59Z</time></trkpt><trkpt lat="39.486304979947654" lon="8.913352501708856"><ele>74.0</ele><time>2026-04-07T17:23:00Z</time></trkpt><trkpt lat="39.486376495946054" lon="8.913345879431134"><ele>74.2</ele><time>2026-04-07T17:23:01Z</time></trkpt><trkpt lat="39.48643989292456" lon="8.913334297079516"><ele>74.4</ele><time>2026-04-07T17:23:02Z</time></trkpt><trkpt lat="39.48655637835331" lon="8.913329214088348"><ele>74.6</ele><time>2026-04-07T17:23:04Z</time></trkpt><trkpt lat="39.486655005454864" lon="8.913327993892386"><ele>74.8</ele><time>2026-04-07T17:23:06Z</time></trkpt><trkpt lat="39.48675068451716" lon="8.913316392495137"><ele>75.0</ele><time>2026-04-07T17:23:08Z</time></trkpt><trkpt lat="39.48683570465657" lon="8.913308877329786"><ele>75.0</ele><time>2026-04-07T17:23:10Z</time></trkpt><trkpt lat="39.48691788564438" lon="8.913298783448592"><ele>75.0</ele><time>2026-04-07T17:23:12Z</time></trkpt><trkpt lat="39.48699605608864" lon="8.913292790948844"><ele>75.0</ele><time>2026-04-07T17:23:14Z</time></trkpt><trkpt lat="39.48707180209755" lon="8.913286207203543"><ele>75.0</ele><time>2026-04-07T17:23:17Z</time></trkpt><trkpt lat="39.487217933259394" lon="8.913254932966003"><ele>75.0</ele><time>2026-04-07T17:23:19Z</time></trkpt><trkpt lat="39.487293689492745" lon="8.913249429004786"><ele>75.33333333333333</ele><time>2026-04-07T17:23:21Z</time></trkpt><trkpt lat="39.4873701995102" lon="8.913251151495416"><ele>75.66666666666667</ele><time>2026-04-07T17:23:23Z</time></trkpt><trkpt lat="39.48744923030047" lon="8.91324465826309"><ele>76.0</ele><time>2026-04-07T17:23:25Z</time></trkpt><trkpt lat="39.48752797215624" lon="8.913236450411496"><ele>76.33333333333334</ele><time>2026-04-07T17:23:27Z</time></trkpt><trkpt lat="39.487607522125764" lon="8.913232373818712"><ele>76.66666666666667</ele><time>2026-04-07T17:23:29Z</time></trkpt><trkpt lat="39.48768597926998" lon="8.913230057699364"><ele>77.0</ele><time>2026-04-07T17:23:31Z</time></trkpt><trkpt lat="39.48776079802544" lon="8.913234186093002"><ele>77.0</ele><time>2026-04-07T17:23:33Z</time></trkpt><trkpt lat="39.487838324027756" lon="8.913236350086033"><ele>77.0</ele><time>2026-04-07T17:23:35Z</time></trkpt><trkpt lat="39.48793457840627" lon="8.91323906057971"><ele>77.0</ele><time>2026-04-07T17:23:38Z</time></trkpt><trkpt lat="39.488012531345056" lon="8.913240941288693"><ele>77.0</ele><time>2026-04-07T17:23:40Z</time></trkpt><trkpt lat="39.48808865660268" lon="8.91324376883402"><ele>77.0</ele><time>2026-04-07T17:23:42Z</time></trkpt><trkpt lat="39.488166271854254" lon="8.913249268750295"><ele>77.0</ele><time>2026-04-07T17:23:44Z</time></trkpt><trkpt lat="39.48824575054907" lon="8.91325106658366"><ele>77.33333333333334</ele><time>2026-04-07T17:23:46Z</time></trkpt><trkpt lat="39.48832397054738" lon="8.913253416171072"><ele>77.66666666666667</ele><time>2026-04-07T17:23:48Z</time></trkpt><trkpt lat="39.48840029677398" lon="8.913248100550298"><ele>78.0</ele><time>2026-04-07T17:23:50Z</time></trkpt><trkpt lat="39.48848576111609" lon="8.913248848159139"><ele>78.33333333333333</ele><time>2026-04-07T17:23:52Z</time></trkpt><trkpt lat="39.48856764647494" lon="8.913253504858607"><ele>78.66666666666666</ele><time>2026-04-07T17:23:54Z</time></trkpt><trkpt lat="39.4886493849469" lon="8.913249803513557"><ele>79.0</ele><time>2026-04-07T17:23:56Z</time></trkpt><trkpt lat="39.48873598178257" lon="8.913261243238413"><ele>78.4</ele><time>2026-04-07T17:23:58Z</time></trkpt><trkpt lat="39.48883033901713" lon="8.913268278681086"><ele>77.80000000000001</ele><time>2026-04-07T17:24:00Z</time></trkpt><trkpt lat="39.488934491902405" lon="8.913271629275016"><ele>77.19999999999999</ele><time>2026-04-07T17:24:02Z</time></trkpt><trkpt lat="39.489046727916104" lon="8.91328509076477"><ele>76.6</ele><time>2026-04-07T17:24:04Z</time></trkpt><trkpt lat="39.489169154831565" lon="8.913297079244309"><ele>76.0</ele><time>2026-04-07T17:24:06Z</time></trkpt><trkpt lat="39.48923171200466" lon="8.913309322829571"><ele>76.0</ele><time>2026-04-07T17:24:07Z</time></trkpt><trkpt lat="39.48929718888171" lon="8.91331536479871"><ele>76.0</ele><time>2026-04-07T17:24:08Z</time></trkpt><trkpt lat="39.4893664691724" lon="8.913326449377907"><ele>76.0</ele><time>2026-04-07T17:24:09Z</time></trkpt><trkpt lat="39.48943850084419" lon="8.913333798977808"><ele>76.0</ele><time>2026-04-07T17:24:10Z</time></trkpt><trkpt lat="39.48951176131918" lon="8.913343748552537"><ele>76.0</ele><time>2026-04-07T17:24:11Z</time></trkpt><trkpt lat="39.48958389208123" lon="8.91335466464524"><ele>76.0</ele><time>2026-04-07T17:24:12Z</time></trkpt><trkpt lat="39.48966308159362" lon="8.91335839709364"><ele>76.0</ele><time>2026-04-07T17:24:13Z</time></trkpt><trkpt lat="39.4897415898949" lon="8.913368250294965"><ele>75.5</ele><time>2026-04-07T17:24:14Z</time></trkpt><trkpt lat="39.489821985464914" lon="8.913381027145094"><ele>75.0</ele><time>2026-04-07T17:24:15Z</time></trkpt><trkpt lat="39.48990541664776" lon="8.913395116893222"><ele>74.5</ele><time>2026-04-07T17:24:16Z</time></trkpt><trkpt lat="39.48999925140137" lon="8.913396507351711"><ele>74.0</ele><time>2026-04-07T17:24:17Z</time></trkpt><trkpt lat="39.49008919540721" lon="8.91339842915052"><ele>73.5</ele><time>2026-04-07T17:24:18Z</time></trkpt><trkpt lat="39.49016785180486" lon="8.913409075149387"><ele>73.0</ele><time>2026-04-07T17:24:19Z</time></trkpt><trkpt lat="39.490248458342414" lon="8.91341788593167"><ele>73.0</ele><time>2026-04-07T17:24:20Z</time></trkpt><trkpt lat="39.49031552827379" lon="8.913447996430675"><ele>73.0</ele><time>2026-04-07T17:24:21Z</time></trkpt><trkpt lat="39.49039637380407" lon="8.913454157864429"><ele>73.0</ele><time>2026-04-07T17:24:23Z</time></trkpt><trkpt lat="39.49045383905363" lon="8.91325790467078"><ele>73.0</ele><time>2026-04-07T17:24:26Z</time></trkpt><trkpt lat="39.49040970747964" lon="8.913121407136074"><ele>73.0</ele><time>2026-04-07T17:24:28Z</time></trkpt><trkpt lat="39.490357453282954" lon="8.912990366408655"><ele>72.4</ele><time>2026-04-07T17:24:30Z</time></trkpt><trkpt lat="39.4902930062552" lon="8.912858345235461"><ele>71.8</ele><time>2026-04-07T17:24:32Z</time></trkpt><trkpt lat="39.490228126663574" lon="8.912727182213828"><ele>71.2</ele><time>2026-04-07T17:24:34Z</time></trkpt><trkpt lat="39.490178433855775" lon="8.912581191542593"><ele>70.6</ele><time>2026-04-07T17:24:36Z</time></trkpt><trkpt lat="39.49015238164671" lon="8.912505279099275"><ele>70.0</ele><time>2026-04-07T17:24:37Z</time></trkpt><trkpt lat="39.49012527288817" lon="8.912430638248411"><ele>69.42857142857143</ele><time>2026-04-07T17:24:38Z</time></trkpt><trkpt lat="39.49009655528224" lon="8.912357081166133"><ele>68.85714285714286</ele><time>2026-04-07T17:24:39Z</time></trkpt><trkpt lat="39.49006537290743" lon="8.912279863975222"><ele>68.28571428571428</ele><time>2026-04-07T17:24:40Z</time></trkpt><trkpt lat="39.490039811568224" lon="8.912202784244881"><ele>67.71428571428572</ele><time>2026-04-07T17:24:41Z</time></trkpt><trkpt lat="39.49001523140311" lon="8.912122256001334"><ele>67.14285714285714</ele><time>2026-04-07T17:24:42Z</time></trkpt><trkpt lat="39.489996120471815" lon="8.912038040462802"><ele>66.57142857142857</ele><time>2026-04-07T17:24:43Z</time></trkpt><trkpt lat="39.48997025309981" lon="8.911955357257774"><ele>66.0</ele><time>2026-04-07T17:24:44Z</time></trkpt><trkpt lat="39.489948744434464" lon="8.911875956124899"><ele>66.0</ele><time>2026-04-07T17:24:45Z</time></trkpt><trkpt lat="39.489927627128466" lon="8.911794574450791"><ele>66.0</ele><time>2026-04-07T17:24:46Z</time></trkpt><trkpt lat="39.48990532633177" lon="8.911712370034389"><ele>66.0</ele><time>2026-04-07T17:24:47Z</time></trkpt><trkpt lat="39.4898856880013" lon="8.911631318909597"><ele>66.0</ele><time>2026-04-07T17:24:48Z</time></trkpt><trkpt lat="39.48986410858886" lon="8.911549529293737"><ele>66.0</ele><time>2026-04-07T17:24:49Z</time></trkpt><trkpt lat="39.4898502231065" lon="8.911468715611406"><ele>66.0</ele><time>2026-04-07T17:24:50Z</time></trkpt><trkpt lat="39.48983570451541" lon="8.911382374898537"><ele>66.0</ele><time>2026-04-07T17:24:51Z</time></trkpt><trkpt lat="39.48981741684651" lon="8.911301246751915"><ele>65.85714285714286</ele><time>2026-04-07T17:24:52Z</time></trkpt><trkpt lat="39.489797720426814" lon="8.911218989871372"><ele>65.71428571428572</ele><time>2026-04-07T17:24:53Z</time></trkpt><trkpt lat="39.48977875346074" lon="8.911137859903443"><ele>65.57142857142858</ele><time>2026-04-07T17:24:54Z</time></trkpt><trkpt lat="39.48976058992606" lon="8.911053088048927"><ele>65.42857142857143</ele><time>2026-04-07T17:24:55Z</time></trkpt><trkpt lat="39.48973864550383" lon="8.91097024065892"><ele>65.28571428571429</ele><time>2026-04-07T17:24:56Z</time></trkpt><trkpt lat="39.48972020632331" lon="8.910887076105412"><ele>65.14285714285715</ele><time>2026-04-07T17:24:57Z</time></trkpt><trkpt lat="39.489720568309764" lon="8.910797954527194"><ele>65.0</ele><time>2026-04-07T17:24:58Z</time></trkpt><trkpt lat="39.48970657651437" lon="8.910715964654655"><ele>65.2</ele><time>2026-04-07T17:24:59Z</time></trkpt><trkpt lat="39.48967730434165" lon="8.910643309699713"><ele>65.4</ele><time>2026-04-07T17:25:00Z</time></trkpt><trkpt lat="39.48966868793562" lon="8.910562151594652"><ele>65.6</ele><time>2026-04-07T17:25:01Z</time></trkpt><trkpt lat="39.48963789720584" lon="8.910402007592104"><ele>65.8</ele><time>2026-04-07T17:25:03Z</time></trkpt><trkpt lat="39.489609482092085" lon="8.910238331719903"><ele>66.0</ele><time>2026-04-07T17:25:05Z</time></trkpt><trkpt lat="39.48954474783999" lon="8.910103573522267"><ele>64.75</ele><time>2026-04-07T17:25:07Z</time></trkpt><trkpt lat="39.48949615850075" lon="8.909962441114665"><ele>63.5</ele><time>2026-04-07T17:25:09Z</time></trkpt><trkpt lat="39.48946543749976" lon="8.909817754080873"><ele>62.25</ele><time>2026-04-07T17:25:11Z</time></trkpt><trkpt lat="39.489433115479635" lon="8.909681242780902"><ele>61.0</ele><time>2026-04-07T17:25:13Z</time></trkpt><trkpt lat="39.489373445001185" lon="8.909559308443825"><ele>61.0</ele><time>2026-04-07T17:25:15Z</time></trkpt><trkpt lat="39.48930706181368" lon="8.909429889244452"><ele>61.0</ele><time>2026-04-07T17:25:17Z</time></trkpt><trkpt lat="39.4892473217617" lon="8.909302770237383"><ele>61.0</ele><time>2026-04-07T17:25:19Z</time></trkpt><trkpt lat="39.48920243488719" lon="8.909177941782811"><ele>61.0</ele><time>2026-04-07T17:25:21Z</time></trkpt><trkpt lat="39.489154124794275" lon="8.909047286274207"><ele>60.8</ele><time>2026-04-07T17:25:23Z</time></trkpt><trkpt lat="39.4890937082396" lon="8.90893253309699"><ele>60.599999999999994</ele><time>2026-04-07T17:25:25Z</time></trkpt><trkpt lat="39.489004505975466" lon="8.90885863684693"><ele>60.4</ele><time>2026-04-07T17:25:27Z</time></trkpt><trkpt lat="39.48890541498719" lon="8.908819447478448"><ele>60.2</ele><time>2026-04-07T17:25:29Z</time></trkpt><trkpt lat="39.488796714045584" lon="8.908782406651083"><ele>60.0</ele><time>2026-04-07T17:25:31Z</time></trkpt><trkpt lat="39.48869242944221" lon="8.908740896515404"><ele>60.0</ele><time>2026-04-07T17:25:33Z</time></trkpt><trkpt lat="39.488598709042876" lon="8.908697257095598"><ele>60.0</ele><time>2026-04-07T17:25:35Z</time></trkpt><trkpt lat="39.48850522144119" lon="8.90866892829576"><ele>60.0</ele><time>2026-04-07T17:25:37Z</time></trkpt><trkpt lat="39.48841206057389" lon="8.908632596433298"><ele>60.0</ele><time>2026-04-07T17:25:39Z</time></trkpt><trkpt lat="39.48831158700958" lon="8.908605498141473"><ele>60.0</ele><time>2026-04-07T17:25:41Z</time></trkpt><trkpt lat="39.48821435642028" lon="8.908562615948115"><ele>60.0</ele><time>2026-04-07T17:25:43Z</time></trkpt><trkpt lat="39.48811118630208" lon="8.90850958744825"><ele>60.0</ele><time>2026-04-07T17:25:45Z</time></trkpt><trkpt lat="39.487997074628574" lon="8.908466574582139"><ele>60.0</ele><time>2026-04-07T17:25:47Z</time></trkpt><trkpt lat="39.487882763559696" lon="8.90842979762458"><ele>60.0</ele><time>2026-04-07T17:25:49Z</time></trkpt><trkpt lat="39.48776833758779" lon="8.908391241744631"><ele>59.5</ele><time>2026-04-07T17:25:51Z</time></trkpt><trkpt lat="39.48765215650823" lon="8.908358467100447"><ele>59.0</ele><time>2026-04-07T17:25:53Z</time></trkpt><trkpt lat="39.48753559109887" lon="8.908330390709883"><ele>58.5</ele><time>2026-04-07T17:25:55Z</time></trkpt><trkpt lat="39.48741750023237" lon="8.908304568202869"><ele>58.0</ele><time>2026-04-07T17:25:57Z</time></trkpt><trkpt lat="39.48730433150895" lon="8.90827587068741"><ele>58.0</ele><time>2026-04-07T17:25:59Z</time></trkpt><trkpt lat="39.4871963798928" lon="8.908237230283435"><ele>58.0</ele><time>2026-04-07T17:26:01Z</time></trkpt><trkpt lat="39.48708707687712" lon="8.908199023282984"><ele>58.0</ele><time>2026-04-07T17:26:03Z</time></trkpt><trkpt lat="39.48697552349781" lon="8.908157368961215"><ele>58.0</ele><time>2026-04-07T17:26:05Z</time></trkpt><trkpt lat="39.48686784937454" lon="8.908115618140725"><ele>58.599999999999994</ele><time>2026-04-07T17:26:07Z</time></trkpt><trkpt lat="39.48676393658289" lon="8.90807754376094"><ele>59.199999999999996</ele><time>2026-04-07T17:26:09Z</time></trkpt><trkpt lat="39.486659364085035" lon="8.908035474477398"><ele>59.8</ele><time>2026-04-07T17:26:11Z</time></trkpt><trkpt lat="39.48655557309416" lon="8.907995064532322"><ele>60.4</ele><time>2026-04-07T17:26:13Z</time></trkpt><trkpt lat="39.486453110333095" lon="8.907952263842834"><ele>61.0</ele><time>2026-04-07T17:26:15Z</time></trkpt><trkpt lat="39.48634666084776" lon="8.907908312594385"><ele>61.4</ele><time>2026-04-07T17:26:17Z</time></trkpt><trkpt lat="39.48624331012343" lon="8.907861847998452"><ele>61.8</ele><time>2026-04-07T17:26:19Z</time></trkpt><trkpt lat="39.48614534052624" lon="8.907815979638784"><ele>62.199999999999996</ele><time>2026-04-07T17:26:21Z</time></trkpt><trkpt lat="39.48605656585887" lon="8.907778768087992"><ele>62.599999999999994</ele><time>2026-04-07T17:26:23Z</time></trkpt><trkpt lat="39.485973185344854" lon="8.907742101022972"><ele>63.0</ele><time>2026-04-07T17:26:25Z</time></trkpt><trkpt lat="39.48587615386906" lon="8.907741446838513"><ele>63.0</ele><time>2026-04-07T17:26:27Z</time></trkpt><trkpt lat="39.48578577809048" lon="8.907738437407268"><ele>63.0</ele><time>2026-04-07T17:26:29Z</time></trkpt><trkpt lat="39.48569142174339" lon="8.907720511736668"><ele>63.0</ele><time>2026-04-07T17:26:31Z</time></trkpt><trkpt lat="39.48559345038203" lon="8.907704822138314"><ele>63.0</ele><time>2026-04-07T17:26:33Z</time></trkpt><trkpt lat="39.485493156844406" lon="8.90768680068233"><ele>63.0</ele><time>2026-04-07T17:26:35Z</time></trkpt><trkpt lat="39.48539894324506" lon="8.907668396880592"><ele>63.833333333333336</ele><time>2026-04-07T17:26:37Z</time></trkpt><trkpt lat="39.48530120402512" lon="8.90765319927622"><ele>64.66666666666667</ele><time>2026-04-07T17:26:39Z</time></trkpt><trkpt lat="39.48521013796752" lon="8.907643543208044"><ele>65.5</ele><time>2026-04-07T17:26:41Z</time></trkpt><trkpt lat="39.48513370626414" lon="8.907638053289963"><ele>66.33333333333334</ele><time>2026-04-07T17:26:44Z</time></trkpt><trkpt lat="39.48504390471757" lon="8.907636698935683"><ele>67.16666666666667</ele><time>2026-04-07T17:26:47Z</time></trkpt><trkpt lat="39.484973412817155" lon="8.907628815761962"><ele>68.0</ele><time>2026-04-07T17:26:49Z</time></trkpt><trkpt lat="39.48491055064622" lon="8.907621781860287"><ele>68.0</ele><time>2026-04-07T17:26:51Z</time></trkpt><trkpt lat="39.48484368818229" lon="8.90760360873771"><ele>68.0</ele><time>2026-04-07T17:26:53Z</time></trkpt><trkpt lat="39.484762736235446" lon="8.907577134494526"><ele>68.0</ele><time>2026-04-07T17:26:55Z</time></trkpt><trkpt lat="39.48468623792384" lon="8.907542538310938"><ele>68.0</ele><time>2026-04-07T17:26:57Z</time></trkpt><trkpt lat="39.48460474749989" lon="8.907505535956266"><ele>68.0</ele><time>2026-04-07T17:26:59Z</time></trkpt><trkpt lat="39.48453498261814" lon="8.907471179601027"><ele>68.0</ele><time>2026-04-07T17:27:01Z</time></trkpt><trkpt lat="39.484469882184555" lon="8.907428425084124"><ele>67.83333333333334</ele><time>2026-04-07T17:27:03Z</time></trkpt><trkpt lat="39.484408954239356" lon="8.907385861875934"><ele>67.66666666666667</ele><time>2026-04-07T17:27:05Z</time></trkpt><trkpt lat="39.484345242837236" lon="8.907356879015405"><ele>67.5</ele><time>2026-04-07T17:27:07Z</time></trkpt><trkpt lat="39.48428442253674" lon="8.90733362713078"><ele>67.33333333333333</ele><time>2026-04-07T17:27:09Z</time></trkpt><trkpt lat="39.484221819562734" lon="8.907298003071977"><ele>67.16666666666666</ele><time>2026-04-07T17:27:12Z</time></trkpt><trkpt lat="39.4841552935511" lon="8.907181793781215"><ele>67.0</ele><time>2026-04-07T17:27:14Z</time></trkpt><trkpt lat="39.48409460548436" lon="8.907131929395993"><ele>67.0</ele><time>2026-04-07T17:27:15Z</time></trkpt><trkpt lat="39.48403858646307" lon="8.90707692851686"><ele>67.0</ele><time>2026-04-07T17:27:16Z</time></trkpt><trkpt lat="39.48397770305205" lon="8.907032443683352"><ele>67.0</ele><time>2026-04-07T17:27:17Z</time></trkpt><trkpt lat="39.48391050791303" lon="8.906938934945677"><ele>67.0</ele><time>2026-04-07T17:27:19Z</time></trkpt><trkpt lat="39.48386928735761" lon="8.906870812863797"><ele>67.0</ele><time>2026-04-07T17:27:25Z</time></trkpt><trkpt lat="39.48382624216683" lon="8.90678930732037"><ele>67.0</ele><time>2026-04-07T17:27:27Z</time></trkpt><trkpt lat="39.4837966361155" lon="8.906688093702382"><ele>66.33333333333333</ele><time>2026-04-07T17:27:29Z</time></trkpt><trkpt lat="39.48375650487562" lon="8.906608305969025"><ele>65.66666666666666</ele><time>2026-04-07T17:27:31Z</time></trkpt><trkpt lat="39.48366687905456" lon="8.906613973323948"><ele>65.0</ele><time>2026-04-07T17:27:36Z</time></trkpt><trkpt lat="39.48359035021733" lon="8.906662354923624"><ele>64.33333333333333</ele><time>2026-04-07T17:27:38Z</time></trkpt><trkpt lat="39.48351449723345" lon="8.906722129029172"><ele>63.666666666666664</ele><time>2026-04-07T17:27:40Z</time></trkpt><trkpt lat="39.48343965283745" lon="8.906774410315876"><ele>63.0</ele><time>2026-04-07T17:27:42Z</time></trkpt><trkpt lat="39.48336150247048" lon="8.906820883434861"><ele>63.0</ele><time>2026-04-07T17:27:44Z</time></trkpt><trkpt lat="39.483280525885725" lon="8.906871630835317"><ele>63.0</ele><time>2026-04-07T17:27:46Z</time></trkpt><trkpt lat="39.483197023588495" lon="8.906915309413185"><ele>63.0</ele><time>2026-04-07T17:27:48Z</time></trkpt><trkpt lat="39.48311328425214" lon="8.906965163084122"><ele>63.0</ele><time>2026-04-07T17:27:50Z</time></trkpt><trkpt lat="39.48303561161124" lon="8.907018798854983"><ele>63.0</ele><time>2026-04-07T17:27:52Z</time></trkpt><trkpt lat="39.48295243592862" lon="8.907064556575747"><ele>62.0</ele><time>2026-04-07T17:27:54Z</time></trkpt><trkpt lat="39.48287541387991" lon="8.907104348807888"><ele>61.0</ele><time>2026-04-07T17:27:56Z</time></trkpt><trkpt lat="39.482809635113426" lon="8.90714826724405"><ele>60.0</ele><time>2026-04-07T17:27:58Z</time></trkpt><trkpt lat="39.482743513186165" lon="8.907187796239414"><ele>59.0</ele><time>2026-04-07T17:28:00Z</time></trkpt><trkpt lat="39.482671411088916" lon="8.907154616654203"><ele>58.0</ele><time>2026-04-07T17:28:03Z</time></trkpt><trkpt lat="39.48264389654498" lon="8.90705189516599"><ele>57.0</ele><time>2026-04-07T17:28:05Z</time></trkpt><trkpt lat="39.48260324912797" lon="8.906935335183379"><ele>57.0</ele><time>2026-04-07T17:28:07Z</time></trkpt><trkpt lat="39.48255736922426" lon="8.90682052998432"><ele>57.0</ele><time>2026-04-07T17:28:09Z</time></trkpt><trkpt lat="39.48250556597864" lon="8.906712222092187"><ele>57.0</ele><time>2026-04-07T17:28:11Z</time></trkpt><trkpt lat="39.482453582209864" lon="8.906591574143501"><ele>57.0</ele><time>2026-04-07T17:28:13Z</time></trkpt><trkpt lat="39.4824217736785" lon="8.906500609619476"><ele>57.0</ele><time>2026-04-07T17:28:15Z</time></trkpt><trkpt lat="39.48247324607406" lon="8.906412747837791"><ele>56.5</ele><time>2026-04-07T17:28:18Z</time></trkpt><trkpt lat="39.482537473696375" lon="8.906357752544931"><ele>56.0</ele><time>2026-04-07T17:28:20Z</time></trkpt><trkpt lat="39.48260554276878" lon="8.906280031045677"><ele>55.5</ele><time>2026-04-07T17:28:22Z</time></trkpt><trkpt lat="39.48267481221988" lon="8.906197302169636"><ele>55.0</ele><time>2026-04-07T17:28:24Z</time></trkpt><trkpt lat="39.482734816895295" lon="8.906135639448324"><ele>54.5</ele><time>2026-04-07T17:28:26Z</time></trkpt><trkpt lat="39.48277313176984" lon="8.906040981151254"><ele>54.0</ele><time>2026-04-07T17:28:28Z</time></trkpt><trkpt lat="39.48269189444407" lon="8.90595906871034"><ele>54.0</ele><time>2026-04-07T17:28:30Z</time></trkpt><trkpt lat="39.48263058216562" lon="8.905874636676316"><ele>54.00000000000001</ele><time>2026-04-07T17:28:32Z</time></trkpt><trkpt lat="39.48256417482272" lon="8.905779495451945"><ele>54.00000000000001</ele><time>2026-04-07T17:28:34Z</time></trkpt><trkpt lat="39.48249746348789" lon="8.905693830562356"><ele>54.0</ele><time>2026-04-07T17:28:36Z</time></trkpt><trkpt lat="39.48243163914462" lon="8.905610331718464"><ele>54.0</ele><time>2026-04-07T17:28:38Z</time></trkpt><trkpt lat="39.48238064701466" lon="8.905521452062896"><ele>54.0</ele><time>2026-04-07T17:28:40Z</time></trkpt><trkpt lat="39.48231526235428" lon="8.905438194819535"><ele>54.0</ele><time>2026-04-07T17:28:42Z</time></trkpt><trkpt lat="39.482257624963516" lon="8.905362134644987"><ele>54.0</ele><time>2026-04-07T17:28:44Z</time></trkpt><trkpt lat="39.48218528486327" lon="8.905335407611762"><ele>54.0</ele><time>2026-04-07T17:28:47Z</time></trkpt><trkpt lat="39.48210686820966" lon="8.905377262607102"><ele>54.0</ele><time>2026-04-07T17:28:49Z</time></trkpt><trkpt lat="39.48201988122257" lon="8.90541820573422"><ele>54.0</ele><time>2026-04-07T17:28:51Z</time></trkpt><trkpt lat="39.4819353736243" lon="8.905460432727947"><ele>53.800000000000004</ele><time>2026-04-07T17:28:53Z</time></trkpt><trkpt lat="39.48184075710928" lon="8.905497883585722"><ele>53.60000000000001</ele><time>2026-04-07T17:28:55Z</time></trkpt><trkpt lat="39.4817430941646" lon="8.905528864616493"><ele>53.4</ele><time>2026-04-07T17:28:57Z</time></trkpt><trkpt lat="39.48165470074105" lon="8.905577587343172"><ele>53.2</ele><time>2026-04-07T17:28:59Z</time></trkpt><trkpt lat="39.48156533165943" lon="8.905605753175637"><ele>53.0</ele><time>2026-04-07T17:29:01Z</time></trkpt><trkpt lat="39.48147300669006" lon="8.905631455063277"><ele>53.0</ele><time>2026-04-07T17:29:03Z</time></trkpt><trkpt lat="39.481380348107685" lon="8.905648578146739"><ele>53.0</ele><time>2026-04-07T17:29:05Z</time></trkpt><trkpt lat="39.48127367777733" lon="8.905642255636659"><ele>53.0</ele><time>2026-04-07T17:29:07Z</time></trkpt><trkpt lat="39.481189784763" lon="8.905638413067622"><ele>53.0</ele><time>2026-04-07T17:29:09Z</time></trkpt><trkpt lat="39.481111964965436" lon="8.905567145825524"><ele>53.0</ele><time>2026-04-07T17:29:13Z</time></trkpt><trkpt lat="39.48114912195105" lon="8.90546141959517"><ele>53.00000000000001</ele><time>2026-04-07T17:29:15Z</time></trkpt><trkpt lat="39.481185059180234" lon="8.905365250239278"><ele>53.0</ele><time>2026-04-07T17:29:17Z</time></trkpt><trkpt lat="39.48121696339217" lon="8.905262940556895"><ele>53.0</ele><time>2026-04-07T17:29:19Z</time></trkpt><trkpt lat="39.48124750516247" lon="8.905157806320062"><ele>53.0</ele><time>2026-04-07T17:29:21Z</time></trkpt><trkpt lat="39.481281923603696" lon="8.905057910487015"><ele>53.00000000000001</ele><time>2026-04-07T17:29:23Z</time></trkpt><trkpt lat="39.481321004155326" lon="8.904952801216288"><ele>53.0</ele><time>2026-04-07T17:29:25Z</time></trkpt><trkpt lat="39.48136307687531" lon="8.904847099350066"><ele>53.0</ele><time>2026-04-07T17:29:27Z</time></trkpt><trkpt lat="39.48140658822053" lon="8.90473835944186"><ele>53.0</ele><time>2026-04-07T17:29:29Z</time></trkpt><trkpt lat="39.48144785787741" lon="8.904626075729976"><ele>53.0</ele><time>2026-04-07T17:29:31Z</time></trkpt><trkpt lat="39.48149174871463" lon="8.904514106875679"><ele>53.0</ele><time>2026-04-07T17:29:33Z</time></trkpt><trkpt lat="39.48154581385243" lon="8.904402881753212"><ele>53.0</ele><time>2026-04-07T17:29:35Z</time></trkpt><trkpt lat="39.48159218631669" lon="8.90428533176525"><ele>52.599999999999994</ele><time>2026-04-07T17:29:37Z</time></trkpt><trkpt lat="39.48163986803802" lon="8.904170414297825"><ele>52.199999999999996</ele><time>2026-04-07T17:29:39Z</time></trkpt><trkpt lat="39.481685161449185" lon="8.904051486133655"><ele>51.8</ele><time>2026-04-07T17:29:41Z</time></trkpt><trkpt lat="39.481728842819955" lon="8.90393142529923"><ele>51.4</ele><time>2026-04-07T17:29:43Z</time></trkpt><trkpt lat="39.48178364703425" lon="8.903818842393566"><ele>51.0</ele><time>2026-04-07T17:29:45Z</time></trkpt><trkpt lat="39.481832071152496" lon="8.903701377087986"><ele>51.0</ele><time>2026-04-07T17:29:47Z</time></trkpt><trkpt lat="39.48187447008468" lon="8.90358177468431"><ele>51.0</ele><time>2026-04-07T17:29:49Z</time></trkpt><trkpt lat="39.481922682232124" lon="8.903465049194528"><ele>51.0</ele><time>2026-04-07T17:29:51Z</time></trkpt><trkpt lat="39.481972490212904" lon="8.903347139061546"><ele>51.0</ele><time>2026-04-07T17:29:53Z</time></trkpt><trkpt lat="39.48201882735827" lon="8.903238310555002"><ele>51.0</ele><time>2026-04-07T17:29:55Z</time></trkpt><trkpt lat="39.48206319805301" lon="8.90313246417498"><ele>51.4</ele><time>2026-04-07T17:29:57Z</time></trkpt><trkpt lat="39.48210824176961" lon="8.90303057509863"><ele>51.8</ele><time>2026-04-07T17:29:59Z</time></trkpt><trkpt lat="39.48215230049914" lon="8.902930173074418"><ele>52.199999999999996</ele><time>2026-04-07T17:30:01Z</time></trkpt><trkpt lat="39.48219707953338" lon="8.902826393819904"><ele>52.599999999999994</ele><time>2026-04-07T17:30:03Z</time></trkpt><trkpt lat="39.48224307812853" lon="8.9027197587651"><ele>53.0</ele><time>2026-04-07T17:30:05Z</time></trkpt><trkpt lat="39.48228913328166" lon="8.90261491189228"><ele>52.66666666666667</ele><time>2026-04-07T17:30:07Z</time></trkpt><trkpt lat="39.48232261998114" lon="8.90249888568497"><ele>52.333333333333336</ele><time>2026-04-07T17:30:09Z</time></trkpt><trkpt lat="39.48235030842578" lon="8.902415352366736"><ele>52.0</ele><time>2026-04-07T17:30:11Z</time></trkpt><trkpt lat="39.48238384906555" lon="8.902310603597451"><ele>51.66666666666667</ele><time>2026-04-07T17:30:13Z</time></trkpt><trkpt lat="39.482414797454254" lon="8.902236352167845"><ele>51.333333333333336</ele><time>2026-04-07T17:30:14Z</time></trkpt><trkpt lat="39.48245967050726" lon="8.902126074097344"><ele>51.0</ele><time>2026-04-07T17:30:16Z</time></trkpt><trkpt lat="39.482505178589115" lon="8.902012617350982"><ele>51.0</ele><time>2026-04-07T17:30:18Z</time></trkpt><trkpt lat="39.48254754805029" lon="8.901902258892244"><ele>51.0</ele><time>2026-04-07T17:30:20Z</time></trkpt><trkpt lat="39.4825929594596" lon="8.90178682094508"><ele>51.0</ele><time>2026-04-07T17:30:22Z</time></trkpt><trkpt lat="39.48263792010561" lon="8.901661671368162"><ele>51.0</ele><time>2026-04-07T17:30:24Z</time></trkpt><trkpt lat="39.48268397668018" lon="8.901545624090673"><ele>51.0</ele><time>2026-04-07T17:30:26Z</time></trkpt><trkpt lat="39.48273239963042" lon="8.90142572957493"><ele>50.75</ele><time>2026-04-07T17:30:28Z</time></trkpt><trkpt lat="39.482779029335575" lon="8.901303506863107"><ele>50.5</ele><time>2026-04-07T17:30:30Z</time></trkpt><trkpt lat="39.482854610648964" lon="8.90110529604335"><ele>50.25</ele><time>2026-04-07T17:30:33Z</time></trkpt><trkpt lat="39.48294074584749" lon="8.90100919326669"><ele>50.0</ele><time>2026-04-07T17:30:35Z</time></trkpt><trkpt lat="39.48296435612465" lon="8.900861883902763"><ele>50.50000000000001</ele><time>2026-04-07T17:30:37Z</time></trkpt><trkpt lat="39.483006844188225" lon="8.900740247841645"><ele>51.0</ele><time>2026-04-07T17:30:39Z</time></trkpt><trkpt lat="39.483038490462185" lon="8.900664963738537"><ele>51.5</ele><time>2026-04-07T17:30:40Z</time></trkpt><trkpt lat="39.48308894171391" lon="8.900523818421878"><ele>52.0</ele><time>2026-04-07T17:30:42Z</time></trkpt><trkpt lat="39.48312464972123" lon="8.900450758964475"><ele>52.50000000000001</ele><time>2026-04-07T17:30:43Z</time></trkpt><trkpt lat="39.48315632721718" lon="8.90036811928439"><ele>53.0</ele><time>2026-04-07T17:30:44Z</time></trkpt><trkpt lat="39.48318490432576" lon="8.900289348660507"><ele>53.0</ele><time>2026-04-07T17:30:45Z</time></trkpt><trkpt lat="39.48321437911127" lon="8.900211938820751"><ele>53.0</ele><time>2026-04-07T17:30:46Z</time></trkpt><trkpt lat="39.4832482150764" lon="8.900134279627116"><ele>53.0</ele><time>2026-04-07T17:30:47Z</time></trkpt><trkpt lat="39.48327316358521" lon="8.900056768907644"><ele>53.0</ele><time>2026-04-07T17:30:48Z</time></trkpt><trkpt lat="39.48330735205694" lon="8.899981007454022"><ele>53.0</ele><time>2026-04-07T17:30:49Z</time></trkpt><trkpt lat="39.483338469493305" lon="8.899909680152037"><ele>53.0</ele><time>2026-04-07T17:30:50Z</time></trkpt><trkpt lat="39.48337048525935" lon="8.89983110989926"><ele>53.0</ele><time>2026-04-07T17:30:51Z</time></trkpt><trkpt lat="39.483402388804514" lon="8.899760064071145"><ele>53.0</ele><time>2026-04-07T17:30:52Z</time></trkpt><trkpt lat="39.48343994774487" lon="8.89969184607588"><ele>53.0</ele><time>2026-04-07T17:30:53Z</time></trkpt><trkpt lat="39.48348375228527" lon="8.899552965243648"><ele>53.0</ele><time>2026-04-07T17:30:55Z</time></trkpt><trkpt lat="39.48350851260343" lon="8.89942105958322"><ele>53.0</ele><time>2026-04-07T17:30:57Z</time></trkpt><trkpt lat="39.483544583006655" lon="8.89927827337711"><ele>53.0</ele><time>2026-04-07T17:30:59Z</time></trkpt><trkpt lat="39.48354360873032" lon="8.89914709768052"><ele>53.00000000000001</ele><time>2026-04-07T17:31:01Z</time></trkpt><trkpt lat="39.483439521775296" lon="8.899134599272976"><ele>53.0</ele><time>2026-04-07T17:31:03Z</time></trkpt><trkpt lat="39.48340268171716" lon="8.899063497037561"><ele>53.0</ele><time>2026-04-07T17:31:05Z</time></trkpt><trkpt lat="39.483460823326936" lon="8.89902536027357"><ele>53.0</ele><time>2026-04-07T17:31:08Z</time></trkpt><trkpt lat="39.48353226004786" lon="8.899003314457254"><ele>53.00000000000001</ele><time>2026-04-07T17:31:10Z</time></trkpt><trkpt lat="39.48362367002546" lon="8.89896299993409"><ele>53.0</ele><time>2026-04-07T17:31:13Z</time></trkpt><trkpt lat="39.483704574529646" lon="8.898937605852103"><ele>53.0</ele><time>2026-04-07T17:31:16Z</time></trkpt><trkpt lat="39.48376665030131" lon="8.898922270725937"><ele>53.0</ele><time>2026-04-07T17:31:19Z</time></trkpt><trkpt lat="39.48370629370408" lon="8.898949169250999"><ele>53.0</ele><time>2026-04-07T17:31:24Z</time></trkpt><trkpt lat="39.48362592750518" lon="8.898971443546042"><ele>53.0</ele><time>2026-04-07T17:31:27Z</time></trkpt><trkpt lat="39.48354842054292" lon="8.898995522019156"><ele>53.0</ele><time>2026-04-07T17:31:30Z</time></trkpt><trkpt lat="39.483471588908394" lon="8.899021274652474"><ele>53.0</ele><time>2026-04-07T17:31:33Z</time></trkpt><trkpt lat="39.48341530522098" lon="8.899067584768861"><ele>53.0</ele><time>2026-04-07T17:31:37Z</time></trkpt><trkpt lat="39.48335778251198" lon="8.899107345627872"><ele>53.0</ele><time>2026-04-07T17:31:40Z</time></trkpt><trkpt lat="39.48332467265822" lon="8.899033837081701"><ele>53.0</ele><time>2026-04-07T17:31:45Z</time></trkpt><trkpt lat="39.48332290948255" lon="8.898935696800342"><ele>53.0</ele><time>2026-04-07T17:31:50Z</time></trkpt><trkpt lat="39.48318471511454" lon="8.898853116240184"><ele>53.0</ele><time>2026-04-07T17:32:03Z</time></trkpt><trkpt lat="39.483089579684446" lon="8.898865448975045"><ele>53.0</ele><time>2026-04-07T17:32:06Z</time></trkpt><trkpt lat="39.48300757493404" lon="8.898883749723334"><ele>53.00000000000001</ele><time>2026-04-07T17:32:08Z</time></trkpt><trkpt lat="39.48291380137851" lon="8.898913521487584"><ele>53.0</ele><time>2026-04-07T17:32:10Z</time></trkpt><trkpt lat="39.48283370292323" lon="8.898934267069412"><ele>53.0</ele><time>2026-04-07T17:32:12Z</time></trkpt><trkpt lat="39.48291312779278" lon="8.89892793133363"><ele>53.0</ele><time>2026-04-07T17:32:18Z</time></trkpt><trkpt lat="39.48299672658186" lon="8.898896408970387"><ele>53.00000000000001</ele><time>2026-04-07T17:32:20Z</time></trkpt><trkpt lat="39.483088117432146" lon="8.898855384725245"><ele>53.0</ele><time>2026-04-07T17:32:22Z</time></trkpt><trkpt lat="39.483166814942386" lon="8.898838886011204"><ele>53.00000000000001</ele><time>2026-04-07T17:32:24Z</time></trkpt><trkpt lat="39.48318888770841" lon="8.898751068623737"><ele>53.0</ele><time>2026-04-07T17:32:27Z</time></trkpt><trkpt lat="39.48326402496949" lon="8.898712512422671"><ele>53.0</ele><time>2026-04-07T17:32:30Z</time></trkpt><trkpt lat="39.483320643605595" lon="8.898764302562432"><ele>53.0</ele><time>2026-04-07T17:32:32Z</time></trkpt><trkpt lat="39.48339286606826" lon="8.8987965308394"><ele>53.00000000000001</ele><time>2026-04-07T17:32:34Z</time></trkpt><trkpt lat="39.48347033870181" lon="8.898771236908091"><ele>53.0</ele><time>2026-04-07T17:32:36Z</time></trkpt><trkpt lat="39.483542787443334" lon="8.898699543802687"><ele>53.0</ele><time>2026-04-07T17:32:38Z</time></trkpt><trkpt lat="39.48360099293595" lon="8.898603319425604"><ele>53.0</ele><time>2026-04-07T17:32:40Z</time></trkpt><trkpt lat="39.48366242327917" lon="8.898498009797454"><ele>53.0</ele><time>2026-04-07T17:32:42Z</time></trkpt><trkpt lat="39.48371267943475" lon="8.898387810921692"><ele>53.0</ele><time>2026-04-07T17:32:44Z</time></trkpt><trkpt lat="39.4837563859268" lon="8.898273300192344"><ele>53.0</ele><time>2026-04-07T17:32:46Z</time></trkpt><trkpt lat="39.48379713379328" lon="8.898157566755916"><ele>53.00000000000001</ele><time>2026-04-07T17:32:48Z</time></trkpt><trkpt lat="39.48384046124671" lon="8.898046505715348"><ele>53.0</ele><time>2026-04-07T17:32:50Z</time></trkpt><trkpt lat="39.48388509608555" lon="8.897922373057675"><ele>53.0</ele><time>2026-04-07T17:32:52Z</time></trkpt><trkpt lat="39.48386815599361" lon="8.897843402054608"><ele>53.0</ele><time>2026-04-07T17:32:53Z</time></trkpt><trkpt lat="39.48393297001685" lon="8.897762020139046"><ele>53.00000000000001</ele><time>2026-04-07T17:32:55Z</time></trkpt><trkpt lat="39.48396076968421" lon="8.897681543328158"><ele>53.0</ele><time>2026-04-07T17:32:56Z</time></trkpt><trkpt lat="39.48401082751365" lon="8.897574997429576"><ele>53.0</ele><time>2026-04-07T17:32:58Z</time></trkpt><trkpt lat="39.4840683946548" lon="8.897473185068286"><ele>53.0</ele><time>2026-04-07T17:33:00Z</time></trkpt><trkpt lat="39.484146863041396" lon="8.897390063038275"><ele>53.0</ele><time>2026-04-07T17:33:02Z</time></trkpt><trkpt lat="39.48422557658348" lon="8.897305555522331"><ele>53.0</ele><time>2026-04-07T17:33:04Z</time></trkpt><trkpt lat="39.48430084689624" lon="8.897228598018833"><ele>53.0</ele><time>2026-04-07T17:33:06Z</time></trkpt><trkpt lat="39.4843807075785" lon="8.897141651136115"><ele>53.0</ele><time>2026-04-07T17:33:08Z</time></trkpt><trkpt lat="39.48446595412827" lon="8.897066144077634"><ele>53.0</ele><time>2026-04-07T17:33:10Z</time></trkpt><trkpt lat="39.48454389644107" lon="8.896987582834956"><ele>53.0</ele><time>2026-04-07T17:33:12Z</time></trkpt><trkpt lat="39.48462844600165" lon="8.896922657579367"><ele>53.0</ele><time>2026-04-07T17:33:14Z</time></trkpt><trkpt lat="39.484713898814995" lon="8.896852269699629"><ele>53.0</ele><time>2026-04-07T17:33:16Z</time></trkpt><trkpt lat="39.48480092701971" lon="8.89677793661937"><ele>53.2</ele><time>2026-04-07T17:33:18Z</time></trkpt><trkpt lat="39.48487544089663" lon="8.896701194542214"><ele>53.4</ele><time>2026-04-07T17:33:20Z</time></trkpt><trkpt lat="39.48496795759204" lon="8.896650726693258"><ele>53.60000000000001</ele><time>2026-04-07T17:33:22Z</time></trkpt><trkpt lat="39.4850618442629" lon="8.896641387329314"><ele>53.800000000000004</ele><time>2026-04-07T17:33:24Z</time></trkpt><trkpt lat="39.485160261721006" lon="8.896638234558628"><ele>54.0</ele><time>2026-04-07T17:33:26Z</time></trkpt><trkpt lat="39.48525482414935" lon="8.896655448843894"><ele>54.0</ele><time>2026-04-07T17:33:28Z</time></trkpt><trkpt lat="39.48534754196406" lon="8.896674092730452"><ele>54.0</ele><time>2026-04-07T17:33:30Z</time></trkpt><trkpt lat="39.485426481058" lon="8.896699348208198"><ele>54.0</ele><time>2026-04-07T17:33:32Z</time></trkpt><trkpt lat="39.48549433910565" lon="8.89673313792243"><ele>54.0</ele><time>2026-04-07T17:33:34Z</time></trkpt><trkpt lat="39.48548594253744" lon="8.896819815053213"><ele>54.0</ele><time>2026-04-07T17:33:37Z</time></trkpt><trkpt lat="39.48545718870516" lon="8.89689263137926"><ele>54.0</ele><time>2026-04-07T17:33:39Z</time></trkpt><trkpt lat="39.48540988383494" lon="8.897012532858476"><ele>55.0</ele><time>2026-04-07T17:33:41Z</time></trkpt><trkpt lat="39.48537704942104" lon="8.897102742709531"><ele>55.0</ele><time>2026-04-07T17:33:43Z</time></trkpt><trkpt lat="39.48534768616195" lon="8.897192677341351"><ele>55.0</ele><time>2026-04-07T17:33:45Z</time></trkpt><trkpt lat="39.485310600626555" lon="8.897266053315974"><ele>55.0</ele><time>2026-04-07T17:33:47Z</time></trkpt><trkpt lat="39.48527393481475" lon="8.897339308719365"><ele>55.0</ele><time>2026-04-07T17:33:49Z</time></trkpt><trkpt lat="39.48522203053594" lon="8.897396261628948"><ele>55.0</ele><time>2026-04-07T17:35:55Z</time></trkpt></trkseg></trk></gpx>